[[{"header":{"parameterUnit":"m.s-1","parameterCategory":1,"la1":30.6,"la2":28.766,"lo1":-90.7593,"lo2":-88.6598,"dy":0.0162,"dx":0.0183,"nx":116,"ny":114,"refTime":"2023-06-18T18:00:00:Z","depth":0,"parameterNumber":2,"parameterNumberName":"U-component_of_WINDS"},"data":[0.0,0.0,0.0,0.0,0.0,0.0,0.0,0.0,0.0,0.0,0.0,0.0,0.0,0.0,0.0,0.0,0.0,0.0,0.0,0.0,0.0,0.0,0.0,0.0,0.0,0.0,0.0,0.0,0.0,0.0,0.0,0.0,0.0,0.0,0.0,0.0,0.0,0.0,0.0,0.0,0.0,0.0,0.0,0.0,0.0,0.0,0.0,0.0,0.0,0.0,0.0,0.0,0.0,0.0,0.0,0.0,0.0,0.0,0.0,0.0,0.0,0.0,0.0,0.0,0.0,0.0,0.0,0.0,0.0,0.0,0.0,0.0,0.0,0.0,0.0,0.0,0.0,0.0,0.0,0.0,0.0,0.0,0.0,0.0,0.0,0.0,0.0,0.0,0.0,0.0,0.0,0.0,0.0,0.0,0.0,0.0,0.0,0.0,0.0,0.0,0.0,0.0,0.0,0.0,0.0,0.0,0.0,0.0,0.0,0.0,0.0,0.0,0.0,0.0,0.0,0.0,0.0,0.0,0.0,0.0,0.0,0.0,0.0,0.0,0.0,0.0,0.0,0.0,0.0,0.0,0.0,0.0,0.0,0.0,0.0,0.0,0.0,0.0,0.0,0.0,0.0,0.0,0.0,0.0,0.0,0.0,0.0,0.0,0.0,0.0,0.0,0.0,0.0,0.0,0.0,0.0,0.0,0.0,0.0,0.0,0.0,0.0,0.0,0.0,0.0,0.0,0.0,0.0,0.0,0.0,0.0,0.0,0.0,0.0,0.0,0.0,0.0,0.0,0.0,0.0,0.0,0.0,0.0,0.0,0.0,0.0,0.0,0.0,0.0,0.0,0.0,0.0,0.0,0.0,0.0,0.0,0.0,0.0,0.0,0.0,0.0,0.0,0.0,0.0,0.0,0.0,0.0,0.0,0.0,0.0,0.0,0.0,0.0,0.0,0.0,0.0,0.0,0.0,0.0,0.0,0.0,0.0,0.0,0.0,0.0,0.0,0.0,0.0,0.0,0.0,0.0,0.0,0.0,0.0,0.0,0.0,0.0,0.0,0.0,0.0,0.0,0.0,0.0,0.0,0.0,0.0,0.0,0.0,0.0,0.0,0.0,0.0,0.0,0.0,0.0,0.0,0.0,0.0,0.0,0.0,0.0,0.0,0.0,0.0,0.0,0.0,0.0,0.0,0.0,0.0,0.0,0.0,0.0,0.0,0.0,0.0,0.0,0.0,0.0,0.0,0.0,0.0,0.0,0.0,0.0,0.0,0.0,0.0,0.0,0.0,0.0,0.0,0.0,0.0,0.0,0.0,0.0,0.0,0.0,0.0,0.0,0.0,0.0,0.0,0.0,0.0,0.0,0.0,0.0,0.0,0.0,0.0,0.0,0.0,0.0,0.0,0.0,0.0,0.0,0.0,0.0,0.0,0.0,0.0,0.0,0.0,0.0,0.0,0.0,0.0,0.0,0.0,0.0,0.0,0.0,0.0,0.0,0.0,0.0,0.0,0.0,0.0,0.0,0.0,0.0,0.0,0.0,0.0,0.0,0.0,0.0,0.0,0.0,0.0,0.0,0.0,0.0,0.0,0.0,0.0,0.0,0.0,0.0,0.0,0.0,0.0,0.0,0.0,0.0,0.0,0.0,0.0,0.0,0.0,0.0,0.0,0.0,0.0,0.0,0.0,0.0,0.0,0.0,0.0,0.0,0.0,0.0,0.0,0.0,0.0,0.0,0.0,0.0,0.0,0.0,0.0,0.0,0.0,0.0,0.0,0.0,0.0,0.0,0.0,0.0,0.0,0.0,0.0,0.0,0.0,0.0,0.0,0.0,0.0,0.0,0.0,0.0,0.0,0.0,0.0,0.0,0.0,0.0,0.0,0.0,0.0,0.0,0.0,0.0,0.0,0.0,0.0,0.0,0.0,0.0,0.0,0.0,0.0,0.0,0.0,0.0,0.0,0.0,0.0,0.0,0.0,0.0,0.0,0.0,0.0,0.0,0.0,0.0,0.0,0.0,0.0,0.0,0.0,0.0,0.0,0.0,0.0,0.0,0.0,0.0,0.0,0.0,0.0,0.0,0.0,0.0,0.0,0.0,0.0,0.0,0.0,0.0,0.0,0.0,0.0,0.0,0.0,0.0,0.0,0.0,0.0,0.0,0.0,0.0,0.0,0.0,0.0,0.0,0.0,0.0,0.0,0.0,0.0,0.0,0.0,0.0,0.0,0.0,0.0,0.0,0.0,0.0,0.0,0.0,0.0,0.0,0.0,0.0,0.0,0.0,0.0,0.0,0.0,0.0,0.0,0.0,0.0,0.0,0.0,0.0,0.0,0.0,0.0,0.0,0.0,0.0,0.0,0.0,0.0,0.0,0.0,0.0,0.0,0.0,0.0,0.0,0.0,0.0,0.0,0.0,0.0,0.0,0.0,0.0,0.0,0.0,0.0,0.0,0.0,0.0,0.0,0.0,0.0,0.0,0.0,0.0,0.0,0.0,0.0,0.0,0.0,0.0,0.0,0.0,0.0,0.0,0.0,0.0,0.0,0.0,0.0,0.0,0.0,0.0,0.0,0.0,0.0,0.0,0.0,0.0,0.0,0.0,0.0,0.0,0.0,0.0,0.0,0.0,0.0,0.0,0.0,0.0,0.0,0.0,0.0,0.0,0.0,0.0,0.0,0.0,0.0,0.0,0.0,0.0,0.0,0.0,0.0,0.0,0.0,0.0,0.0,0.0,0.0,0.0,0.0,0.0,0.0,0.0,0.0,0.0,0.0,0.0,0.0,0.0,0.0,0.0,0.0,0.0,0.0,0.0,0.0,0.0,0.0,0.0,0.0,0.0,0.0,0.0,0.0,0.0,0.0,0.0,0.0,0.0,0.0,0.0,0.0,0.0,0.0,0.0,0.0,0.0,0.0,0.0,0.0,0.0,0.0,0.0,0.0,0.0,0.0,0.0,0.0,0.0,0.0,0.0,0.0,0.0,0.0,0.0,0.0,0.0,0.0,0.0,0.0,0.0,0.0,0.0,0.0,0.0,0.0,0.0,0.0,0.0,0.0,0.0,0.0,0.0,0.0,0.0,0.0,0.0,0.0,0.0,0.0,0.0,0.0,0.0,0.0,0.0,0.0,0.0,0.0,0.0,0.0,0.0,0.0,0.0,0.0,0.0,0.0,0.0,0.0,0.0,0.0,0.0,0.0,0.0,0.0,0.0,0.0,0.0,0.0,0.0,0.0,0.0,0.0,0.0,0.0,0.0,0.0,0.0,0.0,0.0,0.0,0.0,0.0,0.0,0.0,0.0,0.0,0.0,0.0,0.0,0.0,0.0,0.0,0.0,0.0,0.0,0.0,0.0,0.0,0.0,0.0,0.0,0.0,0.0,0.0,0.0,0.0,0.0,0.0,0.0,0.0,0.0,0.0,0.0,0.0,0.0,0.0,0.0,0.0,0.0,0.0,0.0,0.0,0.0,0.0,0.0,0.0,0.0,0.0,0.0,0.0,0.0,0.0,0.0,0.0,0.0,0.0,0.0,0.0,0.0,0.0,0.0,0.0,0.0,0.0,0.0,0.0,0.0,0.0,0.0,0.0,0.0,0.0,0.0,0.0,0.0,0.0,0.0,0.0,0.0,0.0,0.0,0.0,0.0,0.0,0.0,0.0,0.0,0.0,0.0,0.0,0.0,0.0,0.0,0.0,0.0,0.0,0.0,0.0,0.0,0.0,0.0,0.0,0.0,0.0,0.0,0.0,0.0,0.0,0.0,0.0,0.0,0.0,0.0,0.0,0.0,0.0,0.0,0.0,0.0,0.0,0.0,0.0,0.0,0.0,0.0,0.0,0.0,0.0,0.0,0.0,0.0,0.0,0.0,0.0,0.0,0.0,0.0,0.0,0.0,0.0,0.0,0.0,0.0,0.0,0.0,0.0,0.0,0.0,0.0,0.0,0.0,0.0,0.0,0.0,0.0,0.0,0.0,0.0,0.0,0.0,0.0,0.0,0.0,0.0,0.0,0.0,0.0,0.0,0.0,0.0,0.0,0.0,0.0,0.0,0.0,0.0,0.0,0.0,0.0,0.0,0.0,0.0,0.0,0.0,0.0,0.0,0.0,0.0,0.0,0.0,0.0,0.0,0.0,0.0,0.0,0.0,0.0,0.0,0.0,0.0,0.0,0.0,0.0,0.0,0.0,0.0,0.0,0.0,0.0,0.0,0.0,0.0,0.0,0.0,0.0,0.0,0.0,0.0,0.0,0.0,0.0,0.0,0.0,0.0,0.0,0.0,0.0,0.0,0.0,0.0,0.0,0.0,0.0,0.0,0.0,0.0,0.0,0.0,0.0,0.0,0.0,0.0,0.0,0.0,0.0,0.0,0.0,0.0,0.0,0.0,0.0,0.0,0.0,0.0,0.0,0.0,0.0,0.0,0.0,0.0,0.0,0.0,0.0,0.0,0.0,0.0,0.0,0.0,0.0,0.0,0.0,0.0,0.0,0.0,0.0,0.0,0.0,0.0,0.0,0.0,0.0,0.0,0.0,0.0,0.0,0.0,0.0,0.0,0.0,0.0,0.0,0.0,0.0,0.0,0.0,0.0,0.0,0.0,0.0,0.0,0.0,0.0,0.0,0.0,0.0,0.0,0.0,0.0,0.0,0.0,0.0,0.0,0.0,0.0,0.0,0.0,0.0,0.0,0.0,0.0,0.0,0.0,0.0,0.0,0.0,0.0,0.0,0.0,0.0,0.0,0.0,0.0,0.0,0.0,0.0,0.0,0.0,0.0,0.0,0.0,0.0,0.0,0.0,0.0,0.0,0.0,0.0,0.0,0.0,0.0,0.0,0.0,0.0,0.0,0.0,0.0,0.0,0.0,0.0,0.0,0.0,0.0,0.0,0.0,0.0,0.0,0.0,0.0,0.0,0.0,0.0,0.0,0.0,0.0,0.0,0.0,0.0,0.0,0.0,0.0,0.0,0.0,0.0,0.0,0.0,0.0,0.0,0.0,0.0,0.0,0.0,0.0,0.0,0.0,0.0,0.0,0.0,0.0,0.0,0.0,0.0,0.0,0.0,0.0,0.0,0.0,0.0,0.0,0.0,0.0,0.0,0.0,0.0,0.0,0.0,0.0,0.0,0.0,0.0,0.0,0.0,0.0,0.0,0.0,0.0,0.0,0.0,0.0,0.0,0.0,0.0,0.0,0.0,0.0,0.0,0.0,0.0,0.0,0.0,0.0,0.0,0.0,0.0,0.0,0.0,0.0,0.0,0.0,0.0,0.0,0.0,0.0,0.0,0.0,0.0,0.0,0.0,0.0,0.0,0.0,0.0,0.0,0.0,0.0,0.0,0.0,0.0,0.0,0.0,0.0,0.0,0.0,0.0,0.0,0.0,0.0,0.0,0.0,0.0,0.0,0.0,0.0,0.0,0.0,0.0,0.0,0.0,0.0,0.0,0.0,0.0,0.0,0.0,0.0,0.0,0.0,0.0,0.0,0.0,0.0,0.0,0.0,0.0,0.0,0.0,0.0,0.0,0.0,0.0,0.0,0.0,0.0,0.0,0.0,0.0,0.0,0.0,0.0,0.0,0.0,0.0,0.0,0.0,0.0,0.0,0.0,0.0,0.0,0.0,0.0,0.0,0.0,0.0,0.0,0.0,0.0,0.0,0.0,0.0,0.0,0.0,0.0,0.0,0.0,0.0,0.0,0.0,0.0,0.0,0.0,0.0,0.0,0.0,0.0,0.0,0.0,0.0,0.0,0.0,0.0,0.0,0.0,0.0,0.0,0.0,0.0,0.0,0.0,0.0,0.0,0.0,0.0,0.0,0.0,0.0,0.0,0.0,0.0,0.0,0.0,0.0,0.0,0.0,0.0,0.0,0.0,0.0,0.0,0.0,0.0,0.0,0.0,0.0,0.0,0.0,0.0,0.0,0.0,0.0,0.0,0.0,0.0,0.0,0.0,0.0,0.0,0.0,0.0,0.0,0.0,0.0,0.0,0.0,0.0,0.0,0.0,0.0,0.0,0.0,0.0,0.0,0.0,0.0,0.0,0.0,0.0,0.0,0.0,0.0,0.0,0.0,0.0,0.0,0.0,0.0,0.0,0.0,0.0,0.0,0.0,-2.0983,0.0,0.0,0.0,0.0,0.0,0.0,0.0,0.0,0.0,0.0,0.0,0.0,0.0,0.0,0.0,0.0,0.0,0.0,0.0,0.0,0.0,0.0,0.0,0.0,0.0,0.0,0.0,0.0,0.0,0.0,0.0,0.0,0.0,0.0,0.0,0.0,0.0,0.0,0.0,0.0,0.0,0.0,0.0,0.0,0.0,0.0,0.0,0.0,0.0,0.0,0.0,0.0,0.0,0.0,0.0,0.0,0.0,0.0,0.0,0.0,0.0,0.0,0.0,0.0,0.0,0.0,0.0,0.0,0.0,0.0,0.0,0.0,0.0,0.0,0.0,0.0,0.0,0.0,0.0,0.0,0.0,0.0,0.0,0.0,0.0,0.0,0.0,0.0,0.0,0.0,0.0,0.0,0.0,0.0,0.0,0.0,0.0,0.0,0.0,0.0,0.0,0.0,0.0,0.0,0.0,0.0,0.0,0.0,0.0,0.0,0.0,0.0,0.0,0.0,0.0,0.0,-2.2904,0.0,0.0,0.0,0.0,0.0,0.0,0.0,0.0,0.0,0.0,0.0,0.0,0.0,0.0,0.0,0.0,0.0,0.0,0.0,0.0,0.0,0.0,0.0,0.0,0.0,0.0,0.0,0.0,0.0,0.0,0.0,0.0,0.0,0.0,0.0,0.0,0.0,0.0,0.0,0.0,0.0,0.0,0.0,0.0,0.0,0.0,0.0,0.0,0.0,0.0,0.0,0.0,0.0,0.0,0.0,0.0,0.0,0.0,0.0,0.0,0.0,0.0,0.0,0.0,0.0,0.0,0.0,0.0,0.0,0.0,0.0,0.0,0.0,0.0,0.0,0.0,0.0,0.0,0.0,0.0,0.0,0.0,0.0,0.0,0.0,0.0,0.0,0.0,0.0,0.0,0.0,0.0,0.0,0.0,0.0,0.0,0.0,0.0,0.0,0.0,0.0,0.0,0.0,0.0,0.0,0.0,0.0,0.0,-2.9191,-3.0065,-3.1704,-3.1706,-3.1716,-3.1558,-2.8658,-2.707,-2.6507,-2.6504,0.0,0.0,0.0,0.0,0.0,0.0,0.0,0.0,0.0,0.0,0.0,0.0,0.0,0.0,0.0,0.0,0.0,0.0,0.0,0.0,0.0,0.0,0.0,0.0,0.0,0.0,0.0,0.0,0.0,0.0,0.0,0.0,0.0,0.0,0.0,0.0,0.0,-1.0105,-1.0743,-1.0827,-1.1069,-1.1371,-1.0053,0.0,0.0,0.0,0.0,0.0,0.0,0.0,0.0,0.0,0.0,0.0,0.0,0.0,0.0,0.0,0.0,0.0,0.0,0.0,0.0,0.0,0.0,0.0,0.0,0.0,0.0,0.0,0.0,0.0,0.0,0.0,0.0,0.0,0.0,0.0,0.0,0.0,0.0,0.0,0.0,0.0,0.0,0.0,-1.5008,-1.6781,0.0,0.0,0.0,0.0,0.0,0.0,0.0,0.0,0.0,0.0,0.0,0.0,0.0,-2.8039,-2.8902,-2.9784,-3.1055,-3.2733,-3.2731,-3.3646,-3.5302,-3.5314,-3.5308,-3.5282,-3.4839,0.0,-3.0105,-3.0111,0.0,0.0,0.0,0.0,0.0,0.0,0.0,0.0,0.0,0.0,0.0,0.0,0.0,0.0,0.0,0.0,0.0,0.0,0.0,0.0,0.0,0.0,0.0,0.0,0.0,0.0,0.0,0.0,0.0,0.0,0.0,0.0,0.0,0.0,0.0,0.0,-1.085,-1.1546,-1.2167,-1.2472,-1.2808,-1.3147,-1.2584,-1.181,-1.0873,-1.0264,0.0,0.0,0.0,0.0,0.0,0.0,0.0,0.0,0.0,0.0,0.0,0.0,0.0,0.0,0.0,0.0,0.0,0.0,0.0,0.0,0.0,0.0,0.0,0.0,0.0,0.0,0.0,0.0,0.0,0.0,0.0,0.0,0.0,0.0,0.0,0.0,0.0,0.0,0.0,-1.542,-1.7565,-1.8862,-1.986,-2.0804,0.0,0.0,0.0,0.0,0.0,0.0,0.0,0.0,0.0,-2.9804,-3.0708,-3.1573,-3.2456,-3.3338,-3.4628,-3.6328,-3.6327,-3.7243,-3.8922,-3.8879,-3.8876,-3.8874,-3.8868,-3.8003,-3.6432,-3.4515,-3.2706,-3.1127,0.0,0.0,0.0,0.0,-2.8572,-2.8561,0.0,0.0,0.0,0.0,0.0,0.0,0.0,0.0,0.0,0.0,0.0,0.0,0.0,0.0,0.0,-0.7873,0.0,0.0,0.0,0.0,0.0,0.0,0.0,0.0,0.0,0.0,0.0,-1.1584,-1.2387,-1.3081,-1.3704,-1.4261,-1.4704,-1.5001,-1.5014,-1.405,-1.2381,-1.1854,-1.1283,0.0,0.0,0.0,0.0,0.0,0.0,0.0,0.0,0.0,0.0,0.0,0.0,0.0,0.0,0.0,0.0,0.0,0.0,0.0,0.0,0.0,0.0,0.0,0.0,0.0,0.0,0.0,0.0,0.0,0.0,0.0,0.0,0.0,0.0,0.0,0.0,0.0,0.0,-1.831,-2.0162,-2.109,-2.2207,-2.3508,0.0,0.0,0.0,0.0,0.0,0.0,-2.9539,-3.0225,-3.1459,-3.3378,-3.4281,-3.5144,-3.6027,-3.6871,-3.8065,-3.957,-3.957,-4.037,-4.1835,-4.1794,-4.1774,-4.1774,-4.177,-4.1768,-4.1513,-3.8292,-3.6077,-3.4672,-3.4479,-3.347,-3.213,-3.2133,-3.2139,-3.2126,0.0,0.0,0.0,0.0,0.0,0.0,0.0,0.0,0.0,0.0,0.0,0.0,0.0,0.0,-0.9177,-0.9122,-1.0035,-1.058,0.0,0.0,0.0,0.0,0.0,0.0,0.0,0.0,-1.2188,-1.233,-1.4038,-1.5102,-1.5582,-1.6245,-1.6972,-1.7685,-1.7189,-1.6,-1.4296,-1.3449,-1.3141,-1.3051,0.0,0.0,0.0,0.0,0.0,0.0,0.0,0.0,0.0,0.0,0.0,0.0,0.0,0.0,0.0,0.0,0.0,0.0,0.0,0.0,0.0,0.0,0.0,0.0,0.0,0.0,0.0,0.0,0.0,0.0,0.0,0.0,0.0,0.0,0.0,0.0,0.0,0.0,0.0,-2.3796,-2.5418,0.0,0.0,0.0,0.0,-3.0475,-3.0576,-3.1352,-3.3056,-3.3193,-3.4387,-3.697,-3.7888,-3.875,-3.9634,-4.0441,-4.1304,-4.2205,-4.2207,-4.2695,-4.3574,-4.3573,-4.3572,-4.3572,-4.357,-4.3568,-4.3353,-4.0706,-3.9061,-3.8164,-3.7408,-3.6532,-3.5734,-3.574,-3.5742,-3.5742,0.0,0.0,0.0,0.0,0.0,0.0,0.0,0.0,0.0,0.0,0.0,0.0,0.0,-0.9585,-1.012,-1.0388,-1.077,-1.097,-1.0927,0.0,0.0,0.0,0.0,0.0,0.0,0.0,-1.371,-1.4911,-1.5526,-1.6335,-1.7311,-1.7556,-1.7908,-1.8331,-1.8152,-1.7859,-1.7424,-1.5774,-1.4747,-1.415,-1.3156,-1.2663,0.0,0.0,0.0,0.0,0.0,0.0,0.0,0.0,0.0,0.0,0.0,0.0,0.0,0.0,0.0,0.0,0.0,0.0,0.0,0.0,0.0,0.0,0.0,0.0,0.0,0.0,0.0,0.0,0.0,0.0,0.0,0.0,0.0,0.0,0.0,0.0,0.0,-2.6494,-2.7717,0.0,-3.0469,-3.1454,-3.2376,-3.3236,-3.383,-3.4911,-3.6654,-3.6753,-3.7925,-4.0503,-4.0879,-4.1451,-4.2334,-4.3198,-4.4041,-4.4922,-4.5488,-4.6191,-4.7051,-4.7051,-4.705,-4.705,-4.705,-4.705,-4.6933,-4.5447,-4.3316,-4.0987,-4.0695,-4.0055,-3.9277,-3.9277,-3.9277,-3.9273,0.0,0.0,0.0,0.0,0.0,0.0,0.0,0.0,0.0,0.0,0.0,-0.8589,-0.986,-1.0474,-1.0998,-1.1498,-1.1691,-1.1801,-1.1801,0.0,0.0,0.0,-1.2291,0.0,0.0,-1.4353,-1.5376,-1.6767,-1.7197,-1.7966,-1.8985,-1.9273,-1.9636,-2.005,-1.9902,-1.9919,-1.9955,-1.8486,-1.7057,-1.5741,-1.4907,-1.439,-1.3961,0.0,0.0,0.0,0.0,0.0,0.0,0.0,0.0,0.0,0.0,0.0,0.0,0.0,0.0,0.0,0.0,0.0,0.0,0.0,0.0,0.0,0.0,0.0,0.0,0.0,0.0,0.0,0.0,0.0,0.0,0.0,0.0,0.0,0.0,0.0,-2.7823,-2.9634,-3.0617,-3.1834,-3.3582,-3.4345,-3.5184,-3.6332,-3.6962,-3.804,-3.9785,-3.9884,-4.0938,-4.3205,-4.356,-4.4131,-4.5013,-4.5875,-4.66,-4.7187,-4.7754,-4.834,-4.8906,-4.8906,-4.8906,-4.8906,-4.8906,-4.8906,-4.8867,-4.8281,-4.668,-4.453,-4.3944,-4.3183,-4.242,-4.2419,-4.222,-4.1976,0.0,0.0,0.0,0.0,0.0,0.0,0.0,0.0,0.0,0.0,-0.8314,-0.8947,-1.065,-1.1291,-1.1832,-1.2405,-1.2923,-1.3228,-1.324,-1.2763,0.0,0.0,0.0,0.0,-1.5848,-1.6527,-1.72,-1.782,-1.904,-1.9989,-2.06,-2.1455,-2.2245,-2.2924,-2.2527,-2.2155,-2.1756,-2.1461,-2.0103,-1.7999,-1.6304,-1.5457,-1.5131,0.0,0.0,0.0,0.0,0.0,0.0,0.0,0.0,0.0,0.0,0.0,0.0,0.0,0.0,0.0,0.0,0.0,0.0,0.0,0.0,0.0,0.0,0.0,0.0,0.0,0.0,0.0,0.0,0.0,0.0,0.0,0.0,0.0,-2.8198,-2.9637,-3.1355,-3.3164,-3.4166,-3.5396,-3.7105,-3.739,-3.8129,-3.9769,-3.9914,-4.0683,-4.2427,-4.2524,-4.3328,-4.5073,-4.5931,-4.679,-4.763,-4.8513,-4.8944,-4.8944,-4.8984,-4.9023,-4.9023,-4.9043,-4.9062,-4.9062,-4.9062,-4.9062,-4.9062,-4.9023,-4.9021,-4.8846,-4.7068,-4.5855,-4.5127,-4.5122,-4.4588,-4.3855,0.0,0.0,0.0,0.0,0.0,0.0,0.0,0.0,0.0,0.0,-0.8518,-0.9332,-1.1439,-1.18,-1.229,-1.3333,-1.355,-1.3822,-1.4271,0.0,0.0,0.0,0.0,0.0,-1.7038,-1.813,-1.9211,-2.0313,-2.0751,-2.1569,-2.2698,-2.3016,-2.3399,-2.377,-2.3666,-2.348,-2.3263,-2.2752,-2.2098,-2.1219,-1.9006,-1.7823,-1.7267,0.0,0.0,0.0,0.0,0.0,0.0,0.0,0.0,0.0,0.0,0.0,0.0,0.0,0.0,0.0,0.0,0.0,0.0,0.0,0.0,0.0,0.0,0.0,0.0,0.0,0.0,0.0,0.0,0.0,0.0,0.0,0.0,-3.0707,-3.0072,-3.1475,-3.3216,-3.4982,-3.6501,-3.7866,-3.8974,-4.0253,-4.1199,-4.166,-4.2268,-4.3385,-4.5128,-4.5226,-4.6027,-4.7767,-4.8063,-4.8298,-4.8532,-4.9413,-4.9844,-4.9863,-5.1074,-5.166,-5.168,-5.2305,-5.2598,-5.2598,-5.2598,-5.2598,-5.2558,-5.1913,-5.1657,-5.142,-4.9096,-4.8018,-4.7758,-4.7757,-4.7606,-4.7304,0.0,0.0,0.0,0.0,0.0,0.0,0.0,0.0,0.0,0.0,-0.8734,-0.9623,-1.1945,-1.2212,-1.2689,-1.39,-1.4249,-1.4542,-1.4892,0.0,0.0,0.0,-1.7592,-1.8374,-1.8903,-1.9971,-2.1041,-2.2107,-2.2488,-2.3247,-2.4364,-2.4518,-2.485,-2.5362,-2.5203,-2.5165,-2.5144,-2.4313,-2.3754,-2.3325,-2.1736,-2.0319,-1.9009,-1.7821,-1.7299,-1.7113,-1.6279,-1.5935,-1.5842,-1.5785,0.0,0.0,0.0,0.0,0.0,0.0,0.0,0.0,0.0,0.0,0.0,0.0,0.0,0.0,0.0,0.0,0.0,0.0,0.0,0.0,0.0,0.0,0.0,0.0,-3.2504,-3.3714,-3.3946,-3.4839,-3.6128,-3.7861,-3.9284,-4.0487,-4.1355,-4.2671,-4.3635,-4.4012,-4.4833,-4.5949,-4.732,-4.7398,-4.8024,-4.9392,-4.9432,-4.9785,-5.0488,-5.0996,-5.1426,-5.1797,-5.2773,-5.3242,-5.3262,-5.3769,-5.4004,-5.4004,-5.4004,-5.4004,-5.3965,-5.3455,-5.3238,0.0,0.0,0.0,0.0,0.0,-4.8799,-4.8736,0.0,0.0,0.0,0.0,0.0,0.0,0.0,0.0,0.0,0.0,0.0,-0.9826,-1.2198,-1.2498,-1.3002,-1.4131,-1.4801,-1.521,0.0,0.0,0.0,-1.825,-1.8941,-1.9855,-2.0985,-2.1871,-2.2673,-2.3429,-2.4187,-2.4991,-2.5828,-2.5977,-2.6486,-2.7221,-2.6971,-2.6946,-2.7048,-2.5984,-2.5212,-2.4695,-2.4214,-2.2634,-2.055,-1.9952,-1.9467,-1.9072,-1.8578,-1.8069,-1.7588,-1.7259,0.0,0.0,0.0,0.0,0.0,0.0,0.0,0.0,0.0,0.0,0.0,0.0,0.0,0.0,0.0,0.0,0.0,0.0,0.0,0.0,0.0,0.0,0.0,0.0,-3.5183,-3.6905,-3.8559,-3.905,-3.9737,-4.1085,-4.2098,-4.3045,-4.3902,-4.4774,-4.5658,-4.6537,-4.7318,-4.8121,-4.9002,0.0,0.0,0.0,0.0,-5.1348,-5.2832,-5.2851,-5.3223,-5.4004,-5.4101,-5.414,-5.414,-5.4258,-5.4297,-5.4297,-5.4297,-5.4297,-5.4297,-5.4195,-5.4093,-5.3857,-5.2309,-5.1167,-5.0297,-4.951,-4.9187,-4.9087,0.0,0.0,0.0,0.0,0.0,0.0,0.0,0.0,0.0,-0.8935,-0.9158,-0.9887,-1.1882,-1.2537,-1.3109,-1.3818,-1.4503,-1.5284,0.0,0.0,-1.916,-1.9307,-2.0549,-2.1427,-2.178,-2.3055,-2.4072,-2.4809,-2.5721,-2.648,-2.7144,-2.7494,-2.7801,-2.807,-2.8237,-2.814,-2.7834,-2.7189,-2.6621,-2.6092,-2.5041,-2.3813,-2.245,-2.1359,-2.1031,-2.0993,-1.9957,-1.9647,-1.974,-1.9826,-1.9486,-1.8988,-1.8599,0.0,0.0,0.0,0.0,0.0,0.0,0.0,0.0,0.0,0.0,0.0,0.0,0.0,0.0,0.0,0.0,0.0,0.0,0.0,0.0,-3.5187,-3.7493,-3.9409,-4.0449,-4.2401,-4.3355,-4.2289,-4.3542,-4.4834,-4.5713,-4.6593,-4.7456,-4.8337,-4.8552,-4.9022,-4.9902,-5.0566,-5.1328,-5.2187,-5.2891,-5.3418,-5.3748,-5.3748,-5.3825,-5.4017,0.0,0.0,-5.5076,-5.5781,-5.6094,-5.6094,-5.6094,-5.6094,-5.6035,-5.5347,-5.4635,-5.3977,-5.3623,-5.2958,-5.2173,-5.2013,-5.1492,-5.0784,0.0,0.0,0.0,0.0,0.0,0.0,0.0,0.0,0.0,0.0,-0.9194,-0.9989,-1.1535,-1.2261,-1.3029,-1.397,-1.5256,0.0,0.0,-1.9008,-2.0135,-2.052,-2.1653,-2.2604,-2.3377,-2.4492,-2.5452,-2.63,-2.707,-2.7749,-2.8328,-2.8496,-2.8756,-2.9042,-2.9196,-2.9275,-2.9237,-2.8229,-2.7745,-2.7555,-2.626,-2.5496,-2.4879,-2.2973,-2.2398,-2.2488,-2.164,-2.126,-2.1167,-2.1372,-2.1126,-2.068,-2.05,-2.0318,-2.0116,0.0,0.0,0.0,0.0,0.0,0.0,0.0,0.0,0.0,0.0,0.0,0.0,0.0,0.0,-3.0675,0.0,0.0,-3.5545,-3.8125,-3.9629,-4.1054,-4.281,-4.4549,-4.5332,-4.4468,-4.5504,-4.6638,-4.7516,-4.8396,-4.9081,-4.9511,-4.9921,-5.0527,-5.1406,-5.1836,-5.2441,-5.332,-5.3768,-5.4215,-5.4643,-5.4643,-5.4876,-5.5303,-5.5736,-5.5952,-5.5972,-5.6404,-5.6601,-5.6601,-5.6601,-5.6601,-5.6562,-5.6129,-5.5688,-5.5306,-5.53,-5.4498,-5.3305,-5.2852,-5.2411,-5.1918,0.0,0.0,0.0,0.0,0.0,0.0,0.0,0.0,0.0,0.0,-0.9119,-0.9918,-1.1158,-1.1882,-1.2852,0.0,0.0,0.0,0.0,-1.9476,-2.0654,-2.1625,-2.2405,-2.3449,-2.4791,-2.5725,-2.6595,-2.7409,-2.8225,-2.8834,-2.9303,-2.9348,-2.9595,-2.9989,-3.0032,-3.0185,-3.0359,-2.9084,-2.8567,-2.8534,-2.7368,-2.7037,-2.6971,-2.4607,-2.3773,-2.3804,-2.315,-2.2663,-2.2382,-2.2575,-2.2314,-2.1958,-2.2155,-2.2236,-2.2306,-2.2489,-2.2622,0.0,0.0,0.0,0.0,0.0,0.0,0.0,0.0,0.0,-2.9157,-2.9861,-3.1523,-3.3281,-3.4687,-3.5936,-3.7693,-4.0619,-4.1381,-4.2395,-4.4655,-4.5884,-4.6592,-4.6777,-4.7422,-4.8183,-4.9043,-4.9765,-5.0254,-5.0429,-5.1191,-5.1953,-5.2656,-5.3025,-5.3532,-5.4235,-5.4427,-5.4834,-5.5556,-5.5556,-5.5906,-5.6609,-5.6591,-5.6591,-5.6591,-5.6597,-5.6599,-5.6599,-5.6601,-5.6601,-5.6601,-5.6597,-5.661,-5.66,-5.6593,-5.5749,-5.4398,-5.3518,-5.298,-5.2584,0.0,0.0,0.0,0.0,0.0,0.0,0.0,0.0,0.0,0.0,0.0,0.0,0.0,0.0,0.0,0.0,0.0,0.0,-1.7856,-1.92,-2.0628,-2.2148,-2.2917,-2.3809,-2.4858,-2.6199,-2.71,-2.7496,-2.8935,-2.9755,-2.9995,-3.0241,-3.0472,-3.0703,-3.0868,-3.0695,-3.0207,-2.9606,-2.899,-2.8385,-2.7823,-2.7639,-2.7552,-2.6074,-2.5402,-2.5108,-2.3791,-2.3446,-2.3629,-2.3833,-2.3501,-2.3053,-2.3259,-2.293,-2.2492,-2.2632,0.0,-2.296,-2.3806,-2.4664,-2.5519,-2.6466,-2.7296,-2.8102,0.0,0.0,-3.1697,-3.1788,-3.3816,-3.5611,-3.5822,-3.7774,-3.9743,-4.0902,-4.2407,-4.3769,-4.477,-4.6331,-4.7648,-4.8433,-4.866,-4.9075,-4.9896,-5.0053,-5.0423,-5.1205,-5.2064,-5.2591,-5.2689,-5.4172,-5.505,-5.5148,-5.5909,-5.6355,-5.6447,-5.6447,-5.6501,-5.6608,-5.6598,-5.6603,-5.6603,-5.6591,-5.6596,-5.6599,-5.6601,-5.6601,-5.66,-5.6599,-5.6594,-5.6602,-5.66,-5.6477,-5.6194,-5.5262,-5.3983,-5.2681,0.0,0.0,0.0,0.0,0.0,0.0,0.0,0.0,0.0,0.0,0.0,0.0,0.0,0.0,0.0,0.0,0.0,0.0,-1.8146,-1.9501,-2.098,-2.2637,-2.3453,-2.4509,-2.5862,-2.6547,-2.7227,-2.7918,-2.864,-2.9101,-2.9362,-2.9573,-2.9783,-2.9988,-3.0154,-3.0143,-3.0006,-2.9424,-2.9092,-2.8876,-2.8284,-2.7866,-2.7453,-2.6501,-2.586,-2.5298,-2.4162,-2.3899,0.0,0.0,-2.4281,-2.4162,-2.4372,-2.4301,-2.426,-2.4902,-2.5126,0.0,-2.6283,-2.7182,0.0,0.0,-2.9863,-3.0738,-3.1573,-3.3088,-3.4306,-3.4314,-3.5984,-3.7598,-3.8064,-3.9448,-4.0947,0.0,-4.3582,-4.4696,-4.5529,-4.7156,-4.8393,-4.8757,-4.9723,-5.05,-5.0811,-5.0852,-5.1009,-5.1362,-5.1733,-5.2532,-5.3914,-5.4676,-5.5377,-5.604,-5.6362,-5.655,-5.6543,-5.6536,-5.6548,-5.6542,-5.6548,-5.6536,-5.6563,-5.7063,-5.7605,-5.8103,-5.8104,-5.7832,-5.7363,-5.7361,-5.7066,-5.6594,-5.6605,-5.6598,-5.6495,-5.5541,-5.4769,-5.4,0.0,0.0,0.0,0.0,0.0,0.0,0.0,0.0,0.0,0.0,0.0,0.0,0.0,0.0,0.0,0.0,0.0,0.0,0.0,-1.9311,-2.0826,-2.2496,-2.337,-2.4562,-2.6197,-2.6574,-2.7205,-2.82,-2.8529,-2.8834,-2.9141,-2.9247,-2.9455,-2.969,-2.9788,-2.9843,-2.9816,-2.937,-2.9187,-2.913,-2.842,-2.7906,-2.7467,-2.6554,-2.5935,-2.5421,-2.4468,-2.4275,0.0,0.0,-2.4795,-2.493,-2.5133,-2.5433,-2.5866,-2.6602,-2.7364,-2.8104,-2.874,0.0,0.0,-3.1634,-3.2503,-3.3367,-3.423,-3.5541,-3.6576,-3.6576,-3.7751,-3.8971,-3.9578,-4.0574,-4.1824,-4.333,-4.4299,-4.5186,-4.6047,-4.7674,-4.8776,-4.8766,-5.0306,-5.1383,-5.1403,-5.1408,-5.1391,-5.1394,-5.1845,-5.2917,-5.4761,-5.5169,-5.5714,-5.655,-5.6531,-5.65,-5.65,-5.6508,-5.6618,-5.6852,-5.6852,-5.6976,-5.7244,-5.7868,-5.8533,-5.9174,-5.9175,-5.8826,-5.8242,-5.8008,-5.7538,-5.6931,-5.6689,-5.6606,-5.6525,-5.5845,-5.5423,-5.5023,0.0,0.0,0.0,0.0,0.0,0.0,0.0,0.0,0.0,0.0,0.0,0.0,0.0,0.0,0.0,0.0,0.0,0.0,0.0,-1.8223,-1.9794,-2.1478,-2.2324,-2.3571,-2.5297,-2.6185,-2.7131,-2.8202,-2.8991,-2.9574,-2.9957,-2.9888,-3.0045,-3.0368,-3.0368,-3.0134,-2.9705,-2.97,-2.9377,-2.8838,-2.805,-2.7823,-2.7816,-2.6293,-2.5794,-2.5767,-2.4829,0.0,-2.4811,-2.4948,-2.508,-2.5208,-2.5359,-2.6025,0.0,-2.6863,-2.8684,-3.0682,0.0,0.0,-3.3487,-3.4287,-3.5132,-3.5992,-3.6796,-3.7684,-3.8319,-3.8236,-3.8946,-3.9567,-3.9606,-4.1003,-4.246,-4.3354,-4.4232,-4.5105,-4.5981,-4.7596,-4.8699,-4.8705,-5.0229,-5.1339,0.0,-5.1405,-5.1391,-5.1391,-5.2969,-5.4179,-5.4767,-5.5859,-5.6478,-5.6504,-5.6504,-5.6504,-5.6504,-5.6501,-5.6911,-5.7769,-5.7769,-5.8198,-5.9024,-5.9053,-5.907,-5.9101,-5.9108,-5.9115,-5.9099,-5.824,-5.7871,-5.7771,-5.6931,-5.6597,-5.6592,-5.6564,-5.5983,-5.5182,0.0,0.0,0.0,0.0,0.0,0.0,0.0,0.0,0.0,0.0,0.0,0.0,0.0,0.0,0.0,0.0,-1.3457,-1.4892,0.0,-1.7523,-1.9004,-2.1711,-2.2132,-2.3115,-2.486,-2.5289,-2.571,-2.6209,-2.6606,-2.6935,-2.7221,-2.7339,-2.7437,-2.7543,-2.7737,-2.7713,-2.7581,-2.771,-2.7672,-2.7487,-2.7352,-2.7019,-2.6569,-2.614,-2.5333,-2.4415,0.0,0.0,-2.5018,-2.5157,-2.5255,-2.5452,-2.6178,-2.6617,-2.7218,-2.8961,-3.0526,-3.1785,-3.2305,0.0,-3.5065,-3.5327,-3.6455,-3.7564,-3.7838,-3.8568,-3.918,-3.917,-3.9825,-4.0407,-4.0407,-4.1348,-4.2426,-4.3294,-4.421,-4.5094,-4.5911,-4.7568,-4.8705,-4.8699,-5.0202,0.0,0.0,0.0,0.0,-5.2977,-5.3607,-5.4518,-5.5853,-5.6296,-5.6501,-5.6501,-5.6491,-5.6776,-5.7365,-5.7311,-5.7732,-5.8589,-5.8605,-5.9057,-5.99,-5.9937,-6.0288,-6.0827,-6.0838,-6.0514,-5.9974,-5.9684,-5.8905,-5.7871,-5.7577,-5.7106,-5.6597,-5.6592,-5.6408,-5.6044,0.0,0.0,0.0,0.0,0.0,0.0,0.0,0.0,0.0,0.0,0.0,0.0,0.0,0.0,0.0,0.0,0.0,-1.4241,0.0,0.0,-1.8302,-2.0484,-2.1164,-2.2146,-2.3604,-2.4092,-2.4539,-2.4989,-2.5477,-2.5811,-2.6021,-2.6157,-2.6284,-2.6348,-2.6528,-2.6653,-2.6715,-2.6851,-2.6953,-2.697,-2.6491,-2.6034,-2.5555,-2.5075,-2.4256,0.0,0.0,0.0,-2.482,-2.4887,-2.5158,-2.5646,-2.6595,-2.7538,-2.8671,-3.0648,-3.2072,-3.3165,-3.3948,-3.518,-3.6378,-3.6962,-3.7929,-3.8796,-3.9085,-3.9345,-3.9533,-3.9524,-3.9698,-3.9937,-4.0233,-4.1025,-4.1914,-4.2792,-4.3957,-4.4935,-4.5465,-4.7317,-4.8646,-4.8667,-5.0149,-5.1302,0.0,0.0,0.0,-5.4067,-5.4551,-5.5275,-5.6373,-5.6431,-5.6448,-5.6461,-5.6741,-5.7161,-5.7726,-5.7985,-5.8559,-5.9436,-5.9737,-6.0198,-6.0772,-6.0808,-6.1124,-6.1666,-6.1681,-6.1379,-6.0842,-6.0538,-5.9779,-5.8727,-5.8125,-5.7558,-5.7031,-5.6715,-5.6592,-5.6506,0.0,0.0,0.0,0.0,0.0,0.0,0.0,0.0,0.0,0.0,0.0,0.0,0.0,0.0,0.0,0.0,0.0,0.0,0.0,0.0,0.0,-1.7943,-1.9453,-2.0707,-2.1566,-2.2641,-2.359,-2.4444,-2.541,-2.5975,-2.6166,-2.6245,-2.6381,-2.655,-2.6561,-2.6683,-2.686,-2.6868,-2.6987,-2.7013,-2.5423,-2.4866,-2.4818,-2.3283,0.0,0.0,0.0,0.0,0.0,0.0,0.0,0.0,0.0,-2.8767,-3.1017,-3.1839,-3.3295,-3.4828,-3.5562,-3.6425,-3.751,-3.9104,-3.952,-3.9747,-4.0468,-3.9979,-3.9393,-3.9347,-3.8685,-3.8344,0.0,0.0,-4.1009,-4.1885,-4.3497,-4.4639,-4.4697,-4.6888,-4.8522,0.0,0.0,0.0,0.0,0.0,0.0,-5.4626,0.0,-5.6375,-5.6294,-5.6294,-5.6345,-5.6464,-5.7203,-5.7645,-5.7723,-5.8599,-5.9455,-6.0277,-6.1103,-6.1524,-6.1588,-6.1591,-6.1592,-6.1595,-6.167,-6.1705,-6.164,-6.0813,-6.0432,-6.0243,-5.8609,-5.7947,-5.7791,-5.6914,-5.6597,-5.6592,0.0,0.0,0.0,0.0,0.0,0.0,0.0,0.0,0.0,0.0,0.0,0.0,0.0,0.0,0.0,0.0,0.0,0.0,0.0,0.0,0.0,0.0,0.0,0.0,0.0,0.0,0.0,-2.2226,-2.2575,-2.2821,-2.2978,-2.3084,-2.3194,-2.33,-2.3401,-2.3505,-2.3603,-2.365,-2.3727,-2.3787,0.0,-2.3283,-2.328,0.0,0.0,0.0,0.0,0.0,0.0,0.0,0.0,0.0,0.0,-2.9638,-3.1846,-3.2651,-3.4081,-3.5587,-3.6383,-3.7671,-3.889,-3.9316,-3.9882,-4.0229,-3.9817,-3.9566,-3.9212,-3.8569,-3.826,-3.8164,0.0,0.0,0.0,-4.0926,-4.2563,0.0,-4.455,-4.6855,0.0,-4.8522,0.0,-5.1425,-5.2279,-5.299,0.0,0.0,-5.5779,-5.6319,-5.6294,-5.635,-5.6653,-5.7276,-5.749,-5.8209,-5.9513,-6.0394,-6.0958,-6.1172,-6.1392,-6.1512,-6.1524,-6.1588,-6.1591,-6.1592,-6.1615,-6.1651,-6.1685,-6.1464,-6.0989,-6.0295,-5.921,-5.8433,-5.7791,-5.6913,-5.6601,-5.6597,0.0,0.0,0.0,0.0,0.0,0.0,0.0,0.0,0.0,0.0,0.0,0.0,0.0,0.0,0.0,0.0,0.0,0.0,0.0,0.0,0.0,0.0,0.0,0.0,0.0,0.0,0.0,0.0,0.0,0.0,-2.1427,-2.1898,-2.2168,-2.2245,-2.2338,-2.2431,-2.2525,-2.2569,0.0,0.0,0.0,0.0,0.0,0.0,0.0,0.0,0.0,0.0,0.0,0.0,0.0,-2.8267,-2.8612,-3.0474,-3.2753,-3.3873,0.0,-3.6431,-3.7591,-3.8592,-3.9394,-3.9754,-3.9888,-3.9838,-3.941,-3.8744,-3.798,-3.7127,-3.6652,0.0,0.0,0.0,0.0,0.0,0.0,0.0,-4.3853,-4.5925,-4.7611,0.0,-4.9678,0.0,-5.2729,-5.331,-5.4125,0.0,-5.5967,-5.6265,-5.6265,-5.6685,-5.7124,-5.7591,-5.8311,-5.9354,-6.0715,-6.1201,-6.146,-6.146,-6.1453,-6.1452,-6.1456,-6.1534,-6.1559,-6.1553,0.0,-6.1627,-6.1657,-6.1682,-6.1403,-6.0883,-6.0001,-5.9151,-5.8315,-5.7478,-5.6933,-5.6599,0.0,0.0,0.0,0.0,0.0,0.0,0.0,0.0,0.0,0.0,0.0,0.0,0.0,0.0,0.0,0.0,0.0,0.0,0.0,0.0,0.0,0.0,0.0,0.0,0.0,0.0,0.0,0.0,0.0,0.0,0.0,0.0,0.0,0.0,0.0,0.0,0.0,0.0,0.0,0.0,0.0,0.0,0.0,0.0,0.0,0.0,0.0,0.0,0.0,0.0,-2.594,-2.834,-2.9123,-3.1114,-3.3447,-3.4891,-3.6087,-3.7248,-3.8654,-3.918,-3.9498,-4.007,-3.9668,-3.9062,-3.8892,-3.7659,-3.6303,-3.5493,0.0,-3.425,-3.5014,-3.5393,-3.6318,-3.8543,0.0,-4.1332,-4.2918,-4.4659,-4.6472,-4.8261,-4.9197,-5.0722,-5.3328,-5.3587,-5.4304,-5.6048,-5.6182,-5.6185,-5.6192,-5.708,-5.7677,-5.791,-5.9444,-6.0628,-6.1378,-6.1378,-6.1386,-6.1386,-6.1389,-6.1389,-6.1402,-6.1456,-6.1484,-6.1495,-6.1558,-6.1595,-6.1603,-6.166,-6.1696,-6.1604,-6.0749,-5.9864,-5.8994,-5.8199,-5.7343,-5.66,0.0,0.0,0.0,0.0,0.0,0.0,0.0,0.0,0.0,0.0,-0.8765,-0.8765,0.0,0.0,0.0,0.0,0.0,0.0,0.0,0.0,0.0,0.0,0.0,0.0,0.0,0.0,0.0,0.0,0.0,0.0,0.0,0.0,0.0,0.0,0.0,0.0,0.0,0.0,0.0,0.0,0.0,0.0,0.0,0.0,0.0,0.0,0.0,0.0,0.0,0.0,-2.5396,-2.8259,-2.9003,-3.0954,-3.3145,-3.4064,-3.5943,-3.7763,-3.8046,-3.9139,-4.0051,-3.9476,-3.9207,-3.8756,-3.7441,-3.6353,0.0,0.0,0.0,-3.316,-3.3327,-3.4533,0.0,-3.6176,0.0,0.0,0.0,0.0,-4.6445,0.0,0.0,0.0,0.0,0.0,0.0,0.0,0.0,-5.6137,-5.6206,-5.6989,-5.8095,-5.953,-6.0565,-6.1166,-6.1322,-6.1322,-6.1318,-6.131,-6.1318,-6.1354,-6.1396,-6.1408,-6.1445,-6.1495,-6.15,0.0,-6.1603,-6.1612,-6.1654,-6.1601,-6.0748,-5.9868,-5.9005,-5.8193,-5.7359,-5.6601,0.0,0.0,0.0,0.0,0.0,0.0,0.0,0.0,-0.8886,-0.8863,-0.8858,-0.8846,-0.8806,-0.884,0.0,0.0,0.0,0.0,0.0,0.0,0.0,0.0,0.0,0.0,0.0,0.0,0.0,0.0,0.0,0.0,0.0,0.0,0.0,0.0,0.0,0.0,0.0,0.0,0.0,0.0,0.0,0.0,0.0,0.0,0.0,0.0,0.0,0.0,0.0,0.0,-2.521,-2.8131,-2.8893,-3.0873,-3.3134,-3.4323,-3.6154,-3.7898,-3.832,-3.9,-3.9525,-3.915,-3.8385,-3.7444,-3.6251,0.0,0.0,0.0,-3.2564,-3.2275,-3.2275,0.0,0.0,0.0,0.0,0.0,0.0,0.0,0.0,0.0,0.0,0.0,0.0,0.0,0.0,0.0,0.0,-5.6275,-5.68,-5.8044,-5.9339,-6.0638,-6.1084,-6.1297,-6.1297,-6.1297,-6.1294,-6.1291,-6.1295,-6.1325,-6.1342,-6.1383,-6.1415,-6.1445,-6.1479,-6.1524,-6.1549,-6.1591,-6.1619,-6.1609,-6.1228,-6.0271,-5.9042,-5.8679,-5.7709,-5.66,0.0,0.0,0.0,0.0,0.0,0.0,0.0,-0.8953,-0.893,-0.893,-0.893,-0.8908,-0.8846,-0.8886,-0.8914,0.0,0.0,0.0,0.0,0.0,0.0,0.0,0.0,0.0,0.0,0.0,0.0,0.0,0.0,0.0,0.0,0.0,0.0,0.0,0.0,0.0,0.0,0.0,0.0,0.0,0.0,0.0,0.0,0.0,0.0,0.0,0.0,0.0,0.0,0.0,-2.4884,-2.7527,-2.8516,-3.0675,-3.313,-3.4518,-3.6101,-3.7534,-3.8184,-3.8499,-3.8613,-3.8477,-3.7321,-3.6009,-3.5216,-3.4127,0.0,0.0,-3.1141,-3.0891,-3.0891,0.0,0.0,0.0,0.0,0.0,0.0,0.0,0.0,0.0,0.0,0.0,0.0,0.0,0.0,0.0,0.0,0.0,-5.7611,-5.9135,-6.0373,-6.1234,-6.1253,-6.1253,-6.1253,-6.1253,-6.1253,-6.1289,-6.1275,-6.1279,-6.1302,-6.1349,-6.1383,-6.1402,-6.1451,-6.1479,-6.1495,-6.1553,-6.1584,-6.1611,-6.1667,-6.0617,-5.9095,-5.9105,-5.8039,-5.6599,0.0,0.0,0.0,0.0,0.0,0.0,0.0,-0.8992,-0.8992,-0.8992,-0.8992,-0.8992,-0.8981,-0.8981,-0.8987,0.0,0.0,0.0,0.0,0.0,0.0,0.0,0.0,0.0,0.0,0.0,0.0,0.0,0.0,0.0,0.0,0.0,0.0,0.0,0.0,0.0,0.0,0.0,0.0,0.0,0.0,0.0,0.0,0.0,0.0,0.0,0.0,0.0,0.0,0.0,0.0,-2.5816,-2.742,-3.0138,-3.2898,-3.3756,0.0,0.0,-3.6593,-3.7202,-3.764,-3.6912,-3.6023,-3.5111,-3.4381,0.0,0.0,-3.0546,-2.9313,-2.8261,-2.8261,-2.9486,-3.0864,0.0,0.0,-3.653,0.0,0.0,0.0,0.0,0.0,0.0,0.0,0.0,0.0,0.0,0.0,0.0,-5.8438,-5.9386,-6.0285,-6.1089,-6.1108,-6.1108,-6.1108,-6.1108,-6.1155,-6.121,-6.1219,-6.1242,-6.1302,-6.131,-6.1335,-6.1396,-6.1402,-6.1439,0.0,-6.1519,-6.1549,-6.1608,-6.1611,-6.0575,-5.909,-5.9093,-5.8032,-5.6594,0.0,0.0,0.0,0.0,0.0,0.0,0.0,-0.8991,-0.8997,-0.8997,-0.8997,-0.9013,-0.9056,-0.9051,-0.9056,0.0,0.0,0.0,0.0,0.0,0.0,0.0,0.0,0.0,0.0,0.0,0.0,-1.4809,-1.4911,0.0,0.0,0.0,0.0,0.0,0.0,0.0,0.0,0.0,0.0,0.0,0.0,0.0,0.0,0.0,0.0,0.0,0.0,0.0,0.0,0.0,0.0,0.0,-2.6036,-2.8167,0.0,0.0,-3.3906,-3.5593,-3.5668,-3.6287,-3.6715,-3.5919,-3.5084,-3.4006,-3.2215,0.0,-3.0042,-2.9091,-2.8352,-2.7895,-2.7895,-2.8832,-2.9896,-3.0787,0.0,0.0,0.0,0.0,0.0,0.0,0.0,0.0,0.0,0.0,0.0,0.0,0.0,0.0,-5.8433,-5.9388,-6.0267,-6.1079,-6.1099,-6.1099,-6.1099,-6.1099,-6.1108,-6.1146,-6.1173,-6.1245,-6.1302,-6.1287,-6.1332,-6.1401,-6.1409,-6.144,0.0,-6.1504,-6.1539,-6.1603,-6.1592,-6.0581,-5.9106,-5.9104,-5.8046,-5.6594,0.0,0.0,0.0,0.0,0.0,-0.7303,-0.8799,-0.9023,-0.9029,-0.9029,-0.9029,-0.9056,-0.9114,-0.9125,-0.913,-0.9128,0.0,0.0,0.0,0.0,0.0,0.0,0.0,0.0,0.0,0.0,0.0,-1.4905,-1.4964,-1.5033,0.0,0.0,0.0,0.0,0.0,0.0,0.0,0.0,0.0,0.0,0.0,0.0,0.0,0.0,0.0,0.0,0.0,0.0,0.0,0.0,0.0,0.0,0.0,0.0,0.0,0.0,-3.2419,-3.4031,-3.4353,-3.4829,-3.5151,-3.4617,-3.3865,-3.2747,0.0,0.0,-2.9171,-2.7808,-2.7313,-2.7121,-2.7121,-2.803,-2.903,-2.989,0.0,-3.4487,0.0,0.0,0.0,0.0,0.0,0.0,0.0,0.0,0.0,0.0,0.0,0.0,-5.7958,-5.8935,-5.9959,-6.1041,-6.108,-6.108,-6.1099,-6.1099,-6.1099,-6.1099,-6.1146,-6.121,-6.1261,-6.1283,-6.1322,-6.1359,-6.1382,-6.1441,0.0,-6.1487,-6.1524,-6.1563,-6.1595,-6.057,-5.9098,-5.9092,-5.8039,-5.6591,0.0,0.0,0.0,0.0,0.0,0.0,0.0,-0.9104,-0.9104,-0.9104,-0.9104,-0.912,-0.9196,-0.9201,-0.9204,-0.9206,0.0,0.0,0.0,0.0,0.0,0.0,0.0,0.0,0.0,0.0,0.0,-1.4904,-1.4968,-1.5033,-1.5095,-1.5177,0.0,0.0,0.0,0.0,0.0,0.0,0.0,0.0,0.0,0.0,0.0,0.0,0.0,0.0,0.0,0.0,0.0,0.0,0.0,0.0,0.0,0.0,0.0,0.0,-3.07,-3.1526,-3.2392,-3.2629,-3.2672,-3.2794,-3.2173,-3.1306,0.0,0.0,-2.7596,-2.6783,-2.5923,-2.5327,-2.5327,-2.6736,-2.8184,-2.8973,-3.1256,0.0,0.0,0.0,0.0,0.0,0.0,0.0,0.0,0.0,0.0,0.0,0.0,0.0,-5.7068,-5.7938,-5.9204,-6.0944,-6.1002,-6.1032,-6.1099,-6.1099,-6.1099,-6.1099,-6.1099,-6.1146,-6.121,-6.1281,-6.1302,-6.1302,-6.1359,-6.1401,0.0,-6.1472,-6.1501,-6.1519,-6.1567,-6.0582,-5.9102,-5.9098,-5.8046,-5.6603,0.0,0.0,0.0,0.0,0.0,0.0,0.0,-0.9163,-0.9163,-0.9163,-0.9163,-0.9183,-0.9199,-0.9204,-0.9234,-0.9337,0.0,0.0,0.0,0.0,0.0,0.0,0.0,0.0,0.0,0.0,-1.347,-1.4971,-1.5033,-1.5095,-1.5177,-1.5231,-1.5293,-1.5365,0.0,0.0,0.0,0.0,0.0,0.0,0.0,0.0,0.0,0.0,0.0,0.0,0.0,0.0,0.0,0.0,0.0,0.0,0.0,0.0,0.0,-2.6116,0.0,0.0,-3.071,-3.1389,-3.1716,-3.1164,-3.0841,-3.0152,-2.8155,0.0,-2.674,-2.5885,-2.55,-2.5308,-2.5308,-2.6717,-2.7992,-2.8242,-3.0871,0.0,0.0,0.0,0.0,0.0,0.0,0.0,0.0,0.0,0.0,0.0,0.0,0.0,-5.6986,-5.7296,-5.8254,-6.0064,-6.0701,-6.101,-6.1032,-6.1032,-6.1041,-6.1099,-6.1099,-6.1137,-6.121,-6.1281,-6.1302,-6.1302,-6.1378,-6.1401,-6.1421,-6.1472,-6.1501,-6.1514,-6.1568,-6.059,-5.9098,-5.9105,-5.8038,-5.6602,0.0,0.0,0.0,0.0,0.0,0.0,0.0,-0.9009,-0.9206,-0.9191,-0.9196,-0.9222,-0.9268,-0.9273,-0.9324,-0.9421,0.0,0.0,0.0,0.0,0.0,0.0,0.0,0.0,0.0,-1.2674,-1.3588,-1.4992,-1.5071,-1.5126,-1.5204,-1.5272,-1.5332,-1.5404,-1.5407,0.0,0.0,0.0,0.0,0.0,0.0,0.0,-1.5408,0.0,0.0,0.0,0.0,0.0,0.0,0.0,0.0,0.0,0.0,0.0,0.0,0.0,-2.5591,-2.7363,0.0,-2.9646,-2.9934,-2.9417,-2.9321,0.0,0.0,0.0,-2.6346,-2.5481,-2.5308,-2.5308,-2.5308,-2.6717,-2.7895,-2.7895,-3.0717,0.0,0.0,0.0,0.0,0.0,0.0,0.0,0.0,0.0,0.0,0.0,0.0,0.0,-5.6483,-5.683,-5.7516,-5.865,-5.9856,-6.064,-6.101,-6.0992,-6.1022,-6.1051,-6.1089,-6.1108,-6.1164,-6.1227,-6.1278,-6.1299,-6.1337,-6.1381,0.0,-6.1453,-6.1484,-6.1479,-6.1213,-6.0276,-5.9029,-5.8724,-5.7735,-5.6573,0.0,0.0,0.0,0.0,0.0,0.0,0.0,0.0,0.0,-0.9211,-0.9221,-0.9268,-0.9397,-0.9406,-0.9439,-0.9506,0.0,0.0,0.0,0.0,0.0,0.0,0.0,0.0,0.0,-1.3232,-1.4137,-1.5015,-1.5142,-1.5231,-1.5305,-1.5433,-1.5497,-1.5493,-1.5495,-1.5452,-1.5404,-1.541,-1.541,-1.5407,-1.5403,-1.5397,0.0,0.0,0.0,0.0,0.0,0.0,0.0,0.0,0.0,0.0,0.0,0.0,0.0,0.0,0.0,0.0,0.0,-2.7478,0.0,0.0,0.0,0.0,0.0,0.0,0.0,-2.5462,-2.5308,-2.5327,-2.5385,-2.6774,-2.7934,-2.8063,-3.0794,0.0,0.0,0.0,0.0,0.0,0.0,0.0,0.0,0.0,0.0,0.0,0.0,0.0,-5.5703,-5.6483,-5.6945,-5.7003,-5.8567,-5.9892,-6.089,-6.0972,-6.1002,-6.1002,-6.107,-6.1099,-6.1099,-6.1164,-6.1236,0.0,-6.1306,-6.1344,-6.14,-6.1344,-6.1356,-6.1328,-6.0519,-5.9689,-5.882,-5.8074,-5.7252,-5.6514,0.0,0.0,0.0,0.0,0.0,0.0,0.0,0.0,0.0,0.0,-0.9351,-0.9384,-0.9466,-0.9475,-0.951,0.0,0.0,0.0,0.0,0.0,0.0,0.0,0.0,0.0,0.0,-1.3299,-1.4202,-1.5088,-1.582,-1.6207,-1.6292,-1.6961,-1.6968,-1.6382,-1.6385,-1.6028,-1.539,-1.541,-1.5407,-1.5405,-1.5397,-1.5392,0.0,0.0,0.0,0.0,-1.6373,-1.6853,0.0,0.0,0.0,0.0,0.0,0.0,0.0,0.0,-2.1929,-2.2355,-2.3616,0.0,-2.685,-2.6812,-2.6834,-2.6668,0.0,0.0,0.0,0.0,0.0,0.0,0.0,-2.7178,-2.8313,-2.9596,-3.1545,0.0,0.0,0.0,0.0,0.0,0.0,0.0,0.0,0.0,0.0,0.0,0.0,-5.5703,-5.5703,-5.5876,-5.631,-5.6983,-5.7398,-5.8355,-5.9901,-6.064,-6.1,-6.1002,-6.107,-6.1099,-6.1099,-6.1164,-6.1236,-6.1306,-6.1306,-6.1344,-6.1361,-6.0741,-6.0481,-6.0433,-5.9629,-5.8797,-5.8059,-5.7859,-5.7252,-5.6514,0.0,0.0,0.0,0.0,0.0,0.0,0.0,0.0,0.0,0.0,0.0,0.0,0.0,0.0,0.0,0.0,0.0,0.0,0.0,0.0,0.0,0.0,0.0,0.0,-1.2428,-1.3728,-1.4845,-1.5741,-1.624,-1.6738,-1.7208,-1.7676,-1.7683,-1.7274,-1.6885,-1.6229,-1.5391,-1.5409,-1.5406,-1.5404,-1.5396,0.0,0.0,0.0,0.0,0.0,-1.5856,-1.6264,0.0,-1.7064,-1.7783,-1.8563,0.0,0.0,0.0,0.0,-2.1227,-2.1654,-2.2113,-2.3779,-2.5407,-2.5398,-2.5702,-2.5885,-2.5404,0.0,0.0,0.0,0.0,0.0,0.0,0.0,0.0,0.0,-3.2481,0.0,0.0,0.0,0.0,0.0,0.0,0.0,0.0,0.0,0.0,0.0,0.0,-5.5703,-5.5703,-5.5703,-5.5915,-5.6387,-5.6791,-5.7649,-5.8998,-5.9901,-6.037,-6.0412,-6.0848,-6.108,-6.1099,-6.1146,-6.1182,-6.1234,-6.0868,-6.0732,-6.073,-5.9898,-5.9574,-5.9519,-5.8679,-5.8116,-5.7716,-5.7333,-5.6898,-5.6503,0.0,0.0,0.0,0.0,0.0,0.0,0.0,0.0,0.0,0.0,0.0,0.0,0.0,0.0,0.0,0.0,0.0,0.0,0.0,0.0,0.0,0.0,0.0,-1.2444,-1.2509,-1.4337,-1.5686,-1.6492,-1.6767,-1.7316,-1.8101,-1.8229,-1.8181,-1.7951,-1.7087,-1.6211,-1.5391,-1.5408,-1.5406,-1.5404,-1.5398,0.0,0.0,0.0,0.0,0.0,0.0,0.0,0.0,-1.6339,-1.6907,-1.7752,-1.8557,0.0,0.0,0.0,0.0,0.0,-2.1397,-2.2583,-2.3885,-2.4067,-2.4697,-2.5308,-2.5308,0.0,0.0,0.0,0.0,0.0,0.0,0.0,0.0,0.0,0.0,0.0,0.0,0.0,0.0,0.0,0.0,0.0,0.0,0.0,0.0,0.0,0.0,-5.5703,-5.5703,-5.5703,-5.5703,-5.5703,-5.6426,-5.7146,-5.7896,-5.8894,-5.943,-5.9512,-6.0268,-6.0645,-6.0702,-6.0712,-6.0759,-6.0784,0.0,0.0,-5.9828,-5.8971,-5.8655,-5.8612,-5.7742,-5.7449,-5.7423,-5.6741,-5.6501,-5.6511,0.0,0.0,0.0,0.0,0.0,0.0,0.0,0.0,0.0,0.0,0.0,0.0,0.0,0.0,0.0,0.0,0.0,0.0,0.0,0.0,0.0,0.0,-1.1989,-1.2522,-1.2574,-1.4954,-1.6298,-1.6496,-1.797,-1.8789,-1.9029,-1.9753,-1.9347,-1.7963,-1.7089,-1.6211,-1.5408,-1.5406,-1.5404,-1.5402,-1.5397,0.0,0.0,0.0,0.0,0.0,0.0,0.0,0.0,-1.5486,-1.6066,-1.6917,-1.7733,0.0,0.0,0.0,0.0,0.0,-2.051,-2.1756,-2.3225,-2.3936,-2.4707,-2.5308,-2.5308,0.0,0.0,0.0,0.0,0.0,0.0,0.0,0.0,0.0,0.0,0.0,0.0,0.0,0.0,0.0,0.0,0.0,0.0,0.0,0.0,0.0,0.0,-5.5703,-5.5703,-5.5703,-5.5703,-5.5703,-5.5818,-5.5953,-5.6088,-5.7692,-5.8494,-5.8524,-5.8761,-5.8887,-5.8896,-5.8953,-5.9017,-5.9088,0.0,-5.8936,-5.8935,-5.8123,-5.7794,-5.7727,-5.69,-5.6582,-5.6582,-5.6523,-5.6501,-5.6511,0.0,0.0,0.0,0.0,0.0,0.0,0.0,0.0,0.0,0.0,0.0,0.0,0.0,0.0,0.0,0.0,0.0,0.0,0.0,0.0,0.0,-1.1316,-1.2168,-1.2823,-1.3284,-1.5367,-1.6726,-1.7266,-1.8537,-1.9404,-1.9906,-2.0343,-1.9892,-1.8651,-1.7793,-1.6913,-1.607,-1.5601,-1.5404,-1.5402,0.0,0.0,0.0,0.0,0.0,0.0,0.0,0.0,0.0,0.0,-1.5563,-1.6032,-1.6881,0.0,0.0,0.0,0.0,0.0,-2.034,-2.1593,-2.2991,-2.3365,-2.4405,-2.5461,-2.5909,-2.6309,0.0,0.0,0.0,0.0,0.0,0.0,0.0,0.0,0.0,0.0,0.0,0.0,0.0,0.0,0.0,0.0,0.0,0.0,0.0,0.0,0.0,0.0,-5.5684,-5.5703,-5.5703,-5.5703,-5.5703,-5.5703,-5.5703,-5.6485,-5.7153,-5.7666,-5.8181,-5.8462,-5.85,-5.8566,-5.8621,-5.8628,0.0,-5.8029,-5.7974,-5.7204,-5.6893,-5.6866,-5.6531,-5.6407,-5.6417,-5.6484,-5.652,-5.6563,0.0,0.0,0.0,0.0,0.0,0.0,0.0,0.0,0.0,0.0,0.0,0.0,0.0,0.0,0.0,0.0,0.0,0.0,0.0,0.0,-1.0594,-1.165,-1.2359,-1.3092,-1.3904,-1.5831,-1.7186,-1.7909,-1.8979,-1.9859,-2.051,-2.0576,-2.0135,-1.9258,-1.8398,-1.7518,-1.6636,-1.5776,-1.5403,-1.5402,0.0,0.0,0.0,0.0,0.0,0.0,0.0,0.0,0.0,0.0,0.0,0.0,0.0,0.0,0.0,-1.8841,-1.9725,-2.044,-2.0653,-2.1787,-2.2959,-2.3153,-2.4462,-2.5864,-2.6477,-2.6935,0.0,0.0,0.0,0.0,0.0,0.0,0.0,0.0,0.0,0.0,0.0,0.0,0.0,0.0,0.0,0.0,0.0,0.0,0.0,0.0,0.0,0.0,-5.5395,-5.5588,-5.5703,-5.5703,-5.5703,-5.5703,-5.5703,-5.5703,-5.6062,-5.6778,-5.7465,-5.7824,-5.7902,-5.7968,-5.7995,-5.7955,-5.7353,-5.7095,-5.7071,-5.6504,-5.6285,-5.6315,-5.6375,-5.6417,-5.642,-5.6487,-5.6533,-5.6602,0.0,0.0,0.0,0.0,0.0,0.0,0.0,0.0,0.0,0.0,0.0,0.0,0.0,0.0,0.0,0.0,0.0,0.0,0.0,0.0,-1.091,-1.2541,-1.2731,-1.3165,-1.3973,-1.6482,-1.7825,-1.7904,-1.9584,-2.0465,-2.0592,-2.0604,-2.0137,-1.9258,-1.8397,-1.7515,-1.6636,-1.5774,-1.5402,-1.5402,-1.5402,0.0,0.0,0.0,0.0,0.0,0.0,0.0,0.0,0.0,0.0,0.0,0.0,0.0,-1.7962,-1.885,-1.9712,-2.0576,-2.1395,-2.2246,-2.3093,-2.3906,-2.5363,-2.6626,-2.6679,-2.7894,0.0,-3.0132,0.0,0.0,0.0,0.0,0.0,0.0,0.0,0.0,0.0,0.0,0.0,0.0,0.0,0.0,0.0,0.0,0.0,0.0,0.0,-5.453,-5.4587,-5.528,-5.5703,-5.5703,-5.5703,-5.5703,-5.5703,-5.5703,-5.5733,-5.5791,-5.5931,-5.602,-5.6097,-5.6154,-5.62,-5.6186,-5.6198,-5.6219,-5.6276,-5.6223,-5.6246,-5.6304,-5.6364,-5.645,-5.6498,-5.6501,-5.6533,-5.6602,0.0,0.0,0.0,0.0,0.0,0.0,0.0,0.0,0.0,0.0,0.0,0.0,0.0,0.0,0.0,0.0,0.0,0.0,0.0,0.0,-1.0714,-1.1906,-1.2495,-1.3206,-1.4036,-1.6571,-1.7923,-1.7953,-1.9704,-2.0576,-2.0604,-2.0605,-2.0429,-2.0056,-1.8629,-1.7826,-1.7414,-1.6008,-1.5402,-1.5402,-1.5402,-1.5401,0.0,0.0,0.0,0.0,0.0,0.0,0.0,0.0,-1.538,-1.5405,-1.5705,-1.6739,-1.7927,-1.8219,-1.9295,-2.0591,-2.1456,-2.2284,-2.3232,-2.466,-2.6272,0.0,0.0,-2.8806,-3.0269,-3.1121,-3.2838,0.0,0.0,0.0,0.0,0.0,0.0,0.0,0.0,0.0,0.0,0.0,0.0,0.0,0.0,0.0,0.0,0.0,0.0,-5.3356,-5.4434,-5.478,-5.5184,-5.5684,-5.5703,-5.5703,-5.5703,-5.5703,-5.5703,-5.5703,-5.5766,-5.5836,-5.5895,-5.5971,-5.5998,-5.5993,-5.6073,-5.6141,-5.6199,-5.6204,-5.6239,-5.6298,-5.6364,-5.6441,-5.6507,-5.6498,-5.652,-5.6545,0.0,0.0,0.0,0.0,0.0,0.0,0.0,0.0,0.0,0.0,0.0,0.0,0.0,0.0,0.0,0.0,0.0,0.0,0.0,-1.0201,-1.0589,-1.1451,-1.2329,-1.3215,-1.4087,-1.6358,-1.7686,-1.7992,-1.9741,-2.0605,-2.0605,-2.0604,-2.0602,-2.0521,-1.8783,-1.8001,-1.788,-1.6144,-1.5402,-1.5402,-1.5402,-1.5402,0.0,0.0,0.0,0.0,0.0,0.0,0.0,0.0,-1.5408,-1.5394,-1.5345,-1.6518,-1.7883,-1.7844,-1.9057,-2.0659,-2.1775,-2.2481,-2.3383,-2.5372,0.0,0.0,-2.8699,-2.9893,-3.1317,-3.2736,-3.5048,0.0,0.0,0.0,0.0,0.0,0.0,0.0,0.0,0.0,0.0,0.0,0.0,0.0,0.0,0.0,0.0,0.0,-5.175,-5.2423,-5.3626,-5.4203,-5.4741,-5.5299,-5.5568,-5.5703,-5.5703,-5.5703,-5.5703,-5.5703,-5.5745,-5.5816,-5.5895,-5.5953,-5.5989,-5.5993,-5.6073,-5.6141,-5.6199,-5.6204,-5.6252,-5.6348,-5.6375,-5.6437,-5.6496,-5.6494,-5.6494,-5.6514,0.0,0.0,0.0,0.0,0.0,0.0,0.0,0.0,0.0,0.0,0.0,0.0,0.0,0.0,0.0,0.0,0.0,0.0,-1.0194,-1.0208,-1.0594,-1.1449,-1.233,-1.3193,-1.4079,-1.5798,-1.7126,-1.8003,-1.9746,-2.0605,-2.0604,-2.0601,-2.0599,-2.0521,-1.878,-1.7997,-1.788,-1.6144,-1.5402,-1.5402,-1.5402,-1.5402,-1.5401,0.0,0.0,0.0,0.0,0.0,0.0,0.0,-1.5392,-1.5396,-1.5396,-1.6546,-1.7885,-1.7905,-1.907,-2.0758,-2.2443,-2.2898,-2.3499,0.0,0.0,0.0,-3.0211,-3.1236,-3.2565,-3.5182,0.0,-3.9501,0.0,0.0,0.0,0.0,0.0,0.0,0.0,0.0,0.0,0.0,0.0,0.0,0.0,0.0,0.0,0.0,-5.1433,-5.1885,-5.1904,-5.3549,-5.4472,-5.4491,-5.5261,-5.5684,-5.5684,-5.5703,-5.5703,-5.5703,-5.5703,-5.5766,-5.5895,-5.5895,-5.5933,-5.5993,-5.6073,-5.6141,-5.6199,-5.6204,-5.6285,-5.6411,-5.6411,-5.6437,-5.6496,-5.6494,-5.6494,-5.6514,0.0,0.0,0.0,0.0,0.0,0.0,0.0,0.0,0.0,0.0,0.0,0.0,0.0,0.0,0.0,0.0,0.0,0.0,0.0,-1.0248,-1.0396,-1.0637,-1.1499,-1.2342,-1.3164,-1.5487,-1.7421,-1.8906,-2.0055,-2.0578,-2.0535,-2.0529,-2.0526,-2.0468,-1.8751,-1.8009,-1.7892,-1.6138,-1.5397,-1.5397,-1.5401,-1.5402,-1.5402,0.0,0.0,0.0,0.0,0.0,0.0,0.0,0.0,0.0,-1.5399,0.0,-1.7107,-1.7715,-1.8698,-2.0047,-2.2294,-2.2904,0.0,0.0,0.0,0.0,0.0,-3.2546,0.0,0.0,0.0,0.0,0.0,0.0,0.0,0.0,0.0,0.0,0.0,0.0,0.0,0.0,0.0,0.0,0.0,0.0,0.0,0.0,-5.0914,-5.1298,-5.1865,-5.2385,-5.2953,-5.3568,-5.4414,-5.4857,-5.4857,-5.5415,-5.5703,-5.5703,-5.5745,-5.5816,-5.5895,-5.5895,-5.5933,-5.5993,-5.6073,-5.6141,-5.6206,-5.6251,-5.6323,-5.6411,-5.6411,-5.6446,-5.65,-5.6491,-5.6504,-5.652,0.0,0.0,0.0,0.0,0.0,0.0,0.0,0.0,0.0,0.0,0.0,0.0,0.0,0.0,0.0,0.0,0.0,0.0,0.0,0.0,-1.0307,-1.0292,-1.1133,-1.2148,-1.3293,-1.5533,-1.7211,-1.8268,-1.9498,-2.0062,-2.0036,-2.0344,-2.0498,-2.0439,-1.8745,-1.8005,-1.7888,-1.6135,-1.5394,-1.5395,-1.54,-1.5402,-1.5402,0.0,0.0,0.0,0.0,0.0,0.0,0.0,0.0,0.0,-1.5407,0.0,-1.6769,-1.7646,-1.8513,-1.975,-2.2255,0.0,0.0,0.0,0.0,0.0,0.0,0.0,0.0,0.0,0.0,0.0,0.0,0.0,0.0,0.0,0.0,0.0,0.0,0.0,0.0,0.0,0.0,0.0,0.0,0.0,0.0,-5.0712,-5.0712,-5.0914,-5.1395,-5.1731,-5.2135,-5.2673,-5.353,-5.3972,-5.3972,-5.4799,-5.5222,-5.5222,-5.5612,-5.5836,-5.5895,-5.5943,-5.5951,-5.6012,-5.6098,-5.6172,-5.6231,-5.6278,-5.6335,-5.6411,-5.6411,-5.6442,-5.6492,-5.651,-5.6501,-5.6511,0.0,0.0,0.0,0.0,0.0,0.0,0.0,0.0,0.0,0.0,0.0,0.0,0.0,0.0,0.0,0.0,0.0,0.0,0.0,0.0,-1.0292,-1.0292,-1.1131,-1.2298,-1.3829,-1.5574,-1.6461,-1.6452,-1.8274,-1.9177,-1.919,-2.0008,-2.0377,-2.0301,-1.8704,-1.7983,-1.7887,-1.6134,-1.5393,-1.5394,-1.54,-1.5402,-1.5402,-1.5402,0.0,0.0,0.0,0.0,0.0,0.0,0.0,0.0,-1.5396,-1.5893,-1.6659,-1.7523,-1.8406,-1.9639,-2.2183,0.0,0.0,0.0,0.0,0.0,0.0,0.0,0.0,0.0,0.0,0.0,0.0,0.0,0.0,0.0,0.0,0.0,0.0,0.0,0.0,0.0,0.0,0.0,0.0,0.0,0.0,-5.0712,-5.0712,-5.0712,-5.0712,-5.1395,-5.1788,-5.1788,-5.2626,-5.3087,-5.3087,-5.3953,-5.4414,-5.4511,-5.5304,-5.5759,-5.5895,-5.5971,-5.6007,-5.6029,-5.6149,-5.6243,-5.6291,-5.6298,-5.6335,-5.6411,-5.6391,-5.6446,-5.6496,-5.6491,-5.6504,-5.6514,0.0,0.0,0.0,0.0,0.0,0.0,0.0,0.0,0.0,0.0,0.0,0.0,0.0,0.0,0.0,0.0,0.0,0.0,0.0,0.0,-1.0292,-1.0307,-1.1074,-1.1687,-1.2054,-1.3775,-1.4665,-1.4662,-1.7044,-1.8199,-1.8228,-1.908,-1.9473,-1.9422,-1.839,-1.7944,-1.789,-1.6144,-1.5408,-1.5391,-1.5395,-1.5399,-1.5402,-1.5402,-1.5401,0.0,0.0,0.0,0.0,0.0,0.0,0.0,-1.5396,-1.5522,-1.5822,-1.6633,-1.7501,-1.8736,0.0,-2.2466,0.0,0.0,0.0,0.0,0.0,0.0,0.0,0.0,0.0,0.0,0.0,0.0,0.0,0.0,0.0,0.0,0.0,0.0,0.0,0.0,0.0,0.0,0.0,0.0,-5.0712,-5.0712,-5.0712,-5.0712,-5.0712,-5.0856,-5.0952,-5.0952,-5.176,-5.2173,-5.2173,-5.3049,-5.3818,-5.4491,-5.4688,-5.5181,-5.5895,-5.5971,-5.6061,-5.6157,-5.6191,-5.6243,-5.6298,-5.6303,-5.6339,-5.6391,-5.6393,-5.6431,-5.6492,-5.6494,-5.6491,-5.6509,0.0,0.0,0.0,0.0,0.0,0.0,0.0,0.0,0.0,0.0,0.0,0.0,0.0,0.0,0.0,0.0,0.0,0.0,0.0,0.0,0.0,-1.0254,-1.1049,-1.15,-1.15,-1.2772,-1.3623,-1.4051,-1.5371,-1.6451,0.0,0.0,-1.9202,-1.9153,-1.8282,-1.7915,-1.7841,-1.6139,-1.5406,-1.5409,-1.5393,-1.5398,-1.5402,-1.5402,-1.5402,-1.5401,-1.5396,0.0,0.0,0.0,0.0,0.0,0.0,0.0,-1.5559,-1.6366,-1.7214,-1.8371,0.0,0.0,0.0,0.0,0.0,0.0,0.0,0.0,0.0,0.0,0.0,0.0,0.0,0.0,0.0,0.0,0.0,0.0,0.0,0.0,0.0,0.0,0.0,0.0,0.0,0.0,-5.0067,-5.0067,-5.0462,-5.0712,-5.0712,-5.0712,-5.0712,-5.0712,-5.1106,-5.1337,-5.1337,-5.2164,-5.2818,-5.326,-5.3706,-5.442,-5.5344,-5.5796,-5.6076,-5.6199,-5.6199,-5.6243,-5.6298,-5.629,-5.6345,-5.6391,-5.6403,-5.644,-5.6496,-5.6494,-5.6494,-5.6511,0.0,0.0,0.0,0.0,0.0,0.0,0.0,0.0,0.0,0.0,0.0,0.0,0.0,0.0,0.0,0.0,0.0,0.0,0.0,0.0,0.0,0.0,-1.0884,-1.1276,-1.1276,-1.2059,-1.2906,-1.3783,-1.3938,0.0,0.0,0.0,0.0,-1.8947,-1.8061,-1.7756,-1.7798,-1.6117,-1.5404,-1.5409,-1.5392,-1.5398,-1.5402,-1.5402,-1.5402,-1.5401,-1.5398,-1.5393,-1.5409,-1.5406,0.0,0.0,0.0,0.0,-1.553,-1.6198,-1.7004,-1.8065,0.0,0.0,0.0,0.0,0.0,0.0,0.0,0.0,0.0,0.0,0.0,0.0,0.0,0.0,0.0,0.0,0.0,0.0,0.0,0.0,0.0,0.0,0.0,0.0,0.0,0.0,-4.9183,-4.9183,-4.9971,-5.0481,-5.0481,-5.0616,-5.0712,-5.0712,-5.0712,-5.0712,-5.0712,-5.1356,-5.175,-5.1904,-5.2839,-5.3793,-5.4705,-5.5445,-5.5946,-5.6199,-5.6199,-5.6243,-5.6298,-5.6315,-5.6345,-5.6391,-5.6407,-5.644,-5.6496,-5.6494,-5.6494,-5.6511,0.0,0.0,0.0,0.0,0.0,0.0,0.0,0.0,0.0,0.0,0.0,0.0,0.0,0.0,0.0,0.0,0.0,0.0,-1.0307,0.0,0.0,-1.0198,-1.0307,-1.037,-1.037,-1.1169,-1.1993,-1.2862,0.0,0.0,0.0,0.0,0.0,-1.8038,0.0,-1.72,-1.7798,-1.6105,-1.5396,-1.5409,-1.5409,-1.5395,-1.5402,-1.5402,-1.5402,-1.5402,-1.5401,-1.5397,-1.5409,-1.5409,-1.5401,0.0,0.0,0.0,-1.5418,-1.5537,-1.6135,-1.7144,0.0,0.0,0.0,0.0,0.0,0.0,0.0,0.0,0.0,0.0,0.0,0.0,0.0,0.0,0.0,0.0,0.0,0.0,0.0,0.0,0.0,0.0,0.0,0.0,0.0,0.0,-4.8279,-4.8279,-4.9086,-4.9567,-4.9567,-5.0289,-5.0712,-5.0712,-5.0712,-5.0712,-5.0712,-5.0808,-5.1202,-5.1904,-5.2839,-5.3763,-5.4612,-5.4856,-5.5404,-5.6199,-5.6199,-5.6243,-5.6298,-5.6358,-5.6386,-5.6416,-5.6465,-5.6496,-5.6496,-5.6494,-5.6494,-5.6509,0.0,0.0,0.0,0.0,0.0,0.0,0.0,0.0,0.0,0.0,0.0,0.0,0.0,0.0,0.0,-1.031,-1.0293,-1.0286,-1.0245,-1.0219,-1.0193,-1.0209,-1.0164,-1.0146,-1.014,-1.0494,-1.109,-1.1966,0.0,0.0,0.0,-1.5467,-1.6601,0.0,0.0,0.0,0.0,-1.6627,-1.584,-1.5406,-1.5409,-1.5393,-1.5398,-1.5401,-1.5402,-1.5402,-1.5402,-1.5398,-1.5409,-1.5409,-1.5401,-1.5409,-1.5408,0.0,0.0,0.0,-1.599,0.0,-1.9338,0.0,0.0,0.0,0.0,0.0,0.0,0.0,0.0,0.0,0.0,0.0,0.0,0.0,0.0,0.0,0.0,0.0,0.0,0.0,0.0,0.0,0.0,0.0,0.0,0.0,-4.7432,-4.7432,-4.8202,-4.8875,-4.9375,-4.976,-5.0212,-5.0693,-5.0712,-5.0712,-5.0712,-5.0712,-5.0875,-5.1241,-5.2183,-5.2827,-5.3213,-5.3812,-5.4843,-5.6199,-5.6199,-5.6243,-5.6317,-5.6364,-5.6411,-5.6416,-5.647,-5.6496,-5.6496,-5.6494,-5.6494,-5.6509,0.0,0.0,0.0,0.0,0.0,0.0,0.0,0.0,0.0,0.0,0.0,0.0,0.0,0.0,0.0,0.0,-1.031,-1.0274,-1.0193,-1.0191,-1.0188,-1.0177,-1.0133,-1.0095,-1.0061,-1.0072,-1.0497,0.0,0.0,0.0,-1.3988,-1.4871,-1.6109,0.0,-1.7569,-1.7684,0.0,0.0,0.0,-1.6066,-1.6069,-1.6053,-1.6058,-1.6062,-1.6064,-1.6066,-1.6064,-1.606,-1.6034,-1.5817,-1.5731,-1.5683,-1.5469,-1.5408,0.0,0.0,0.0,0.0,0.0,0.0,0.0,0.0,0.0,0.0,0.0,0.0,0.0,0.0,0.0,0.0,0.0,0.0,0.0,0.0,0.0,0.0,0.0,0.0,0.0,0.0,0.0,0.0,0.0,0.0,-4.6567,-4.6567,-4.7336,-4.8086,-4.8721,-4.8952,-4.9471,-5.0346,-5.0366,-5.0481,-5.0712,-5.0712,-5.0712,-5.0712,-5.1432,-5.1882,-5.2113,-5.2846,-5.4049,-5.5544,-5.5772,-5.6029,-5.6298,-5.6358,-5.6381,-5.6391,-5.6461,-5.6472,-5.6508,-5.6507,-5.6508,-5.6503,0.0,0.0,0.0,0.0,0.0,0.0,0.0,0.0,0.0,0.0,0.0,0.0,-1.0292,-1.0306,-1.0292,-1.0292,-1.0306,-1.0268,-1.0197,-1.0206,-1.0175,-1.0101,-1.0095,0.0,-1.0018,-1.0018,-1.0424,0.0,0.0,0.0,-1.3917,-1.4797,-1.5726,-1.6667,-1.6663,-1.7134,-1.7897,0.0,0.0,0.0,-1.7857,-1.7864,-1.7853,-1.7854,-1.7857,-1.7861,0.0,-1.7851,-1.7731,-1.6906,-1.6624,-1.6481,-1.5664,-1.5391,-1.5409,0.0,0.0,0.0,0.0,0.0,0.0,0.0,0.0,0.0,0.0,0.0,0.0,0.0,0.0,0.0,0.0,0.0,0.0,0.0,0.0,0.0,0.0,0.0,0.0,0.0,0.0,0.0,0.0,0.0,-4.5671,-4.5671,-4.6471,-4.6981,-4.7019,-4.7759,-4.8567,-4.9433,-4.9471,-4.9856,-5.0693,-5.0712,-5.0712,-5.0693,-5.0815,-5.1303,-5.2094,-5.2227,-5.2794,-5.3789,-5.4621,-5.5474,-5.6298,-5.629,-5.6345,-5.6391,-5.6403,-5.6446,-5.6492,-5.6508,-5.6507,-5.6508,0.0,0.0,0.0,0.0,0.0,0.0,0.0,0.0,0.0,0.0,0.0,0.0,0.0,-1.0309,-1.0293,-1.0308,-1.0265,-1.0228,-1.0207,-1.0161,-1.0131,-1.0093,-1.0101,-1.0066,-1.0001,-1.0001,-1.0156,0.0,0.0,-1.2219,-1.3092,-1.3994,-1.4905,-1.5799,-1.6342,-1.707,-1.7897,-1.7897,0.0,0.0,0.0,0.0,0.0,0.0,0.0,0.0,0.0,0.0,0.0,-1.7644,-1.7521,-1.7377,-1.65,-1.6227,-1.611,-1.5564,-1.6026,0.0,0.0,0.0,0.0,0.0,0.0,0.0,0.0,0.0,0.0,0.0,0.0,0.0,0.0,0.0,0.0,0.0,0.0,0.0,0.0,0.0,0.0,0.0,0.0,0.0,0.0,0.0,0.0,-4.5556,-4.5893,-4.6317,-4.6865,-4.7173,-4.7721,-4.8548,-4.8567,-4.8971,-4.9856,-5.0423,-5.0712,-5.0693,-5.0776,-5.0956,-5.1264,-5.133,-5.1877,-5.2782,-5.3102,-5.4063,-5.5391,-5.5448,-5.5833,-5.6391,-5.6403,-5.6446,-5.6507,-5.6508,-5.65,-5.6507,0.0,0.0,0.0,0.0,0.0,0.0,0.0,0.0,0.0,-1.0186,0.0,0.0,0.0,0.0,-1.0291,-1.0279,-1.0223,-1.0199,-1.021,-1.014,-1.0087,-1.007,-1.0061,-1.0044,-0.9997,-0.9997,-1.0,0.0,0.0,0.0,0.0,-1.3406,-1.428,-1.4902,-1.5773,-1.6815,0.0,0.0,0.0,-1.8841,0.0,0.0,-1.8871,0.0,0.0,0.0,0.0,0.0,0.0,0.0,-1.8845,-1.8644,0.0,-1.6948,-1.6539,-1.5664,-1.5817,-1.6495,-1.7603,0.0,0.0,0.0,0.0,0.0,0.0,0.0,0.0,0.0,0.0,0.0,0.0,0.0,0.0,0.0,0.0,0.0,0.0,0.0,0.0,0.0,0.0,0.0,0.0,0.0,0.0,-4.5133,-4.5441,0.0,-4.6432,-4.6471,-4.6836,-4.7682,-4.7971,-4.8529,-4.9394,-4.9971,-5.0423,-5.0693,-5.0758,-5.0784,-5.0801,-5.0869,-5.1235,-5.1823,-5.1874,-5.2886,-5.4498,-5.4556,-5.4933,-5.5555,-5.5843,-5.6008,-5.6098,-5.6383,-5.6508,-5.6496,0.0,0.0,0.0,0.0,0.0,0.0,0.0,0.0,-1.0205,-1.0264,0.0,0.0,0.0,0.0,0.0,-1.0275,-1.0247,-1.0238,-1.0247,-1.0144,-1.0065,-0.9997,-1.0005,-1.0001,-1.0006,-1.0003,-0.9993,0.0,0.0,0.0,0.0,0.0,-1.3887,-1.4031,-1.488,-1.6235,-1.7925,0.0,-1.9664,-2.0461,0.0,-2.0521,-2.0623,0.0,0.0,0.0,-2.2791,-2.3101,0.0,0.0,0.0,0.0,0.0,0.0,-1.6578,-1.5722,-1.5488,-1.5838,0.0,0.0,0.0,0.0,0.0,0.0,0.0,0.0,0.0,0.0,0.0,0.0,0.0,0.0,0.0,0.0,0.0,0.0,0.0,0.0,0.0,0.0,0.0,0.0,0.0,0.0,-4.43,-4.4267,-4.5056,-4.5537,-4.5556,-4.5594,-4.599,-4.6827,-4.7644,-4.8471,-4.9317,-4.9375,-4.9817,-5.0654,-5.0692,-5.0729,-5.0801,-5.0863,-5.0905,-5.0906,-5.1046,-5.2071,-5.3624,-5.3657,-5.373,-5.3876,-5.4732,-5.5093,-5.5251,-5.6113,-5.6437,-5.6453,0.0,0.0,0.0,0.0,0.0,0.0,-1.0967,-1.1534,-1.2007,0.0,0.0,0.0,-1.2437,-1.2243,-1.2078,-1.2012,-1.1423,-1.1063,-1.1062,-1.0468,-1.007,-1.0001,-1.0,-1.0001,-1.0006,-1.0003,-1.0006,-0.9993,0.0,0.0,0.0,0.0,0.0,0.0,-1.4256,-1.5338,-1.7018,-1.7881,0.0,0.0,-2.0247,-2.089,0.0,0.0,0.0,0.0,0.0,-2.3093,-2.3035,0.0,-2.2388,-2.2077,0.0,0.0,0.0,-1.7357,-1.7279,-1.7513,-1.8566,0.0,0.0,0.0,0.0,0.0,0.0,0.0,0.0,0.0,0.0,0.0,0.0,0.0,0.0,0.0,0.0,0.0,0.0,0.0,0.0,0.0,0.0,0.0,0.0,0.0,-4.283,0.0,-4.3662,-4.4047,-4.4624,-4.5267,-4.571,-4.5951,-4.6797,-4.7355,-4.7586,-4.8798,-4.951,-4.976,-5.0404,-5.071,-5.0729,-5.0846,-5.0908,-5.0905,-5.099,-5.1332,-5.1877,-5.2498,-5.3169,-5.3825,-5.4065,-5.4169,-5.4221,-5.4511,-5.5026,-5.5556,0.0,0.0,0.0,0.0,0.0,-1.138,-1.1776,-1.2322,-1.2725,0.0,0.0,0.0,-1.2793,-1.3129,-1.3189,-1.2775,-1.2257,-1.1928,-1.1907,-1.1082,-1.059,-1.0546,-1.0182,-0.9995,-1.0006,-1.0003,-1.0003,-1.0003,0.0,0.0,0.0,0.0,0.0,0.0,0.0,0.0,0.0,0.0,0.0,0.0,-2.0558,0.0,0.0,-2.2603,-2.3421,0.0,0.0,0.0,-2.4627,-2.4296,-2.3692,0.0,0.0,0.0,0.0,-1.8214,-1.8,-1.8177,0.0,0.0,0.0,0.0,0.0,0.0,-2.2389,-2.3836,0.0,0.0,0.0,0.0,0.0,0.0,0.0,0.0,0.0,0.0,0.0,0.0,0.0,0.0,0.0,0.0,0.0,-4.1487,-4.2067,-4.2508,-4.2893,-4.3451,-4.4259,-4.4778,-4.5229,-4.5594,-4.6086,-4.6528,-4.6904,-4.7875,-4.8529,-4.8875,-4.973,-5.0182,-5.02,-5.0666,-5.0863,-5.0908,-5.0975,-5.102,-5.1099,-5.1638,-5.2199,-5.2744,-5.3116,-5.3264,-5.3336,-5.3719,-5.4195,-5.471,0.0,0.0,-1.0101,-1.0969,-1.1377,-1.1844,-1.2624,-1.2882,-1.3043,0.0,-1.3314,-1.3377,-1.339,-1.4067,-1.4173,-1.3297,-1.3075,-1.2914,-1.2741,-1.1929,-1.1397,-1.1307,-1.0554,-1.0098,-1.0003,-1.0003,-1.0003,-1.0003,0.0,0.0,0.0,0.0,0.0,0.0,0.0,0.0,0.0,0.0,0.0,-1.9212,-2.1063,-2.1862,0.0,0.0,-2.5075,0.0,-2.6749,-2.7041,-2.6924,-2.6108,-2.4744,0.0,0.0,0.0,0.0,0.0,-1.8429,0.0,0.0,0.0,0.0,0.0,0.0,0.0,-2.1777,-2.2948,-2.4297,0.0,0.0,0.0,0.0,0.0,0.0,0.0,0.0,0.0,0.0,0.0,0.0,0.0,0.0,0.0,-3.9263,-4.06,-4.1496,-4.1516,-4.2412,-4.3278,-4.397,-4.4201,-4.4662,-4.5441,-4.5547,-4.5962,-4.675,-4.6846,-4.725,-4.7981,-4.8836,-4.9278,-4.9363,-5.0245,-5.0703,-5.0745,-5.0921,-5.0998,-5.0993,-5.1063,-5.1126,-5.1261,-5.2044,-5.2392,-5.2528,-5.3249,-5.3617,-5.3868,0.0,0.0,-1.0837,-1.1123,-1.235,-1.3386,-1.3605,-1.4304,-1.5065,-1.5847,-1.6555,-1.699,-1.6987,-1.7096,-1.6804,-1.5932,-1.5156,-1.4418,-1.3695,-1.2784,-1.1985,-1.1326,-1.1085,-1.0667,-1.0003,-1.0003,-1.0003,-1.0003,-0.9997,0.0,0.0,0.0,0.0,0.0,0.0,0.0,0.0,0.0,0.0,-1.8366,-2.0826,0.0,-2.3031,-2.4783,-2.5952,-2.6788,-2.7645,-2.7957,-2.782,0.0,-2.6011,-2.5017,0.0,0.0,0.0,0.0,0.0,0.0,0.0,0.0,0.0,0.0,0.0,0.0,-2.164,-2.2015,-2.2646,0.0,0.0,0.0,0.0,0.0,0.0,0.0,0.0,0.0,0.0,0.0,0.0,0.0,0.0,0.0,-3.8434,-3.8678,-3.9101,-3.9745,-4.1197,-4.2124,-4.2277,-4.3566,-4.4374,-4.4547,-4.5185,-4.559,-4.5763,-4.6464,-4.6906,-4.706,-4.7952,-4.8355,-4.8403,-4.9324,-4.9763,-4.9815,-5.0599,-5.0945,-5.1005,-5.1007,-5.1056,-5.1139,-5.1367,-5.1452,-5.1482,-5.1658,-5.2188,-5.2873,0.0,-1.0673,-1.1349,-1.2289,-1.3201,-1.3972,-1.4473,-1.534,-1.614,-1.6635,-1.7459,-1.7999,-1.7997,-1.7944,-1.7704,-1.7241,-1.6744,-1.608,-1.5207,-1.4268,-1.3389,-1.2579,-1.2091,-1.1465,-1.0613,-1.0591,-1.0407,-0.9998,-1.0,-1.0027,0.0,0.0,0.0,0.0,0.0,0.0,0.0,0.0,-1.7902,-1.8165,-2.1214,0.0,-2.3324,-2.5485,-2.6827,-2.7665,-2.8541,-2.8853,-2.8717,-2.784,-2.6983,0.0,0.0,-2.4452,-2.3575,0.0,-2.2447,-2.2252,0.0,0.0,0.0,-2.061,0.0,0.0,0.0,-2.1437,-2.1947,-2.2821,0.0,0.0,0.0,0.0,0.0,0.0,0.0,0.0,0.0,0.0,0.0,0.0,0.0,0.0,-3.6856,-3.725,-3.7783,-3.8594,-3.9823,-4.0739,-4.1123,-4.2354,-4.3442,-4.4263,-4.4687,-4.5082,-4.5448,-4.588,-4.6091,-4.611,-4.7002,-4.7425,-4.7472,-4.8393,-4.8813,-4.8876,-4.9388,-4.961,-4.9656,-4.9732,-5.0,-5.0455,-5.0945,-5.1167,-5.1194,-5.1205,-5.1502,-5.195,-1.0997,0.0,-1.2027,-1.3452,-1.3897,-1.4375,-1.5309,-1.6107,-1.6733,-1.7142,-1.8086,-1.8733,-1.8729,-1.8827,-1.8719,-1.8319,-1.8239,-1.7762,-1.6722,-1.5926,-1.5042,-1.4064,-1.3367,-1.2492,-1.1465,-1.1295,-1.0884,-1.0255,-1.0081,-1.0027,0.0,0.0,0.0,0.0,0.0,0.0,0.0,0.0,0.0,-1.8682,0.0,-2.3108,-2.3402,-2.6128,-2.7587,-2.8346,-2.9379,-2.9749,-2.9613,-2.8736,0.0,-2.7236,-2.6244,-2.5446,0.0,0.0,0.0,0.0,0.0,0.0,0.0,0.0,0.0,-2.0702,0.0,0.0,0.0,-2.1675,0.0,0.0,0.0,0.0,0.0,0.0,0.0,0.0,0.0,0.0,0.0,0.0,0.0,0.0,-3.506,-3.6009,-3.6826,-3.7476,-3.8469,-3.9419,-4.0227,-4.1077,-4.2244,-4.3747,-4.4094,-4.4546,-4.5141,-4.5314,-4.539,-4.541,-4.61,-4.6474,-4.6551,-4.7443,-4.7902,-4.7966,-4.8177,-4.8303,-4.8319,-4.8418,-4.8861,-4.9567,-5.0487,-5.0996,-5.1178,-5.1197,-5.12,-5.1298,-1.2013,-1.2738,0.0,-1.3652,-1.443,-1.5336,-1.6225,-1.6481,-1.7187,-1.8788,-2.038,-2.1365,-2.1366,0.0,0.0,0.0,0.0,0.0,-1.7669,0.0,-1.6508,-1.4931,-1.4775,-1.3974,-1.2397,-1.1598,-1.1187,-1.1151,-1.0385,-1.0027,-1.0096,0.0,0.0,0.0,-1.2777,0.0,0.0,0.0,-1.8782,0.0,-2.2327,-2.31,0.0,-2.6788,-2.8113,-2.8424,-3.0061,-3.0645,-3.0528,0.0,-2.9282,-2.8911,0.0,-2.6691,-2.6303,0.0,0.0,0.0,0.0,0.0,0.0,0.0,-2.1654,0.0,0.0,0.0,-2.0837,-2.1558,0.0,0.0,0.0,0.0,0.0,0.0,0.0,0.0,0.0,0.0,0.0,0.0,0.0,-3.3281,-3.3372,-3.4805,-3.5746,-3.5776,-3.7257,-3.8527,-3.94,-4.0207,-4.1067,-4.197,-4.3369,-4.4164,-4.4259,-4.5006,-4.5399,-4.5399,-4.5496,-4.5544,-4.5582,-4.6513,-4.6972,-4.7094,-4.7869,-4.8246,-4.8292,-4.8327,-4.845,-4.8727,-4.9601,-5.0428,-5.1114,-5.1177,-5.1206,-5.1214,-1.304,-1.3328,0.0,-1.4413,-1.5315,-1.6094,-1.6501,-1.7873,-1.9326,-2.0585,-2.18,-2.2531,0.0,0.0,0.0,0.0,0.0,-2.1015,0.0,0.0,-1.8239,-1.6531,-1.6003,-1.5181,-1.3974,-1.3099,-1.2445,-1.1999,-1.1168,-1.0798,-1.0842,-1.0841,0.0,0.0,-1.3266,0.0,-1.6659,0.0,0.0,0.0,0.0,0.0,0.0,-2.7273,-2.8834,-2.9808,-3.0548,-3.0801,-3.0743,0.0,-2.9925,0.0,0.0,0.0,0.0,0.0,0.0,0.0,0.0,0.0,0.0,0.0,0.0,0.0,-2.1344,0.0,-2.0604,0.0,0.0,0.0,0.0,0.0,0.0,0.0,-2.4606,0.0,0.0,0.0,0.0,0.0,0.0,0.0,-3.1495,-3.3114,-3.4057,-3.4007,-3.5577,-3.6719,-3.7084,-3.877,-4.0101,-4.092,-4.2038,-4.3101,-4.4028,-4.4391,-4.4831,-4.5338,-4.5339,-4.537,-4.5419,-4.5802,-4.6014,-4.6117,-4.6527,-4.6741,-4.678,-4.6828,-4.7175,-4.7734,-4.8121,-4.913,-5.0344,-5.0376,-5.073,-5.12,-1.398,0.0,0.0,0.0,0.0,-1.6681,-1.7251,-1.9332,0.0,0.0,0.0,0.0,-2.3684,-2.3903,0.0,0.0,-2.3533,-2.2769,0.0,0.0,-2.0012,0.0,0.0,0.0,-1.5379,-1.4506,-1.3662,-1.2868,-1.2052,-1.1684,-1.1733,-1.1724,0.0,0.0,0.0,-1.51,-1.7008,0.0,0.0,-2.1281,-2.2513,-2.4336,-2.6476,-2.7972,-2.9496,-3.0801,-3.0801,-3.0801,-3.0801,-3.0801,-3.0373,0.0,-2.9574,0.0,0.0,0.0,0.0,0.0,-2.4997,0.0,0.0,0.0,0.0,0.0,0.0,0.0,0.0,0.0,0.0,0.0,0.0,0.0,0.0,-2.3001,0.0,-2.2994,0.0,0.0,0.0,0.0,0.0,0.0,0.0,-3.1328,-3.2284,-3.2224,-3.3808,-3.5,-3.5448,-3.716,-3.8714,-3.9996,-4.0824,-4.1906,-4.33,-4.3748,-4.4302,-4.4953,-4.5171,-4.5307,-4.5369,-4.5398,-4.5429,-4.5486,-4.555,-4.5622,-4.5684,-4.5746,-4.6152,-4.6761,-4.6793,-4.7753,-4.9117,-4.9362,-5.0021,-5.0821,-1.484,-1.4905,0.0,0.0,0.0,0.0,0.0,0.0,0.0,0.0,0.0,0.0,0.0,0.0,0.0,0.0,0.0,-2.4557,-2.2748,0.0,-2.1769,0.0,0.0,-1.8812,0.0,-1.5407,-1.4554,-1.3757,-1.2944,-1.2568,-1.2569,-1.2569,-1.3067,0.0,0.0,-1.5444,-1.7866,-1.7894,-1.9845,-2.2923,-2.2975,-2.5051,-2.8212,0.0,-3.0022,-3.0801,-3.0801,0.0,0.0,-3.0801,-3.0782,0.0,0.0,0.0,0.0,0.0,0.0,0.0,0.0,0.0,0.0,-2.4588,0.0,0.0,0.0,0.0,-2.2923,0.0,0.0,0.0,0.0,0.0,-2.3001,-2.3001,-2.2996,0.0,0.0,0.0,0.0,0.0,0.0,0.0,0.0,-2.9568,-3.0543,-3.0487,-3.2025,-3.3679,-3.5316,-3.5426,-3.6557,-3.9061,-3.9918,-4.075,-4.1571,-4.3115,-4.3954,-4.4045,-4.4843,-4.5254,-4.5307,-4.5359,-4.5408,-4.5418,-4.5457,-4.5531,-4.5614,-4.5684,-4.5758,-4.5846,-4.5846,-4.6438,-4.7397,-4.8225,-4.9097,-4.9846,0.0,0.0,0.0,0.0,0.0,0.0,0.0,-2.1929,0.0,0.0,0.0,0.0,0.0,0.0,-2.7505,0.0,0.0,-2.6299,-2.4548,-2.4352,0.0,0.0,0.0,-1.9707,0.0,0.0,0.0,-1.5445,-1.4067,-1.3424,0.0,0.0,0.0,0.0,0.0,-1.6501,0.0,0.0,0.0,0.0,0.0,-2.7143,-2.8299,0.0,0.0,-3.0791,-3.0799,-3.0801,0.0,-3.0801,-3.0801,-3.0743,-3.0451,-2.9964,-2.9379,-2.8795,-2.821,0.0,0.0,0.0,-2.6303,-2.5465,0.0,0.0,0.0,0.0,0.0,0.0,0.0,0.0,0.0,0.0,-2.2144,-2.2144,-2.1654,-2.1288,0.0,0.0,0.0,0.0,0.0,0.0,0.0,0.0,0.0,-2.9492,-3.0602,-3.1738,-3.2827,-3.441,-3.5695,-3.6556,-3.8437,-3.9833,-4.0626,-4.1712,-4.2817,-4.395,-4.4214,-4.4655,-4.5224,-4.5265,-4.5317,-4.5408,-4.5419,-4.5476,-4.5531,-4.5648,-4.5717,-4.573,-4.5785,-4.5996,-4.6373,-4.7307,-4.8186,-4.9013,-1.6633,0.0,0.0,0.0,0.0,0.0,0.0,0.0,0.0,0.0,-2.605,0.0,-2.7726,0.0,-2.8535,0.0,-2.8406,-2.7739,-2.6322,-2.6154,0.0,-2.3596,-2.2496,0.0,0.0,0.0,0.0,0.0,0.0,-1.459,0.0,0.0,0.0,0.0,0.0,0.0,-1.8012,0.0,-2.1418,0.0,0.0,-2.8161,0.0,0.0,-3.0286,-3.0778,0.0,-3.0796,-3.0796,-3.0799,-3.0801,-3.0801,-3.0801,-3.0412,-2.9905,-2.9593,-2.9106,-2.8463,-2.7606,-2.7139,0.0,-2.6264,-2.5477,0.0,-2.4773,0.0,0.0,0.0,0.0,0.0,0.0,0.0,-2.2413,-2.1791,-2.1227,-2.074,0.0,-2.0885,0.0,0.0,0.0,0.0,0.0,0.0,-2.7214,-2.7703,-2.911,-3.0284,0.0,-3.3226,-3.4676,-3.525,-3.7379,-3.8908,-3.9719,-4.0823,-4.1926,-4.302,-4.3588,-4.4173,-4.4753,-4.5058,-4.5265,-4.5378,-4.539,-4.5429,-4.5457,-4.5577,-4.5648,-4.5709,-4.5746,-4.575,-4.5831,-4.6472,-4.7275,-4.8167,0.0,0.0,0.0,0.0,-1.9414,0.0,0.0,0.0,-2.4781,0.0,-2.6499,-2.7632,-2.922,-2.9481,-2.9469,-2.9369,-2.9337,0.0,-2.8016,-2.7893,0.0,0.0,-2.5236,-2.367,-2.0365,0.0,0.0,0.0,0.0,0.0,0.0,0.0,0.0,0.0,-1.616,0.0,-1.8016,-1.979,-2.1529,-2.3426,-2.6757,-2.81,-2.8298,-3.0047,-3.0704,-3.0703,-3.0778,-3.0803,-3.0806,-3.0796,-3.0799,-3.0801,-3.0801,-3.0801,-3.0645,-2.9808,-2.9554,-2.9379,-2.8502,-2.7665,-2.7022,-2.6983,-2.6314,0.0,0.0,0.0,-2.5599,0.0,0.0,0.0,0.0,0.0,0.0,-2.2102,-2.1754,-2.1396,-2.0524,0.0,0.0,0.0,0.0,0.0,0.0,-2.4309,-2.5283,-2.5308,-2.7531,0.0,0.0,-3.1785,-3.3414,-3.5037,-3.6705,-3.7975,-3.8823,-4.039,-4.1244,-4.1411,-4.2943,-4.3748,-4.3933,-4.4753,-4.5205,-4.5307,-4.5359,-4.54,-4.541,-4.5457,-4.5577,-4.5701,-4.5701,-4.5706,-4.5715,-4.5771,-4.6369,-4.7255,-1.8494,-1.9732,-2.0699,0.0,-2.1164,-2.1972,0.0,0.0,0.0,0.0,-2.7938,-2.8997,-2.9433,-3.0536,-3.0989,-3.032,-3.0796,0.0,0.0,0.0,0.0,-2.6313,-2.562,-2.4549,-2.3035,-2.1134,0.0,-1.923,0.0,0.0,-1.608,0.0,0.0,0.0,0.0,0.0,-1.8094,-2.1077,-2.334,-2.5114,-2.7249,-2.8094,0.0,0.0,-3.0701,-3.0691,-3.0719,-3.0756,-3.0806,-3.0808,-3.0794,-3.0801,-3.0801,-3.0801,-3.0762,-3.0528,-3.047,-3.0275,-2.9399,-2.9009,-2.8678,-2.8035,-2.7214,-2.6567,0.0,0.0,0.0,0.0,0.0,0.0,0.0,0.0,0.0,-2.3714,-2.2549,-2.1396,0.0,0.0,0.0,-2.0402,0.0,0.0,0.0,-2.2866,-2.3975,-2.5212,-2.5917,0.0,0.0,0.0,-3.1628,-3.3291,-3.4969,-3.6517,-3.7928,-3.8944,-4.0043,-4.1263,-4.1658,-4.2579,-4.3918,-4.4127,-4.462,-4.5307,-4.5359,-4.54,-4.541,-4.5457,-4.5559,-4.5631,-4.5684,-4.5706,-4.5715,-4.5781,-4.594,-4.6285,-2.0593,0.0,0.0,-2.2864,0.0,0.0,-2.4822,0.0,0.0,-2.7925,-2.9244,0.0,-3.055,-3.1724,-3.2273,-3.1775,-3.2126,0.0,-3.0422,0.0,0.0,-2.7778,-2.6867,-2.5828,-2.4589,-2.2417,0.0,-2.021,0.0,0.0,-1.6436,0.0,0.0,0.0,0.0,-1.8026,0.0,-2.1707,-2.3993,-2.5703,-2.741,0.0,0.0,-3.0039,-3.0706,-3.0697,-3.0695,-3.071,-3.0767,-3.0781,-3.0808,-3.0794,-3.0799,-3.0801,-3.0801,-3.0801,-3.0801,-3.0684,-3.0197,-2.9788,-2.9379,-2.8892,-2.8113,-2.7465,-2.7469,-2.7092,-2.6748,0.0,-2.6423,-2.6164,0.0,0.0,0.0,0.0,0.0,0.0,0.0,0.0,0.0,0.0,-2.0334,0.0,0.0,-2.1764,-2.2774,-2.412,-2.4864,0.0,0.0,0.0,-3.0956,-3.2592,-3.4276,-3.5929,-3.7528,-3.8353,-3.9393,-4.0639,-4.1018,-4.1759,-4.283,-4.3572,-4.4198,-4.4762,-4.5166,-4.536,-4.539,-4.5448,-4.5495,-4.5568,-4.5631,-4.5682,-4.5703,-4.5746,-4.5773,-4.5882,0.0,0.0,0.0,0.0,0.0,0.0,0.0,-2.6776,0.0,-2.9464,0.0,-3.1125,-3.1974,-3.2819,-3.3309,-3.3319,0.0,-3.2854,-3.1864,-3.1753,-3.0937,-2.919,-2.8398,-2.7199,-2.5515,-2.3865,0.0,0.0,0.0,-1.8374,-1.6833,-1.6713,0.0,0.0,0.0,0.0,0.0,-2.2146,-2.4138,-2.5802,-2.7431,-2.8178,-2.8445,-3.0079,-3.0692,-3.071,-3.0694,-3.0701,-3.0717,-3.077,-3.0781,-3.0806,-3.0796,-3.0799,-3.0801,-3.0801,-3.0801,-3.0801,-3.0801,-3.0256,-2.9671,-2.9671,-2.9028,-2.8364,-2.8374,-2.8281,-2.8207,-2.8193,-2.7595,-2.7022,0.0,0.0,0.0,0.0,0.0,0.0,0.0,0.0,0.0,0.0,0.0,0.0,0.0,0.0,0.0,0.0,0.0,0.0,0.0,0.0,-3.0603,-3.221,-3.3891,-3.5541,-3.7166,-3.8085,-3.8944,-3.9748,-4.062,-4.1171,-4.144,-4.2906,-4.3721,-4.4045,-4.48,-4.5243,-4.5408,-4.54,-4.5438,-4.5513,-4.5577,-4.564,-4.5693,-4.5701,-4.575,-4.58,0.0,0.0,0.0,0.0,0.0,-2.6181,-2.7614,-2.8574,-2.9482,-3.045,-3.071,-3.12,-3.23,-3.3335,-3.3921,-3.3868,-3.4042,0.0,0.0,0.0,0.0,-2.9256,-2.9038,-2.8137,-2.6413,-2.5375,-2.401,0.0,-2.0827,-1.9558,-1.8549,-1.7889,0.0,0.0,0.0,0.0,-2.2304,-2.3484,0.0,-2.6653,-2.7699,-2.8524,-2.928,-3.0304,-3.0704,-3.0707,-3.0706,-3.0701,-3.0695,-3.0701,-3.0742,-3.0806,-3.0808,-3.0794,-3.0801,-3.0801,-3.0801,-3.0801,-3.0801,-3.0684,-3.0567,-3.0567,-2.9925,-2.9279,-2.927,-2.8729,-2.8207,-2.8193,-2.8019,-2.7696,-2.7022,0.0,0.0,0.0,0.0,0.0,0.0,0.0,0.0,0.0,0.0,-2.0297,0.0,0.0,0.0,0.0,0.0,0.0,0.0,0.0,-2.8885,0.0,-3.2151,0.0,0.0,0.0,-3.8064,-3.8917,-3.974,-4.0572,-4.1402,-4.1707,-4.2635,-4.4006,-4.4159,-4.4678,-4.5408,-4.54,-4.5476,-4.5577,-4.5605,-4.5614,-4.5631,-4.5684,-4.5709,-4.5734,0.0,0.0,0.0,0.0,0.0,0.0,0.0,-2.9413,0.0,-3.0753,-3.1599,-3.2337,-3.2855,-3.4155,-3.4962,-3.4938,-3.5015,-3.4534,-3.3237,-3.2738,-3.1906,-3.06,-2.9682,0.0,-2.73,-2.5972,-2.4692,-2.3471,-2.1754,-2.0485,-1.9661,-1.8811,0.0,0.0,0.0,-2.1356,0.0,0.0,0.0,-2.6823,-2.7694,-2.8562,-2.9435,-3.0315,-3.0661,-3.07,-3.0692,-3.0706,-3.0704,-3.0691,-3.0727,-3.0742,-3.0781,-3.0808,-3.0794,-3.0799,-3.0801,-3.0801,-3.0801,-3.0801,-3.0801,-3.0801,-3.049,-3.0175,-3.0171,-2.9822,-2.9494,-2.9507,-2.9114,-2.8511,-2.768,-2.6844,0.0,0.0,0.0,0.0,0.0,0.0,0.0,0.0,0.0,0.0,0.0,0.0,0.0,0.0,0.0,0.0,0.0,0.0,-2.8446,0.0,0.0,0.0,-3.4982,0.0,-3.7837,-3.8709,-3.9532,-4.0192,-4.0745,-4.1193,-4.1883,-4.2756,-4.3624,-4.4256,-4.4707,-4.5199,-4.5467,-4.5559,-4.5586,-4.5594,-4.5594,-4.564,-4.5665,-4.5709,0.0,-2.6702,0.0,0.0,-2.8838,0.0,-2.8827,-3.0621,-3.1826,-3.1403,-3.2232,-3.3106,-3.377,-3.5026,-3.5806,-3.5803,-3.5742,-3.5405,-3.4723,-3.3696,-3.2714,-3.1844,-3.0306,-2.9065,-2.8203,-2.6646,-2.5361,0.0,-2.2816,-2.1543,-2.0538,-1.9871,-1.9587,0.0,0.0,0.0,0.0,0.0,-2.5604,-2.7054,-2.7929,-2.8797,-2.9646,-3.0348,-3.064,-3.0688,-3.0696,-3.0692,-3.071,-3.0704,-3.0691,-3.0717,-3.0767,-3.08,-3.0806,-3.0794,-3.0799,-3.0801,-3.0801,-3.0801,-3.0801,-3.0801,-3.0801,-3.0801,-3.0801,-3.0742,-3.0703,-3.0703,-3.0014,-2.9195,-2.8492,-2.7718,0.0,0.0,0.0,0.0,0.0,0.0,0.0,0.0,0.0,0.0,-2.0645,0.0,0.0,0.0,0.0,0.0,-2.4596,0.0,0.0,0.0,0.0,-3.3194,-3.4451,0.0,-3.7742,-3.8443,-3.9437,-3.9984,-4.0125,-4.0802,-4.1273,-4.1571,-4.31,-4.3959,-4.4343,-4.5102,-4.5448,-4.5504,-4.5559,-4.5586,-4.5594,-4.5594,-4.564,-4.5701,0.0,0.0,0.0,0.0,0.0,0.0,-3.0573,-3.3399,-3.4955,-3.3356,-3.1923,-3.2211,-3.5326,-3.5748,-3.5795,-3.5791,-3.5737,-3.5664,-3.5574,-3.4016,-3.271,-3.1844,-3.0882,-2.9979,-2.909,-2.8145,-2.6877,0.0,-2.4312,-2.3009,-2.1389,-2.1375,-2.1396,0.0,0.0,0.0,0.0,-2.5797,-2.7015,-2.7952,-2.8823,-2.9693,-3.0486,-3.0572,-3.06,-3.0608,-3.0688,-3.07,-3.0707,-3.0706,-3.0704,-3.0695,-3.0717,-3.0742,-3.0806,-3.0806,-3.0794,-3.0801,-3.0801,-3.0801,-3.0801,-3.0801,-3.0801,-3.0801,-3.0801,-3.0742,-3.0703,-3.0703,-3.0014,-2.9389,-2.9292,-2.857,-2.7728,0.0,0.0,0.0,0.0,0.0,0.0,0.0,0.0,0.0,0.0,-2.0758,0.0,0.0,-2.1808,0.0,0.0,0.0,0.0,-2.7827,-3.0933,-3.2642,-3.2722,-3.5847,-3.7438,-3.7552,-3.9142,-3.9984,-4.0106,-4.0183,-4.0691,-4.1552,-4.2507,-4.3818,-4.5283,-4.5351,-4.5429,-4.5504,-4.5504,-4.555,-4.5594,-4.5594,-4.5594,-4.5622,0.0,0.0,0.0,0.0,0.0,0.0,0.0,-3.5094,-3.5749,-3.4993,-3.4294,-3.4372,-3.5755,-3.5845,-3.5795,-3.5795,-3.5742,-3.5701,-3.5709,-3.4408,-3.3314,-3.2613,-3.124,-3.011,-2.9279,-2.8883,-2.7865,0.0,0.0,-2.4266,-2.3047,-2.2597,-2.2395,0.0,0.0,-2.4486,-2.5066,-2.6203,-2.7499,-2.8803,-2.9171,-2.9824,-3.0598,-3.0592,-3.0606,-3.0604,-3.0629,-3.0669,-3.0704,-3.0706,-3.0697,-3.0704,-3.0691,-3.0724,-3.0758,-3.08,-3.0808,-3.0794,-3.0799,-3.0801,-3.0801,-3.0801,-3.0801,-3.0799,-3.0794,-3.0756,-3.07,-3.0707,-3.0416,-3.0185,-3.0185,-2.9467,-2.8761,-2.8417,0.0,0.0,0.0,0.0,0.0,0.0,0.0,0.0,0.0,0.0,0.0,0.0,0.0,0.0,0.0,0.0,0.0,-2.7663,0.0,-3.2594,-3.2566,-3.578,-3.7401,-3.742,-3.9104,-3.9984,-4.0106,-4.0106,-4.0901,-4.2297,-4.2641,-4.3759,-4.5338,-4.5369,-4.5429,-4.5438,-4.5485,-4.5531,-4.5594,-4.5594,-4.5594,-4.5594,-3.2122,0.0,-3.2338,0.0,-3.4394,-3.5991,-3.5995,-3.5992,-3.5981,-3.5916,-3.5908,-3.5908,-3.5908,-3.5845,-3.5795,-3.5795,-3.5747,-3.5704,-3.5704,-3.4949,-3.4021,-3.2914,-3.1584,0.0,-2.9709,-2.9376,-2.8647,-2.7469,-2.6572,-2.5565,-2.4465,-2.3655,0.0,0.0,-2.4544,-2.5414,-2.6285,-2.7112,-2.818,-2.9326,-2.9573,-3.0056,-3.0598,-3.0598,-3.0592,-3.061,-3.0589,-3.0633,-3.0673,-3.0695,-3.0706,-3.0694,-3.0704,-3.0691,-3.0717,-3.0764,-3.0776,-3.0762,-3.0767,-3.0774,-3.0794,-3.0772,-3.0794,-3.0794,-3.0781,-3.0725,-3.0707,-3.0691,-3.0701,-3.0694,-3.0694,-3.0205,-2.9696,-2.9433,0.0,0.0,0.0,0.0,0.0,0.0,-2.4296,-2.3635,-2.2458,-2.2052,0.0,0.0,0.0,0.0,0.0,0.0,0.0,0.0,0.0,0.0,-3.2602,-3.579,-3.7401,-3.742,-3.9126,-3.9994,-4.0106,-4.0137,-4.0978,-4.2431,-4.2698,-4.3615,-4.4934,-4.5253,-4.537,-4.541,-4.5457,-4.5513,-4.5577,-4.5586,-4.5594,-4.5594,-3.5264,-3.5933,-3.5937,-3.5937,-3.597,-3.5992,-3.5992,-3.5992,-3.5981,-3.5916,-3.5908,-3.5908,-3.5908,-3.5845,-3.5795,-3.5795,-3.5747,-3.5704,-3.5704,-3.5684,-3.4665,0.0,0.0,-3.1405,-3.0598,-2.9747,-2.9294,-2.9274,0.0,0.0,-2.5372,0.0,-2.4641,-2.5507,-2.6319,-2.7151,-2.803,-2.89,-2.9287,-2.9384,-3.023,-3.0598,-3.0598,-3.0598,-3.0598,-3.0602,-3.061,-3.0589,-3.061,-3.0673,-3.0695,-3.0694,-3.0694,-3.0704,-3.0695,-3.0695,-3.0707,-3.0703,-3.0703,-3.0753,-3.0781,-3.0725,-3.0753,-3.0781,-3.0725,-3.0707,-3.0711,-3.0697,-3.0694,-3.0694,-3.0694,-3.0694,-3.0402,-2.9544,0.0,0.0,0.0,0.0,0.0,0.0,-2.4663,-2.4098,-2.4079,-2.3285,0.0,0.0,0.0,0.0,0.0,0.0,0.0,-2.7701,-3.0898,0.0,-3.2602,-3.579,-3.7401,-3.742,-3.9178,-4.0017,-4.0087,-4.0234,-4.075,-4.1552,-4.2431,-4.3271,-4.4083,-4.4953,-4.5338,-4.5389,-4.541,-4.5438,-4.5504,-4.5577,-4.5594,-4.5594,-3.5776,-3.5991,-3.5996,-3.5996,-3.6009,-3.5992,-3.5992,-3.5953,-3.5929,-3.5892,-3.5908,-3.5872,-3.5841,-3.5811,-3.5795,0.0,-3.5788,-3.5742,0.0,-3.5704,-3.538,-3.4645,-3.228,-3.112,-3.1405,-3.0612,-2.9892,-2.9297,0.0,0.0,0.0,-2.6915,-2.6938,-2.7217,-2.7464,-2.8064,-2.89,-2.919,-2.9631,-3.0211,-3.0482,-3.0598,-3.0598,-3.0598,-3.0598,-3.0602,-3.061,-3.0604,-3.0613,-3.0688,-3.0704,-3.0692,-3.071,-3.0697,-3.0701,-3.0691,-3.0698,-3.0704,-3.0697,-3.0725,-3.0728,-3.0703,-3.0725,-3.0725,-3.0707,-3.0691,-3.0697,-3.0694,-3.0694,-3.0694,-3.0694,-3.0694,-3.0616,-3.0321,-2.905,0.0,-2.7725,0.0,0.0,-2.5433,-2.5176,-2.4746,-2.4154,-2.3859,0.0,0.0,0.0,0.0,0.0,0.0,0.0,0.0,-3.1489,0.0,-3.3409,-3.6074,-3.7401,-3.742,-3.9178,-4.0067,-4.0176,-4.0253,-4.075,-4.1552,-4.2412,-4.3271,-4.4064,-4.4934,-4.5338,-4.5389,-4.54,-4.5438,-4.5504,-4.5577,-4.5594,-4.5518,-3.6005,-3.5994,-3.5996,-3.5993,-3.6003,-3.5992,-3.5992,-3.594,-3.5908,-3.5908,-3.5908,-3.5866,-3.5803,-3.5795,0.0,-3.5795,-3.5795,-3.5775,-3.5695,-3.5704,-3.5704,-3.5704,-3.3654,-3.2145,-3.1366,-3.1159,0.0,-2.9785,-2.9457,-2.9016,-2.8474,-2.8146,-2.8165,-2.8494,-2.8494,-2.8977,-2.9785,-2.9785,-3.0095,-3.0598,-3.0598,-3.0598,-3.0598,-3.0598,-3.0598,-3.0598,-3.0597,-3.0591,-3.0604,-3.0649,-3.0688,-3.0704,-3.0695,-3.0706,-3.0694,-3.0704,-3.0704,-3.0707,-3.0701,-3.0707,-3.0691,-3.0704,-3.0707,-3.0707,-3.0711,-3.0701,-3.0694,-3.0694,-3.0694,-3.0694,-3.0694,-3.0694,-3.0694,-3.0694,-2.9248,-2.8097,-2.8097,0.0,-2.5484,0.0,0.0,0.0,0.0,-2.4841,-2.499,0.0,0.0,0.0,0.0,0.0,0.0,-3.0154,-3.1756,-3.2991,-3.3798,-3.6188,-3.7401,-3.742,-3.9199,-4.0098,-4.0244,-4.0272,-4.0578,-4.1113,-4.2297,-4.31,-4.3643,-4.4819,-4.5328,-4.5359,-4.54,-4.5429,-4.5457,-4.5568,-4.5402,-4.5037,-3.5996,-3.5996,-3.5994,0.0,-3.5992,0.0,-3.5989,-3.594,-3.5908,-3.5908,-3.5908,-3.5866,-3.5803,-3.5795,-3.5795,-3.5795,0.0,0.0,0.0,-3.5704,-3.5704,-3.5704,-3.5704,-3.4214,-3.1023,-3.1526,-3.1463,-3.0675,-2.9805,-2.9384,-2.9364,-2.8552,-2.861,-2.9384,-2.9384,-2.9843,-3.0598,-3.0598,-3.0598,-3.0598,-3.0598,-3.0636,-3.0675,-3.0675,-3.0714,-3.0772,-3.0714,-3.067,-3.0673,-3.0619,-3.0645,-3.0696,-3.07,-3.0695,-3.0694,-3.0694,-3.0694,-3.0694,-3.0694,-3.0701,-3.0707,-3.0697,-3.0704,-3.0707,-3.0697,-3.0694,-3.0694,-3.0694,-3.0694,-3.0694,-3.0694,-3.0694,-3.0694,-3.0694,-2.9287,-2.8194,-2.8194,-2.668,-2.5576,0.0,0.0,0.0,-2.5572,-2.6182,-2.659,0.0,0.0,0.0,0.0,0.0,-2.9471,-3.0338,-3.187,-3.3067,-3.3875,-3.6207,-3.7457,-3.7619,-3.9305,-4.0166,-4.0301,-4.0301,-4.0301,-4.0396,-4.2011,-4.2737,-4.2928,-4.4532,-4.525,-4.5317,-4.5361,-4.54,-4.5419,-4.5482,-4.4998,-4.4278,0.0,0.0,-3.6,-3.5994,-3.5992,-3.5985,-3.5934,-3.5916,-3.5908,-3.5908,-3.5908,-3.5866,-3.5803,-3.5795,-3.5795,-3.5795,-3.5752,-3.5716,-3.5709,-3.5704,-3.5704,-3.5704,-3.5704,-3.5317,-3.4505,-3.2982,-3.1952,-3.1521,-3.0694,-3.0288,-3.0288,-3.0075,-3.0095,-3.0288,-3.0288,-3.0404,-3.0598,-3.0598,-3.0598,-3.0598,-3.0598,-3.0965,-3.1521,-3.1521,-3.1927,-3.2411,-3.1753,-3.1526,-3.142,-3.0804,-3.0613,-3.0637,-3.0673,-3.0695,-3.0694,-3.0694,-3.0694,-3.0694,-3.0694,-3.0694,-3.0697,-3.0694,-3.0694,-3.0697,-3.0694,-3.0694,-3.0694,-3.0694,-3.0694,-3.0694,-3.0694,-3.0694,-3.0694,-3.0694,-2.9807,-2.9082,-2.9082,-2.7551,-2.6631,0.0,-2.6761,-2.6627,-2.7257,-2.7421,-2.7497,0.0,0.0,0.0,-2.9841,-3.0529,-3.1267,-3.2088,-3.3021,-3.3932,-3.4788,-3.654,-3.8076,-3.9467,-3.9906,-4.0166,-4.0301,-4.0301,-4.0301,-4.0358,-4.1361,-4.2183,-4.2889,-4.3902,-4.4704,-4.5317,-4.5361,-4.54,-4.5343,-4.4801,-4.447,-4.4124,-3.5996,-3.6009,-3.5992,-3.5992,-3.596,-3.594,-3.5914,-3.5908,-3.5908,-3.5908,-3.5862,-3.5845,-3.5799,-3.5795,-3.5795,-3.5795,-3.5747,-3.5704,-3.5704,-3.5704,-3.5704,-3.5704,-3.5704,-3.5704,-3.5704,-3.449,-3.3363,-3.2391,-3.1966,-3.1734,-3.1734,-3.1734,-3.1734,-3.1734,-3.1734,-3.1734,-3.1734,-3.1734,-3.1734,-3.1734,-3.1734,-3.2005,-3.2391,-3.2391,-3.2681,-3.3049,-3.2565,-3.2391,-3.2333,-3.1889,-3.1733,-3.1756,-3.182,-3.1845,-3.1845,-3.1875,-3.1315,-3.0694,-3.0694,-3.0694,-3.0694,-3.0694,-3.0694,-3.0694,-3.0694,-3.0694,-3.0694,-3.0694,-3.0694,-3.0694,-3.0694,-3.0694,-3.071,-3.0699,-2.9974,-2.9389,-2.9361,-2.8167,-2.7447,-2.7846,-2.7513,-2.7412,-2.7862,-2.8172,-2.8349,-2.835,-2.9455,0.0,-3.0758,-3.1962,-3.284,-3.328,-3.3612,-3.4407,-3.5644,-3.7223,-3.8703,-4.0106,-4.0106,-4.0166,-4.0301,-4.0301,-4.0301,-4.0339,-4.1151,-4.1991,-4.287,-4.3663,-4.4513,-4.5307,-4.538,-4.54,-4.5314,-4.4572,-4.4068,-4.3566,-3.5996,-3.6007,-3.5992,-3.5992,-3.5942,-3.5908,-3.5908,-3.5908,-3.5906,-3.5897,-3.5841,-3.5795,-3.5795,-3.5795,-3.581,-3.5797,-3.5737,-3.5704,-3.5704,-3.5704,-3.5704,-3.5704,-3.5704,-3.5704,-3.5704,-3.5704,-3.4911,-3.33,-3.3165,-3.3107,-3.3107,-3.3107,-3.3107,-3.3107,-3.3107,-3.3107,-3.3107,-3.3107,-3.3107,-3.3107,-3.3107,-3.3184,-3.33,-3.33,-3.3378,-3.3474,-3.3339,-3.33,-3.3281,-3.3146,-3.3103,-3.3113,-3.3175,-3.3197,-3.3203,-3.3262,-3.2244,-3.1063,-3.0927,-3.081,-3.0694,-3.0694,-3.0694,-3.0694,-3.0694,-3.0694,-3.0694,-3.0694,-3.0694,-3.0694,-3.0694,-3.069,-3.0703,-3.0704,-3.0079,-2.9555,-2.95,0.0,-2.8225,-2.8271,-2.8189,-2.8145,-2.8261,-2.8827,-2.9245,-2.9379,-3.0698,-3.1618,-3.1866,-3.3223,-3.4063,-3.417,-3.405,-3.4798,-3.6454,-3.7953,-3.9178,-4.0106,-4.0106,-4.0166,-4.0301,-4.0301,-4.0301,-4.0339,-4.1017,-4.18,-4.266,-4.3338,-4.4208,-4.5116,-4.5167,-4.5208,-4.5122,-4.4382,-4.3581,-4.2777,-3.6003,-3.5995,-3.5992,-3.5992,-3.5942,-3.5908,-3.5908,-3.5908,-3.5872,-3.5827,-3.5803,-3.5795,-3.5795,-3.5795,-3.5784,-3.5722,-3.5715,-3.5704,-3.5704,-3.5704,-3.5704,-3.5704,-3.5704,-3.5704,-3.5704,-3.5704,-3.5201,-3.42,-3.3455,-3.3107,-3.3107,-3.3107,-3.3107,-3.3107,-3.3107,-3.3107,-3.3107,-3.3107,-3.3107,-3.3107,-3.3107,-3.3532,-3.42,-3.42,-3.4659,-3.5201,-3.4466,-3.42,-3.4079,-3.3358,-3.3103,-3.3108,-3.3113,-3.3145,-3.3203,-3.3207,-3.3064,-3.2749,-3.2007,-3.1254,-3.0694,-3.0694,-3.0694,-3.0694,-3.0694,-3.0694,-3.0694,-3.0694,-3.0694,-3.0694,-3.0694,-3.0699,-3.0704,-3.07,-3.0532,-3.041,-3.0406,0.0,-2.9346,-3.0027,-2.9443,-2.9263,-2.9948,-3.0061,-3.0401,-3.1142,-3.1386,-3.2114,-3.3536,-3.3861,-3.4315,-3.4988,-3.4928,-3.5646,-3.7212,-3.8207,-3.9178,-4.0106,-4.0106,-4.0166,-4.0301,-4.0301,-4.0301,-4.0301,-4.0435,-4.096,-4.1705,-4.1839,-4.2794,-4.4208,-4.4277,-4.4336,-4.4298,-4.3499,-4.2697,-4.1893,-3.8751,-3.7261,-3.5986,-3.5947,-3.5926,-3.5908,-3.5908,-3.5908,-3.5885,-3.5807,-3.5795,-3.5795,-3.5795,-3.5795,-3.578,-3.5715,-3.5704,-3.5704,-3.5704,-3.5704,-3.5704,-3.5704,-3.5704,-3.5704,-3.5704,-3.5704,-3.5491,-3.511,-3.4698,-3.4505,-3.4505,-3.4505,-3.4505,-3.4505,-3.4505,-3.4505,-3.4505,-3.4505,-3.4475,-3.4439,-3.4439,-3.4685,-3.504,-3.5057,-3.5295,-3.561,-3.524,-3.511,-3.5051,-3.464,-3.449,-3.4506,-3.4502,-3.4522,-3.4545,-3.4592,-3.3972,-3.3215,-3.2807,-3.2419,-3.2108,-3.2108,-3.2108,-3.2108,-3.2108,-3.2108,-3.1972,-3.1506,-3.1409,-3.1269,-3.0796,-3.0707,-3.0692,-3.0653,-3.0613,0.0,-3.0601,-3.0226,-3.0081,-3.0471,-3.0102,-3.0186,-3.1025,-3.1034,-3.1359,-3.2184,-3.2618,-3.3184,-3.3956,-3.441,-3.4789,-3.5147,-3.595,-3.6711,-3.7401,-3.8698,-3.9575,-4.0046,-4.0077,-4.0147,-4.0253,-4.0272,-4.0301,-4.0301,-4.0301,-4.0769,-4.1495,-4.1495,-4.2221,-4.3367,-4.3387,-4.3417,-4.335,-4.2581,-4.2068,-4.1629,-4.1114,-3.9,-3.692,-3.6055,-3.5908,-3.5908,-3.5908,-3.5897,-3.5866,-3.5803,-3.5795,-3.5795,-3.5795,-3.5797,-3.5757,-3.5695,-3.5704,-3.5704,-3.5704,-3.5704,-3.5704,-3.5704,-3.5704,-3.5704,-3.5704,-3.5704,-3.5704,-3.5704,-3.5704,-3.5704,-3.5704,-3.5704,-3.5704,-3.5704,-3.5704,-3.5704,-3.5704,-3.5679,-3.5643,-3.5601,-3.5595,-3.5596,-3.5598,-3.5602,-3.5595,-3.5606,-3.5668,-3.5679,-3.5704,-3.5704,-3.5704,-3.569,-3.5692,-3.5702,-3.5718,-3.5757,-3.4872,-3.3825,-3.3619,-3.3448,-3.3293,-3.3293,-3.3293,-3.3293,-3.3293,-3.3293,-3.3114,-3.2431,-3.2272,-3.2016,-3.1142,-3.0979,-3.0909,-3.0643,0.0,-3.0601,-3.0602,-3.0535,-3.0563,-3.0755,-3.0722,-3.1041,-3.1891,-3.1917,-3.2222,-3.3034,-3.3651,-3.409,-3.4273,-3.4863,-3.525,-3.5379,-3.6739,-3.7555,-3.7704,-3.9161,-3.9933,-3.9996,-4.0057,-4.0127,-4.0196,-4.0253,-4.0291,-4.0301,-4.0301,-4.0654,-4.1227,-4.1227,-4.1724,-4.2507,-4.2507,-4.2498,-4.246,-4.1893,-4.1581,-4.1336,-4.1109,-4.0894,-3.9692,-3.6465,-3.5908,-3.5908,-3.5908,-3.5856,-3.5803,-3.5795,-3.5795,-3.5795,-3.5795,-3.5737,-3.5715,-3.5709,-3.5704,-3.5704,-3.5704,-3.5704,-3.5704,-3.5704,-3.5704,-3.5704,-3.5704,-3.5704,-3.5704,-3.5704,-3.5704,-3.5704,-3.5704,-3.5704,-3.5704,-3.5704,-3.5704,-3.5704,-3.5704,-3.5637,-3.5606,-3.5601,-3.559,-3.5598,-3.5598,-3.5598,-3.5596,-3.5606,-3.5606,-3.5643,-3.5704,-3.5704,-3.5704,-3.5709,-3.5709,-3.5706,-3.5707,-3.5713,-3.5616,-3.5354,-3.4606,-3.3876,-3.3293,-3.3293,-3.3293,-3.3293,-3.3293,-3.3293,-3.3266,-3.313,-3.3106,-3.285,-3.1975,-3.1818,-3.1549,-3.0735,0.0,0.0,-3.0598,-3.0535,-3.0776,-3.1516,-3.1609,-3.1927,-3.2718,-3.2749,-3.3072,-3.3942,-3.4003,-3.4331,-3.5076,-3.5168,-3.55,-3.6188,-3.6994,-3.778,-3.8595,-3.9475,-3.9933,-3.9996,-3.9996,-4.0077,-4.0196,-4.0206,-4.0244,-4.0301,-4.0301,-4.032,-4.0377,-4.0377,-4.0864,-4.159,-4.159,-4.1619,-4.1685,-4.1701,-4.1227,-4.0587,-4.1109,-4.1109,-4.0006,-3.6506,-3.5908,-3.5908,-3.5908,-3.5829,-3.5795,-3.5795,-3.5795,-3.5795,-3.5795,-3.5733,-3.5704,-3.5704,-3.5704,-3.5704,-3.5704,-3.5704,-3.5704,-3.5704,-3.5704,-3.5704,-3.5704,-3.5704,-3.5704,-3.5704,-3.5704,-3.5704,-3.5704,-3.5704,-3.5704,-3.5704,-3.5704,-3.5679,-3.5637,-3.5606,-3.5583,-3.5547,-3.5534,-3.5534,-3.5547,-3.5534,-3.5534,-3.5534,-3.5589,-3.5612,-3.5643,-3.5679,-3.5704,-3.5704,-3.5704,-3.5695,-3.5706,-3.5702,-3.5708,-3.5631,-3.5324,-3.5018,-3.4786,-3.4786,-3.4786,-3.4786,-3.4786,-3.4786,-3.4645,-3.4108,-3.4011,-3.3731,-3.2817,-3.2633,-3.2542,-3.2198,0.0,-3.214,-3.214,-3.2085,-3.2169,-3.2466,-3.2478,-3.2769,-3.3628,-3.3658,-3.3954,-3.4779,-3.4779,-3.4885,-3.519,-3.563,-3.6216,-3.6956,-3.779,-3.8367,-3.869,-3.9513,-3.9911,-3.9933,-3.9975,-4.0036,-4.0077,-4.0166,-4.0206,-4.0244,-4.0272,-4.0301,-4.0301,-4.0301,-4.0473,-4.0769,-4.0769,-4.0778,-4.0797,-4.086,-4.0712,-4.0449,-4.1109,-4.1109,-4.0356,-3.7946,-3.6629,-3.5908,-3.5908,-3.5829,-3.5795,-3.5795,-3.5795,-3.5795,-3.5795,-3.5733,-3.5704,-3.5704,-3.5704,-3.5704,-3.5704,-3.5704,-3.5704,-3.5704,-3.5704,-3.5704,-3.5704,-3.5704,-3.5704,-3.5704,-3.5704,-3.5704,-3.5704,-3.5704,-3.5704,-3.5704,-3.5704,-3.5668,-3.5601,-3.5583,-3.5534,-3.5509,-3.5496,-3.5508,-3.55,-3.5495,-3.5496,-3.5515,-3.5559,-3.5589,-3.5606,-3.5648,-3.5679,-3.5704,-3.5704,-3.5704,-3.569,-3.5711,-3.5707,-3.5703,-3.5703,-3.5703,-3.5708,-3.5704,-3.5708,-3.5708,-3.5708,-3.5708,-3.5548,-3.4996,-3.4875,-3.4599,-3.3684,-3.3505,-3.3422,-3.3146,-3.3107,-3.3102,-3.3091,-3.304,-3.3084,-3.3361,-3.3352,-3.3641,-3.4526,-3.4541,-3.4702,-3.525,-3.5231,-3.5316,-3.5567,-3.6537,-3.7319,-3.7819,-3.8633,-3.9077,-3.9077,-3.9616,-3.99,-3.99,-3.9943,-3.9975,-3.9996,-4.0108,-4.0176,-4.0206,-4.0263,-4.0301,-4.0301,-4.0301,-4.0301,-4.0301,-4.0301,-4.0291,-4.0319,-4.0381,-4.0415,-4.0441,-4.1109,-4.1109,-4.1097,-4.11,-3.8246,-3.5928,-3.5908,-3.5833,-3.5795,-3.5795,-3.5795,-3.5795,-3.5795,-3.5733,-3.5704,-3.5704,-3.5704,-3.5704,-3.5704,-3.5704,-3.5704,-3.5704,-3.5704,-3.5704,-3.5704,-3.5704,-3.5704,-3.5704,-3.5704,-3.5704,-3.5704,-3.5704,-3.5704,-3.5704,-3.5704,-3.5662,-3.5608,-3.5521,-3.5502,-3.5502,-3.5501,-3.55,-3.55,-3.55,-3.5508,-3.5509,-3.5509,-3.5534,-3.5601,-3.5601,-3.5643,-3.5704,-3.5704,-3.5704,-3.5704,-3.5704,-3.5704,-3.5704,-3.5704,-3.5704,-3.5701,-3.5694,-3.5704,-3.5704,-3.5704,-3.5704,-3.5699,-3.5693,-3.5707,-3.5451,-3.4573,-3.4413,-3.4137,-3.3262,-3.3126,-3.3116,-3.3123,-3.3062,-3.3323,-3.4128,-3.4218,-3.4545,-3.5423,-3.5372,-3.5308,-3.5308,-3.525,-3.5567,-3.6382,-3.7928,-3.8793,-3.88,-3.9515,-3.99,-3.99,-3.99,-3.99,-3.99,-3.99,-3.9933,-3.9996,-4.0067,-4.0137,-4.0196,-4.0263,-4.0301,-4.0301,-4.0301,-4.0301,-4.0301,-4.0301,-4.03,-4.0316,-4.037,-4.0441,-4.051,-4.1091,-4.1109,-4.1097,-4.11,-4.0234,-3.8714,-3.6279,-3.5875,-3.5843,-3.5803,-3.5795,-3.5795,-3.5795,-3.5733,-3.5704,-3.5704,-3.5704,-3.5704,-3.5704,-3.5704,-3.5704,-3.5704,-3.5704,-3.5704,-3.5704,-3.5704,-3.5704,-3.5704,-3.5704,-3.5704,-3.5704,-3.5704,-3.5704,-3.5704,-3.5645,-3.5616,-3.5604,-3.554,-3.5502,-3.5501,-3.5507,-3.55,-3.55,-3.55,-3.5507,-3.5508,-3.5496,-3.5534,-3.5596,-3.5595,-3.5643,-3.5704,-3.5704,-3.5704,-3.5704,-3.5704,-3.5704,-3.5704,-3.5704,-3.5704,-3.569,-3.5706,-3.5692,-3.5692,-3.5692,-3.5692,-3.5711,-3.5701,-3.5701,-3.5618,-3.5361,-3.5303,-3.522,-3.4969,-3.4875,-3.4859,-3.4847,-3.4806,-3.4841,-3.5079,-3.5104,-3.5212,-3.5462,-3.5372,-3.5557,-3.6178,-3.6673,-3.7064,-3.7306,-3.8299,-3.8861,-3.881,-3.9558,-3.9943,-3.99,-3.99,-3.99,-3.99,-3.99,-3.9911,-3.9933,-3.9996,-4.0067,-4.0137,-4.0196,-4.0253,-4.0301,-4.0301,-4.0301,-4.0301,-4.0301,-4.03,-4.0316,-4.037,-4.0441,-4.051,-4.1093,-4.1109,-4.1097,-4.11,-4.1107,-4.039,-3.8285,-3.6785,-3.5885,-3.5807,-3.5795,-3.5795,-3.5795,-3.5733,-3.5704,-3.5704,-3.5704,-3.5704,-3.5704,-3.5704,-3.5704,-3.5704,-3.5704,-3.5704,-3.5704,-3.5704,-3.5704,-3.5704,-3.5704,-3.5662,-3.561,-3.561,-3.561,-3.5629,-3.5573,-3.5554,-3.5554,-3.5522,-3.5495,-3.55,-3.55,-3.55,-3.55,-3.55,-3.55,-3.5507,-3.5495,-3.5528,-3.5566,-3.5596,-3.5631,-3.5704,-3.5704,-3.5704,-3.5704,-3.5704,-3.5704,-3.5704,-3.5704,-3.5704,-3.5704,-3.5704,-3.5704,-3.5704,-3.5704,-3.5704,-3.5704,-3.5704,-3.5704,-3.5704,-3.5704,-3.5704,-3.5684,-3.5654,-3.5637,-3.5595,-3.5552,-3.5534,-3.5502,-3.5502,-3.5494,-3.5635,-3.5942,-3.5878,-3.6144,-3.6974,-3.7766,-3.8219,-3.8211,-3.8975,-3.9404,-3.9364,-3.977,-3.9975,-3.9943,-3.9911,-3.99,-3.99,-3.99,-3.99,-3.99,-3.9965,-4.0046,-4.0087,-4.0176,-4.0244,-4.0301,-4.0301,-4.0301,-4.0301,-4.031,-4.0327,-4.0353,-4.0405,-4.0466,-4.0495,-4.1093,-4.1109,-4.1097,-4.1109,-4.1094,-4.1107,-4.1107,-3.8402,-3.6236,-3.5846,-3.5795,-3.5795,-3.5795,-3.5757,-3.5715,-3.5709,-3.5704,-3.5704,-3.5704,-3.5704,-3.5704,-3.5704,-3.5704,-3.5704,-3.5704,-3.5704,-3.5679,-3.5668,-3.5668,-3.5629,-3.55,-3.55,-3.55,-3.55,-3.55,-3.55,-3.55,-3.55,-3.55,-3.55,-3.55,-3.55,-3.55,-3.55,-3.55,-3.55,-3.55,-3.5489,-3.5515,-3.5572,-3.5639,-3.5684,-3.5704,-3.5704,-3.5704,-3.5704,-3.5704,-3.5704,-3.5704,-3.5704,-3.5704,-3.5704,-3.5704,-3.5704,-3.5704,-3.5704,-3.5704,-3.5704,-3.5704,-3.5704,-3.5704,-3.5704,-3.5673,-3.5606,-3.5601,-3.5596,-3.5612,-3.5599,-3.5643,-3.5718,-3.5712,-3.6,-3.675,-3.6819,-3.7105,-3.7778,-3.8629,-3.9126,-3.9126,-3.9805,-4.0206,-4.0196,-4.0087,-4.0007,-3.9996,-3.9943,-3.99,-3.99,-3.99,-3.99,-3.99,-3.9965,-4.0036,-4.0087,-4.0166,-4.0234,-4.0301,-4.0301,-4.0301,-4.031,-4.0308,-4.0334,-4.0415,-4.0485,-4.0495,-4.0496,-4.1093,-4.1109,-4.1106,-4.1097,-4.1103,-4.1107,-4.1107,-4.0467,-3.8961,-3.6176,-3.5795,-3.5795,-3.5795,-3.5797,-3.5757,-3.5695,-3.5704,-3.5704,-3.5704,-3.5704,-3.5704,-3.5704,-3.5704,-3.5704,-3.5704,-3.5704,-3.5659,-3.5547,-3.5547,-3.5534,-3.55,-3.55,-3.55,-3.55,-3.55,-3.55,-3.55,-3.55,-3.55,-3.55,-3.55,-3.55,-3.55,-3.55,-3.55,-3.55,-3.55,-3.5489,-3.5515,-3.5577,-3.5601,-3.5637,-3.5679,-3.5704,-3.5704,-3.5704,-3.5704,-3.5704,-3.5704,-3.5704,-3.5704,-3.5704,-3.5704,-3.5704,-3.5704,-3.5704,-3.5704,-3.5704,-3.5704,-3.5704,-3.5704,-3.5668,-3.5612,-3.5606,-3.5565,-3.5753,-3.6427,-3.6477,-3.6687,-3.7373,-3.7469,-3.7526,-3.77,-3.822,-3.8599,-3.8714,-3.9527,-4.0014,-4.0014,-4.0177,-4.0253,-4.0196,-4.0176,-4.0108,-3.9996,-3.9986,-3.9954,-3.99,-3.99,-3.99,-3.99,-3.9911,-3.9994,-4.0106,-4.0127,-4.0176,-4.0301,-4.0301,-4.0301,-4.031,-4.0308,-4.0334,-4.0415,-4.0485,-4.0495,-4.0496,-4.1114,-4.1109,-4.1109,-4.1109,-4.1091,-4.1107,-4.1107,-4.1107,-3.9831,-3.631,-3.5823,-3.5795,-3.5795,-3.5795,-3.578,-3.5715,-3.5704,-3.5704,-3.5704,-3.5704,-3.5704,-3.5704,-3.5704,-3.5704,-3.5704,-3.5704,-3.5622,-3.55,-3.55,-3.55,-3.55,-3.55,-3.55,-3.55,-3.55,-3.55,-3.55,-3.55,-3.55,-3.55,-3.55,-3.55,-3.55,-3.55,-3.55,-3.55,-3.55,-3.5489,-3.5573,-3.6028,-3.6188,-3.6302,-3.6756,-3.6884,-3.6884,-3.6884,-3.6884,-3.6884,-3.6884,-3.6884,-3.6884,-3.6884,-3.6884,-3.6671,-3.5878,-3.5704,-3.58,-3.6187,-3.6265,-3.6394,-3.6828,-3.6868,-3.6831,-3.6755,-3.6717,-3.6844,-3.7305,-3.7341,-3.7488,-3.795,-3.8007,-3.8146,-3.8493,-3.9251,-3.9682,-3.9623,-4.0034,-4.0301,-4.0301,-4.0301,-4.0272,-4.0253,-4.0225,-4.0157,-4.0057,-4.0026,-3.9965,-3.99,-3.99,-3.99,-3.99,-3.99,-3.9965,-4.0106,-4.0106,-4.0186,-4.0301,-4.0301,-4.0301,-4.0291,-4.0345,-4.037,-4.0415,-4.0471,-4.0492,-4.0496,-4.1115,-4.1109,-4.1109,-4.1109,-4.1091,-4.1107,-4.1107,-4.1107,-4.0058,-3.7175,-3.6218,-3.5795,-3.5795,-3.5795,-3.576,-3.5706,-3.5695,-3.569,-3.5704,-3.5704,-3.5704,-3.5704,-3.5704,-3.5704,-3.5704,-3.5704,-3.5622,-3.55,-3.55,-3.55,-3.55,-3.55,-3.55,-3.55,-3.55,-3.55,-3.55,-3.55,-3.55,-3.55,-3.55,-3.55,-3.55,-3.55,-3.55,-3.5519,-3.5654,-3.5797,-3.6042,-3.6781,-3.7063,-3.7223,-3.7974,-3.8193,-3.8193,-3.8193,-3.8193,-3.8193,-3.8193,-3.8193,-3.8193,-3.8193,-3.8193,-3.7845,-3.6439,-3.6129,-3.6323,-3.698,-3.7116,-3.7336,-3.806,-3.8189,-3.8138,-3.8013,-3.7993,-3.8055,-3.8207,-3.8219,-3.8277,-3.8411,-3.843,-3.867,-3.9254,-3.9985,-4.0372,-4.031,-4.0301,-4.0301,-4.0301,-4.0301,-4.0301,-4.0301,-4.0253,-4.0186,-4.0127,-4.0057,-3.9975,-3.9911,-3.99,-3.99,-3.99,-3.99,-3.9965,-4.0106,-4.0106,-4.0186,-4.0301,-4.0301,-4.0301,-4.031,-4.0372,-4.0407,-4.0415,-4.0476,-4.0496,-4.0496,-4.1094,-4.1109,-4.1109,-4.1109,-4.1091,-4.1107,-4.1107,-4.1107,-4.0932,-4.0467,-3.7716,-3.5795,-3.5795,-3.5795,-3.5769,-3.5698,-3.5707,-3.5692,-3.5709,-3.5704,-3.5704,-3.5704,-3.5704,-3.5704,-3.5704,-3.5704,-3.5622,-3.55,-3.55,-3.55,-3.55,-3.55,-3.55,-3.55,-3.55,-3.55,-3.55,-3.55,-3.55,-3.55,-3.55,-3.55,-3.55,-3.55,-3.55,-3.5596,-3.6288,-3.7026,-3.7683,-3.7867,-3.7932,-3.7964,-3.8136,-3.8193,-3.8193,-3.8193,-3.8193,-3.8193,-3.8193,-3.8193,-3.8193,-3.8193,-3.8193,-3.8135,-3.7903,-3.7864,-3.7883,-3.7999,-3.8019,-3.8052,-3.8176,-3.8151,-3.8093,-3.8007,-3.7998,-3.8265,-3.9015,-3.913,-3.9381,-4.0073,-4.0169,-4.0188,-4.0224,-4.033,-4.0372,-4.031,-4.0301,-4.0301,-4.0301,-4.0301,-4.0301,-4.0301,-4.0301,-4.0253,-4.0186,-4.0127,-4.0057,-3.9986,-3.9922,-3.99,-3.99,-3.99,-3.9965,-4.0106,-4.0106,-4.0186,-4.0301,-4.0301,-4.0301,-4.031,-4.0372,-4.0407,-4.0415,-4.0476,-4.0496,-4.0496,-4.112,-4.1093,-4.1109,-4.1109,-4.1095,-4.1091,-4.1094,-4.1107,-4.1107,-4.1107,-3.8046,-3.5849,-3.5799,-3.5795,-3.5797,-3.5752,-3.5723,-3.5702,-3.5692,-3.5695,-3.5704,-3.5704,-3.5704,-3.5704,-3.5704,-3.5704,-3.5622,-3.55,-3.55,-3.55,-3.55,-3.55,-3.55,-3.55,-3.55,-3.55,-3.55,-3.55,-3.55,-3.55,-3.55,-3.55,-3.5558,-3.6,-3.6173,-3.6269,-3.7123,-3.768,-3.808,-3.8638,-3.8839,-3.8929,-3.9476,-3.9649,-3.9649,-3.9649,-3.9649,-3.9649,-3.9649,-3.9649,-3.9649,-3.9649,-3.9649,-3.9649,-3.9649,-3.9649,-3.9514,-3.903,-3.8902,-3.9013,-3.9464,-3.952,-3.9466,-3.9403,-3.9407,-3.9534,-3.9919,-3.9977,-4.0092,-4.0458,-4.0496,-4.0492,-4.0458,-4.0424,-4.0362,-4.0318,-4.0301,-4.0301,-4.0301,-4.0301,-4.0301,-4.0301,-4.0301,-4.0263,-4.0196,-4.0176,-4.0098,-3.9996,-3.9965,-3.9933,-3.99,-3.99,-3.9965,-4.0106,-4.0106,-4.0186,-4.0301,-4.0301,-4.0301,-4.031,-4.0372,-4.0729,-4.1182,-4.1223,-4.1527,-4.195]},{"header":{"parameterUnit":"m.s-1","parameterCategory":1,"la1":30.6,"la2":28.766,"lo1":-90.7593,"lo2":-88.6598,"dy":0.0162,"dx":0.0183,"nx":116,"ny":114,"refTime":"2023-06-18T18:00:00:Z","depth":0,"parameterNumber":3,"parameterNumberName":"V-component_of_WINDS"},"data":[0.0,0.0,0.0,0.0,0.0,0.0,0.0,0.0,0.0,0.0,0.0,0.0,0.0,0.0,0.0,0.0,0.0,0.0,0.0,0.0,0.0,0.0,0.0,0.0,0.0,0.0,0.0,0.0,0.0,0.0,0.0,0.0,0.0,0.0,0.0,0.0,0.0,0.0,0.0,0.0,0.0,0.0,0.0,0.0,0.0,0.0,0.0,0.0,0.0,0.0,0.0,0.0,0.0,0.0,0.0,0.0,0.0,0.0,0.0,0.0,0.0,0.0,0.0,0.0,0.0,0.0,0.0,0.0,0.0,0.0,0.0,0.0,0.0,0.0,0.0,0.0,0.0,0.0,0.0,0.0,0.0,0.0,0.0,0.0,0.0,0.0,0.0,0.0,0.0,0.0,0.0,0.0,0.0,0.0,0.0,0.0,0.0,0.0,0.0,0.0,0.0,0.0,0.0,0.0,0.0,0.0,0.0,0.0,0.0,0.0,0.0,0.0,0.0,0.0,0.0,0.0,0.0,0.0,0.0,0.0,0.0,0.0,0.0,0.0,0.0,0.0,0.0,0.0,0.0,0.0,0.0,0.0,0.0,0.0,0.0,0.0,0.0,0.0,0.0,0.0,0.0,0.0,0.0,0.0,0.0,0.0,0.0,0.0,0.0,0.0,0.0,0.0,0.0,0.0,0.0,0.0,0.0,0.0,0.0,0.0,0.0,0.0,0.0,0.0,0.0,0.0,0.0,0.0,0.0,0.0,0.0,0.0,0.0,0.0,0.0,0.0,0.0,0.0,0.0,0.0,0.0,0.0,0.0,0.0,0.0,0.0,0.0,0.0,0.0,0.0,0.0,0.0,0.0,0.0,0.0,0.0,0.0,0.0,0.0,0.0,0.0,0.0,0.0,0.0,0.0,0.0,0.0,0.0,0.0,0.0,0.0,0.0,0.0,0.0,0.0,0.0,0.0,0.0,0.0,0.0,0.0,0.0,0.0,0.0,0.0,0.0,0.0,0.0,0.0,0.0,0.0,0.0,0.0,0.0,0.0,0.0,0.0,0.0,0.0,0.0,0.0,0.0,0.0,0.0,0.0,0.0,0.0,0.0,0.0,0.0,0.0,0.0,0.0,0.0,0.0,0.0,0.0,0.0,0.0,0.0,0.0,0.0,0.0,0.0,0.0,0.0,0.0,0.0,0.0,0.0,0.0,0.0,0.0,0.0,0.0,0.0,0.0,0.0,0.0,0.0,0.0,0.0,0.0,0.0,0.0,0.0,0.0,0.0,0.0,0.0,0.0,0.0,0.0,0.0,0.0,0.0,0.0,0.0,0.0,0.0,0.0,0.0,0.0,0.0,0.0,0.0,0.0,0.0,0.0,0.0,0.0,0.0,0.0,0.0,0.0,0.0,0.0,0.0,0.0,0.0,0.0,0.0,0.0,0.0,0.0,0.0,0.0,0.0,0.0,0.0,0.0,0.0,0.0,0.0,0.0,0.0,0.0,0.0,0.0,0.0,0.0,0.0,0.0,0.0,0.0,0.0,0.0,0.0,0.0,0.0,0.0,0.0,0.0,0.0,0.0,0.0,0.0,0.0,0.0,0.0,0.0,0.0,0.0,0.0,0.0,0.0,0.0,0.0,0.0,0.0,0.0,0.0,0.0,0.0,0.0,0.0,0.0,0.0,0.0,0.0,0.0,0.0,0.0,0.0,0.0,0.0,0.0,0.0,0.0,0.0,0.0,0.0,0.0,0.0,0.0,0.0,0.0,0.0,0.0,0.0,0.0,0.0,0.0,0.0,0.0,0.0,0.0,0.0,0.0,0.0,0.0,0.0,0.0,0.0,0.0,0.0,0.0,0.0,0.0,0.0,0.0,0.0,0.0,0.0,0.0,0.0,0.0,0.0,0.0,0.0,0.0,0.0,0.0,0.0,0.0,0.0,0.0,0.0,0.0,0.0,0.0,0.0,0.0,0.0,0.0,0.0,0.0,0.0,0.0,0.0,0.0,0.0,0.0,0.0,0.0,0.0,0.0,0.0,0.0,0.0,0.0,0.0,0.0,0.0,0.0,0.0,0.0,0.0,0.0,0.0,0.0,0.0,0.0,0.0,0.0,0.0,0.0,0.0,0.0,0.0,0.0,0.0,0.0,0.0,0.0,0.0,0.0,0.0,0.0,0.0,0.0,0.0,0.0,0.0,0.0,0.0,0.0,0.0,0.0,0.0,0.0,0.0,0.0,0.0,0.0,0.0,0.0,0.0,0.0,0.0,0.0,0.0,0.0,0.0,0.0,0.0,0.0,0.0,0.0,0.0,0.0,0.0,0.0,0.0,0.0,0.0,0.0,0.0,0.0,0.0,0.0,0.0,0.0,0.0,0.0,0.0,0.0,0.0,0.0,0.0,0.0,0.0,0.0,0.0,0.0,0.0,0.0,0.0,0.0,0.0,0.0,0.0,0.0,0.0,0.0,0.0,0.0,0.0,0.0,0.0,0.0,0.0,0.0,0.0,0.0,0.0,0.0,0.0,0.0,0.0,0.0,0.0,0.0,0.0,0.0,0.0,0.0,0.0,0.0,0.0,0.0,0.0,0.0,0.0,0.0,0.0,0.0,0.0,0.0,0.0,0.0,0.0,0.0,0.0,0.0,0.0,0.0,0.0,0.0,0.0,0.0,0.0,0.0,0.0,0.0,0.0,0.0,0.0,0.0,0.0,0.0,0.0,0.0,0.0,0.0,0.0,0.0,0.0,0.0,0.0,0.0,0.0,0.0,0.0,0.0,0.0,0.0,0.0,0.0,0.0,0.0,0.0,0.0,0.0,0.0,0.0,0.0,0.0,0.0,0.0,0.0,0.0,0.0,0.0,0.0,0.0,0.0,0.0,0.0,0.0,0.0,0.0,0.0,0.0,0.0,0.0,0.0,0.0,0.0,0.0,0.0,0.0,0.0,0.0,0.0,0.0,0.0,0.0,0.0,0.0,0.0,0.0,0.0,0.0,0.0,0.0,0.0,0.0,0.0,0.0,0.0,0.0,0.0,0.0,0.0,0.0,0.0,0.0,0.0,0.0,0.0,0.0,0.0,0.0,0.0,0.0,0.0,0.0,0.0,0.0,0.0,0.0,0.0,0.0,0.0,0.0,0.0,0.0,0.0,0.0,0.0,0.0,0.0,0.0,0.0,0.0,0.0,0.0,0.0,0.0,0.0,0.0,0.0,0.0,0.0,0.0,0.0,0.0,0.0,0.0,0.0,0.0,0.0,0.0,0.0,0.0,0.0,0.0,0.0,0.0,0.0,0.0,0.0,0.0,0.0,0.0,0.0,0.0,0.0,0.0,0.0,0.0,0.0,0.0,0.0,0.0,0.0,0.0,0.0,0.0,0.0,0.0,0.0,0.0,0.0,0.0,0.0,0.0,0.0,0.0,0.0,0.0,0.0,0.0,0.0,0.0,0.0,0.0,0.0,0.0,0.0,0.0,0.0,0.0,0.0,0.0,0.0,0.0,0.0,0.0,0.0,0.0,0.0,0.0,0.0,0.0,0.0,0.0,0.0,0.0,0.0,0.0,0.0,0.0,0.0,0.0,0.0,0.0,0.0,0.0,0.0,0.0,0.0,0.0,0.0,0.0,0.0,0.0,0.0,0.0,0.0,0.0,0.0,0.0,0.0,0.0,0.0,0.0,0.0,0.0,0.0,0.0,0.0,0.0,0.0,0.0,0.0,0.0,0.0,0.0,0.0,0.0,0.0,0.0,0.0,0.0,0.0,0.0,0.0,0.0,0.0,0.0,0.0,0.0,0.0,0.0,0.0,0.0,0.0,0.0,0.0,0.0,0.0,0.0,0.0,0.0,0.0,0.0,0.0,0.0,0.0,0.0,0.0,0.0,0.0,0.0,0.0,0.0,0.0,0.0,0.0,0.0,0.0,0.0,0.0,0.0,0.0,0.0,0.0,0.0,0.0,0.0,0.0,0.0,0.0,0.0,0.0,0.0,0.0,0.0,0.0,0.0,0.0,0.0,0.0,0.0,0.0,0.0,0.0,0.0,0.0,0.0,0.0,0.0,0.0,0.0,0.0,0.0,0.0,0.0,0.0,0.0,0.0,0.0,0.0,0.0,0.0,0.0,0.0,0.0,0.0,0.0,0.0,0.0,0.0,0.0,0.0,0.0,0.0,0.0,0.0,0.0,0.0,0.0,0.0,0.0,0.0,0.0,0.0,0.0,0.0,0.0,0.0,0.0,0.0,0.0,0.0,0.0,0.0,0.0,0.0,0.0,0.0,0.0,0.0,0.0,0.0,0.0,0.0,0.0,0.0,0.0,0.0,0.0,0.0,0.0,0.0,0.0,0.0,0.0,0.0,0.0,0.0,0.0,0.0,0.0,0.0,0.0,0.0,0.0,0.0,0.0,0.0,0.0,0.0,0.0,0.0,0.0,0.0,0.0,0.0,0.0,0.0,0.0,0.0,0.0,0.0,0.0,0.0,0.0,0.0,0.0,0.0,0.0,0.0,0.0,0.0,0.0,0.0,0.0,0.0,0.0,0.0,0.0,0.0,0.0,0.0,0.0,0.0,0.0,0.0,0.0,0.0,0.0,0.0,0.0,0.0,0.0,0.0,0.0,0.0,0.0,0.0,0.0,0.0,0.0,0.0,0.0,0.0,0.0,0.0,0.0,0.0,0.0,0.0,0.0,0.0,0.0,0.0,0.0,0.0,0.0,0.0,0.0,0.0,0.0,0.0,0.0,0.0,0.0,0.0,0.0,0.0,0.0,0.0,0.0,0.0,0.0,0.0,0.0,0.0,0.0,0.0,0.0,0.0,0.0,0.0,0.0,0.0,0.0,0.0,0.0,0.0,0.0,0.0,0.0,0.0,0.0,0.0,0.0,0.0,0.0,0.0,0.0,0.0,0.0,0.0,0.0,0.0,0.0,0.0,0.0,0.0,0.0,0.0,0.0,0.0,0.0,0.0,0.0,0.0,0.0,0.0,0.0,0.0,0.0,0.0,0.0,0.0,0.0,0.0,0.0,0.0,0.0,0.0,0.0,0.0,0.0,0.0,0.0,0.0,0.0,0.0,0.0,0.0,0.0,0.0,0.0,0.0,0.0,0.0,0.0,0.0,0.0,0.0,0.0,0.0,0.0,0.0,0.0,0.0,0.0,0.0,0.0,0.0,0.0,0.0,0.0,0.0,0.0,0.0,0.0,0.0,0.0,0.0,0.0,0.0,0.0,0.0,0.0,0.0,0.0,0.0,0.0,0.0,0.0,0.0,0.0,0.0,0.0,0.0,0.0,0.0,0.0,0.0,0.0,0.0,0.0,0.0,0.0,0.0,0.0,0.0,0.0,0.0,0.0,0.0,0.0,0.0,0.0,0.0,0.0,0.0,0.0,0.0,0.0,0.0,0.0,0.0,0.0,0.0,0.0,0.0,0.0,0.0,0.0,0.0,0.0,0.0,0.0,0.0,0.0,0.0,0.0,0.0,0.0,0.0,0.0,0.0,0.0,0.0,0.0,0.0,0.0,0.0,0.0,0.0,0.0,0.0,0.0,0.0,0.0,0.0,0.0,0.0,0.0,0.0,0.0,0.0,0.0,0.0,0.0,0.0,0.0,0.0,0.0,0.0,0.0,0.0,0.0,0.0,0.0,0.0,0.0,0.0,0.0,0.0,0.0,0.0,0.0,0.0,0.0,0.0,0.0,0.0,0.0,0.0,0.0,0.0,0.0,0.0,0.0,0.0,0.0,0.0,0.0,0.0,0.0,0.0,0.0,0.0,0.0,0.0,0.0,0.0,0.0,0.0,0.0,0.0,0.0,0.0,0.0,0.0,0.0,0.0,0.0,0.0,0.0,0.0,0.0,0.0,0.0,0.0,0.0,0.0,0.0,0.0,0.0,0.0,0.0,0.0,0.0,0.0,0.0,0.0,0.0,0.0,0.0,0.0,0.0,0.0,0.0,0.0,0.0,0.0,0.0,0.0,0.0,0.0,0.0,0.0,0.0,0.0,0.0,0.0,0.0,0.0,0.0,0.0,0.0,0.0,0.0,0.0,0.0,0.0,0.0,0.0,0.0,0.0,0.0,0.0,0.0,0.0,0.0,0.0,0.0,0.0,0.0,0.0,0.0,-0.2344,0.0,0.0,0.0,0.0,0.0,0.0,0.0,0.0,0.0,0.0,0.0,0.0,0.0,0.0,0.0,0.0,0.0,0.0,0.0,0.0,0.0,0.0,0.0,0.0,0.0,0.0,0.0,0.0,0.0,0.0,0.0,0.0,0.0,0.0,0.0,0.0,0.0,0.0,0.0,0.0,0.0,0.0,0.0,0.0,0.0,0.0,0.0,0.0,0.0,0.0,0.0,0.0,0.0,0.0,0.0,0.0,0.0,0.0,0.0,0.0,0.0,0.0,0.0,0.0,0.0,0.0,0.0,0.0,0.0,0.0,0.0,0.0,0.0,0.0,0.0,0.0,0.0,0.0,0.0,0.0,0.0,0.0,0.0,0.0,0.0,0.0,0.0,0.0,0.0,0.0,0.0,0.0,0.0,0.0,0.0,0.0,0.0,0.0,0.0,0.0,0.0,0.0,0.0,0.0,0.0,0.0,0.0,0.0,0.0,0.0,0.0,0.0,0.0,0.0,0.0,0.0,-0.2382,0.0,0.0,0.0,0.0,0.0,0.0,0.0,0.0,0.0,0.0,0.0,0.0,0.0,0.0,0.0,0.0,0.0,0.0,0.0,0.0,0.0,0.0,0.0,0.0,0.0,0.0,0.0,0.0,0.0,0.0,0.0,0.0,0.0,0.0,0.0,0.0,0.0,0.0,0.0,0.0,0.0,0.0,0.0,0.0,0.0,0.0,0.0,0.0,0.0,0.0,0.0,0.0,0.0,0.0,0.0,0.0,0.0,0.0,0.0,0.0,0.0,0.0,0.0,0.0,0.0,0.0,0.0,0.0,0.0,0.0,0.0,0.0,0.0,0.0,0.0,0.0,0.0,0.0,0.0,0.0,0.0,0.0,0.0,0.0,0.0,0.0,0.0,0.0,0.0,0.0,0.0,0.0,0.0,0.0,0.0,0.0,0.0,0.0,0.0,0.0,0.0,0.0,0.0,0.0,0.0,0.0,0.0,0.0,-0.0701,-0.0886,-0.0969,-0.1419,-0.1627,-0.1654,-0.2035,-0.2309,-0.2465,-0.2494,0.0,0.0,0.0,0.0,0.0,0.0,0.0,0.0,0.0,0.0,0.0,0.0,0.0,0.0,0.0,0.0,0.0,0.0,0.0,0.0,0.0,0.0,0.0,0.0,0.0,0.0,0.0,0.0,0.0,0.0,0.0,0.0,0.0,0.0,0.0,0.0,0.0,1.4669,1.5415,1.5499,1.5663,1.5832,1.3965,0.0,0.0,0.0,0.0,0.0,0.0,0.0,0.0,0.0,0.0,0.0,0.0,0.0,0.0,0.0,0.0,0.0,0.0,0.0,0.0,0.0,0.0,0.0,0.0,0.0,0.0,0.0,0.0,0.0,0.0,0.0,0.0,0.0,0.0,0.0,0.0,0.0,0.0,0.0,0.0,0.0,0.0,0.0,0.4057,0.4223,0.0,0.0,0.0,0.0,0.0,0.0,0.0,0.0,0.0,0.0,0.0,0.0,0.0,0.0642,0.0473,0.0195,-0.0068,-0.0321,-0.0464,-0.0661,-0.0847,-0.1118,-0.131,-0.1463,-0.175,0.0,-0.2336,-0.2502,0.0,0.0,0.0,0.0,0.0,0.0,0.0,0.0,0.0,0.0,0.0,0.0,0.0,0.0,0.0,0.0,0.0,0.0,0.0,0.0,0.0,0.0,0.0,0.0,0.0,0.0,0.0,0.0,0.0,0.0,0.0,0.0,0.0,0.0,0.0,0.0,1.5388,1.6187,1.6823,1.7205,1.7468,1.7606,1.6587,1.5531,1.4428,1.3346,0.0,0.0,0.0,0.0,0.0,0.0,0.0,0.0,0.0,0.0,0.0,0.0,0.0,0.0,0.0,0.0,0.0,0.0,0.0,0.0,0.0,0.0,0.0,0.0,0.0,0.0,0.0,0.0,0.0,0.0,0.0,0.0,0.0,0.0,0.0,0.0,0.0,0.0,0.0,0.3952,0.4055,0.4074,0.3771,0.3481,0.0,0.0,0.0,0.0,0.0,0.0,0.0,0.0,0.0,0.1106,0.0938,0.0758,0.0567,0.0364,0.0151,-0.0119,-0.0317,-0.0447,-0.051,-0.0763,-0.0891,-0.0976,-0.1188,-0.1369,-0.1551,-0.196,-0.2108,-0.2006,0.0,0.0,0.0,0.0,-0.1123,-0.0873,0.0,0.0,0.0,0.0,0.0,0.0,0.0,0.0,0.0,0.0,0.0,0.0,0.0,0.0,0.0,1.0986,0.0,0.0,0.0,0.0,0.0,0.0,0.0,0.0,0.0,0.0,0.0,1.5798,1.6856,1.7679,1.8311,1.8968,1.9293,1.9287,1.9003,1.7823,1.5955,1.5003,1.3934,0.0,0.0,0.0,0.0,0.0,0.0,0.0,0.0,0.0,0.0,0.0,0.0,0.0,0.0,0.0,0.0,0.0,0.0,0.0,0.0,0.0,0.0,0.0,0.0,0.0,0.0,0.0,0.0,0.0,0.0,0.0,0.0,0.0,0.0,0.0,0.0,0.0,0.0,0.4038,0.4056,0.3885,0.3617,0.3382,0.0,0.0,0.0,0.0,0.0,0.0,0.1354,0.132,0.127,0.1166,0.1047,0.092,0.0747,0.0563,0.0332,0.0086,-0.0129,-0.022,-0.0228,-0.0456,-0.0547,-0.0547,-0.0775,-0.0866,-0.0906,-0.1463,-0.1615,-0.1552,-0.1505,-0.1315,-0.1087,-0.0982,-0.0771,-0.0456,0.0,0.0,0.0,0.0,0.0,0.0,0.0,0.0,0.0,0.0,0.0,0.0,0.0,0.0,1.2234,1.2299,1.3469,1.4233,0.0,0.0,0.0,0.0,0.0,0.0,0.0,0.0,1.6322,1.6363,1.8253,1.9505,2.017,2.0793,2.1289,2.1693,2.1039,1.9715,1.7852,1.6351,1.5591,1.518,0.0,0.0,0.0,0.0,0.0,0.0,0.0,0.0,0.0,0.0,0.0,0.0,0.0,0.0,0.0,0.0,0.0,0.0,0.0,0.0,0.0,0.0,0.0,0.0,0.0,0.0,0.0,0.0,0.0,0.0,0.0,0.0,0.0,0.0,0.0,0.0,0.0,0.0,0.0,0.3822,0.3685,0.0,0.0,0.0,0.0,0.2098,0.1736,0.1472,0.1407,0.1413,0.1351,0.1291,0.1282,0.1226,0.1081,0.0794,0.0586,0.0368,0.0092,0.0,-0.0048,-0.0285,-0.0428,-0.0428,-0.0618,-0.0713,-0.0757,-0.1155,-0.1279,-0.1208,-0.102,-0.0877,-0.078,-0.039,-0.0117,0.0078,0.0,0.0,0.0,0.0,0.0,0.0,0.0,0.0,0.0,0.0,0.0,0.0,0.0,1.2241,1.3012,1.3447,1.3941,1.4232,1.424,0.0,0.0,0.0,0.0,0.0,0.0,0.0,1.7469,1.8661,1.9345,2.0172,2.1141,2.1344,2.1484,2.151,2.1253,2.068,1.9738,1.8145,1.689,1.5854,1.4357,1.3374,0.0,0.0,0.0,0.0,0.0,0.0,0.0,0.0,0.0,0.0,0.0,0.0,0.0,0.0,0.0,0.0,0.0,0.0,0.0,0.0,0.0,0.0,0.0,0.0,0.0,0.0,0.0,0.0,0.0,0.0,0.0,0.0,0.0,0.0,0.0,0.0,0.0,0.3459,0.328,0.0,0.2666,0.2372,0.2051,0.1742,0.1588,0.1448,0.136,0.1324,0.1366,0.1414,0.1249,0.1085,0.0924,0.066,0.0384,0.0147,0.005,0.0,0.0,-0.0103,-0.0154,-0.0154,-0.0205,-0.0257,-0.0256,-0.0397,-0.0614,-0.085,-0.0799,-0.0524,-0.0214,-0.0043,0.0214,0.06,0.0,0.0,0.0,0.0,0.0,0.0,0.0,0.0,0.0,0.0,0.0,1.0536,1.2095,1.2906,1.3612,1.4263,1.4534,1.4671,1.4671,0.0,0.0,0.0,1.5179,0.0,0.0,1.7606,1.8611,2.007,2.0449,2.1129,2.2082,2.222,2.2292,2.2316,2.2055,2.1643,2.1075,1.9695,1.8251,1.6807,1.5606,1.4611,1.363,0.0,0.0,0.0,0.0,0.0,0.0,0.0,0.0,0.0,0.0,0.0,0.0,0.0,0.0,0.0,0.0,0.0,0.0,0.0,0.0,0.0,0.0,0.0,0.0,0.0,0.0,0.0,0.0,0.0,0.0,0.0,0.0,0.0,0.0,0.0,0.3539,0.318,0.2982,0.275,0.2459,0.2176,0.1882,0.1586,0.1493,0.1411,0.1259,0.1219,0.1251,0.1226,0.1093,0.0915,0.0786,0.055,0.0305,0.0154,0.0052,0.0,0.0,0.0,0.0,0.0,0.0,0.0,0.0,0.0105,-0.0051,-0.034,-0.0336,-0.0047,0.037,0.0463,0.0737,0.1145,0.0,0.0,0.0,0.0,0.0,0.0,0.0,0.0,0.0,0.0,0.98,1.0569,1.2608,1.3396,1.4038,1.4653,1.5367,1.5799,1.5814,1.5143,0.0,0.0,0.0,0.0,1.8597,1.9223,1.983,2.0455,2.1568,2.2396,2.3029,2.3414,2.3855,2.4316,2.348,2.2644,2.1803,2.0906,1.9669,1.8157,1.6233,1.4894,1.3987,0.0,0.0,0.0,0.0,0.0,0.0,0.0,0.0,0.0,0.0,0.0,0.0,0.0,0.0,0.0,0.0,0.0,0.0,0.0,0.0,0.0,0.0,0.0,0.0,0.0,0.0,0.0,0.0,0.0,0.0,0.0,0.0,0.0,0.3369,0.3508,0.3434,0.3011,0.2764,0.2553,0.2473,0.196,0.1623,0.1693,0.1481,0.1287,0.1111,0.1114,0.0993,0.0688,0.0752,0.0766,0.0779,0.0529,0.0374,0.0374,0.0107,0.0,0.0,0.0,0.0,0.0,0.0,0.0,0.0,0.0267,0.0428,0.0426,0.0411,0.06,0.0935,0.1132,0.1362,0.1675,0.0,0.0,0.0,0.0,0.0,0.0,0.0,0.0,0.0,0.0,0.9649,1.0572,1.2958,1.3396,1.3953,1.5038,1.5316,1.5623,1.606,0.0,0.0,0.0,0.0,0.0,1.8799,1.9785,2.0782,2.1783,2.1962,2.2531,2.3505,2.3523,2.3502,2.3461,2.3205,2.2527,2.1504,2.0848,1.9854,1.8608,1.7188,1.6225,1.5411,0.0,0.0,0.0,0.0,0.0,0.0,0.0,0.0,0.0,0.0,0.0,0.0,0.0,0.0,0.0,0.0,0.0,0.0,0.0,0.0,0.0,0.0,0.0,0.0,0.0,0.0,0.0,0.0,0.0,0.0,0.0,0.0,0.2855,0.3128,0.3031,0.287,0.26,0.2432,0.2192,0.1957,0.1801,0.1619,0.1273,0.1199,0.1089,0.0886,0.0888,0.0854,0.0782,0.0577,0.0527,0.0529,0.027,0.0109,0.0109,0.0056,0.0,0.0,0.0,0.0,0.0,0.0,0.0,0.0,0.0283,0.0564,0.0785,0.075,0.0943,0.1198,0.1251,0.1714,0.2376,0.0,0.0,0.0,0.0,0.0,0.0,0.0,0.0,0.0,0.0,0.9428,1.0388,1.2922,1.3182,1.3697,1.4972,1.5314,1.5629,1.597,0.0,0.0,0.0,1.8498,1.9236,1.9703,2.0545,2.1411,2.2252,2.2341,2.2795,2.358,2.342,2.3325,2.3291,2.2943,2.2313,2.1475,2.0583,1.9668,1.8679,1.7601,1.6712,1.5844,1.4335,1.3485,1.2925,1.1719,1.0952,1.0461,0.9864,0.0,0.0,0.0,0.0,0.0,0.0,0.0,0.0,0.0,0.0,0.0,0.0,0.0,0.0,0.0,0.0,0.0,0.0,0.0,0.0,0.0,0.0,0.0,0.0,0.2202,0.2247,0.2299,0.2398,0.2447,0.2274,0.2016,0.1812,0.1625,0.1443,0.1238,0.1008,0.0978,0.0852,0.0619,0.062,0.0576,0.0485,0.0324,0.0217,0.022,0.0056,0.0,0.0,0.0,0.0,0.0,0.0,0.0,0.0,0.0,0.0,0.0059,0.0466,0.0697,0.0,0.0,0.0,0.0,0.0,0.2184,0.2661,0.0,0.0,0.0,0.0,0.0,0.0,0.0,0.0,0.0,0.0,0.0,1.0087,1.2494,1.2801,1.3347,1.4537,1.5193,1.5613,0.0,0.0,0.0,1.821,1.89,1.9726,2.0667,2.1213,2.1704,2.2185,2.2604,2.3001,2.3358,2.3134,2.3177,2.3403,2.2581,2.1967,2.1467,2.0165,1.9215,1.8441,1.7512,1.6596,1.5697,1.4933,1.4176,1.3386,1.2413,1.1622,1.0884,0.999,0.0,0.0,0.0,0.0,0.0,0.0,0.0,0.0,0.0,0.0,0.0,0.0,0.0,0.0,0.0,0.0,0.0,0.0,0.0,0.0,0.0,0.0,0.0,0.0,0.1498,0.145,0.1094,0.1577,0.1952,0.1973,0.1608,0.1362,0.1437,0.0977,0.0747,0.0762,0.0774,0.063,0.0374,0.0,0.0,0.0,0.0,0.0,-0.0058,-0.0058,-0.0058,-0.0118,-0.0059,-0.0059,-0.0059,0.0,0.0,0.0,0.0,0.0,0.0059,0.065,0.0944,0.1058,0.1256,0.1563,0.1866,0.2432,0.2632,0.268,0.0,0.0,0.0,0.0,0.0,0.0,0.0,0.0,0.0,0.8742,0.896,0.9695,1.1651,1.2293,1.2882,1.3609,1.4221,1.4987,0.0,0.0,1.8341,1.8442,1.9288,1.9807,1.9914,2.0805,2.1485,2.1949,2.2212,2.2616,2.3132,2.2715,2.2463,2.2378,2.1913,2.1301,2.0502,1.9664,1.8814,1.7932,1.6732,1.6214,1.6051,1.4852,1.4086,1.3503,1.229,1.1516,1.0999,1.0431,0.9636,0.8729,0.7919,0.0,0.0,0.0,0.0,0.0,0.0,0.0,0.0,0.0,0.0,0.0,0.0,0.0,0.0,0.0,0.0,0.0,0.0,0.0,0.0,0.0768,0.0695,0.0602,0.0221,0.0324,0.0615,0.1154,0.1045,0.0929,0.0948,0.0864,0.0673,0.0475,0.0477,0.0374,0.0109,0.0055,0.0056,0.0,0.0,-0.0117,-0.041,-0.041,-0.0528,-0.0825,0.0,0.0,-0.0421,-0.0122,0.0,0.0,0.0,0.0,0.0061,0.0664,0.1192,0.1708,0.1755,0.1791,0.1879,0.2441,0.2699,0.2773,0.0,0.0,0.0,0.0,0.0,0.0,0.0,0.0,0.0,0.0,0.8555,0.9335,1.0827,1.1509,1.2203,1.3056,1.4226,0.0,0.0,1.7418,1.821,1.8396,1.9031,1.9606,2.0055,2.0734,2.1262,2.1584,2.197,2.2122,2.2082,2.1865,2.1522,2.1101,2.0921,2.0403,1.9628,1.8817,1.8061,1.7344,1.6171,1.5624,1.5396,1.4355,1.3726,1.3312,1.2243,1.1394,1.0727,1.0223,0.9406,0.846,0.769,0.6922,0.615,0.0,0.0,0.0,0.0,0.0,0.0,0.0,0.0,0.0,0.0,0.0,0.0,0.0,0.0,0.0703,0.0,0.0,0.0349,0.0083,0.0043,-0.009,-0.042,-0.0437,-0.0148,0.0631,0.0546,0.0458,0.057,0.0475,0.0321,0.0216,0.0218,0.0165,0.0,-0.017,-0.0229,-0.0233,-0.0411,-0.0591,-0.0775,-0.0775,-0.0838,-0.1026,-0.0851,-0.0732,-0.0733,-0.0431,-0.0247,-0.0247,-0.0062,0.0,0.0062,0.0674,0.1276,0.169,0.1871,0.1903,0.192,0.2481,0.2689,0.2778,0.0,0.0,0.0,0.0,0.0,0.0,0.0,0.0,0.0,0.0,0.8086,0.8833,1.0025,1.0651,1.1471,0.0,0.0,0.0,0.0,1.6893,1.7679,1.8105,1.851,1.9116,1.9942,2.0463,2.0779,2.0842,2.1415,2.1385,2.0805,2.0741,2.0387,1.9802,1.9737,1.9323,1.8604,1.7692,1.7038,1.6515,1.5445,1.4795,1.4341,1.35,1.311,1.2891,1.1955,1.1053,1.023,0.9699,0.8846,0.7911,0.7279,0.656,0.5873,0.5218,0.4603,0.0,0.0,0.0,0.0,0.0,0.0,0.0,0.0,0.0,0.0445,0.0326,0.0069,-0.0145,-0.0151,-0.0274,-0.0411,-0.0665,-0.0677,-0.0786,-0.1072,-0.1151,-0.0915,-0.0102,-0.0103,-0.0105,0.0107,-0.0054,-0.0164,-0.0165,-0.0168,-0.017,-0.0172,-0.0463,-0.0584,-0.0592,-0.0831,-0.1017,-0.1091,-0.1091,-0.1159,-0.1173,-0.1111,-0.1111,-0.1111,-0.0741,-0.0556,-0.0494,-0.0123,0.0062,0.0123,0.0679,0.1112,0.1544,0.1791,0.1886,0.1959,0.2454,0.2661,0.2756,0.0,0.0,0.0,0.0,0.0,0.0,0.0,0.0,0.0,0.0,0.0,0.0,0.0,0.0,0.0,0.0,0.0,0.0,1.4817,1.5827,1.6704,1.746,1.7905,1.8187,1.8352,1.9298,1.9554,1.9164,1.9933,2.0117,1.9759,1.9452,1.9088,1.8677,1.8365,1.7811,1.7091,1.6284,1.5618,1.5053,1.41,1.3593,1.3326,1.2159,1.1981,1.2144,1.0999,1.0195,0.9607,0.9089,0.8236,0.7296,0.6752,0.5957,0.5115,0.4553,0.0,0.3483,0.2923,0.2239,0.1561,0.0982,0.0685,0.0429,0.0,0.0,-0.038,-0.0763,-0.0886,-0.101,-0.1134,-0.1195,-0.1344,-0.1696,-0.1712,-0.1863,-0.2199,-0.2276,-0.2132,-0.1533,-0.1062,-0.0803,-0.0762,-0.0764,-0.0825,-0.0782,-0.0795,-0.0803,-0.0805,-0.0886,-0.0961,-0.0963,-0.0976,-0.1168,-0.1417,-0.1417,-0.1603,-0.1915,-0.1606,-0.142,-0.142,-0.1111,-0.0803,-0.0494,-0.0123,0.0185,0.0432,0.0556,0.0926,0.1482,0.1544,0.1726,0.2024,0.2352,0.2534,0.2761,0.0,0.0,0.0,0.0,0.0,0.0,0.0,0.0,0.0,0.0,0.0,0.0,0.0,0.0,0.0,0.0,0.0,0.0,1.4177,1.5202,1.6099,1.6789,1.7196,1.7603,1.8025,1.8373,1.8452,1.826,1.8511,1.8406,1.7949,1.7638,1.7282,1.6923,1.6586,1.6154,1.562,1.4871,1.4268,1.3773,1.2964,1.237,1.1901,1.0943,1.0448,1.0221,0.9854,0.9354,0.0,0.0,0.7423,0.6644,0.5908,0.5165,0.4469,0.3833,0.3224,0.0,0.1838,0.1157,0.0,0.0,-0.013,-0.0503,-0.0758,-0.1083,-0.1423,-0.1686,-0.1925,-0.2094,-0.2161,-0.224,-0.237,0.0,-0.2475,-0.2489,-0.2635,-0.2575,-0.2483,-0.2235,-0.2062,-0.1653,-0.0942,-0.0888,-0.0835,-0.0728,-0.0734,-0.086,-0.1118,-0.1133,-0.1208,-0.1284,-0.166,-0.1913,-0.2098,-0.2283,-0.2469,-0.2592,-0.2469,-0.2283,-0.2099,-0.1743,-0.1194,-0.0507,-0.038,-0.0126,0.025,0.0438,0.0685,0.0926,0.1359,0.1606,0.1788,0.2243,0.2451,0.2594,0.0,0.0,0.0,0.0,0.0,0.0,0.0,0.0,0.0,0.0,0.0,0.0,0.0,0.0,0.0,0.0,0.0,0.0,0.0,1.429,1.5131,1.5715,1.6099,1.6606,1.7216,1.7175,1.7165,1.7154,1.71,1.6815,1.6237,1.6004,1.5661,1.521,1.4974,1.4555,1.4023,1.3501,1.2957,1.2402,1.1772,1.1169,1.0578,0.9731,0.9025,0.8475,0.8665,0.8388,0.0,0.0,0.647,0.5842,0.4999,0.4342,0.3722,0.306,0.2304,0.1504,0.0753,0.0,0.0,-0.0656,-0.1029,-0.1457,-0.1794,-0.2135,-0.2477,-0.2758,-0.3013,-0.3195,-0.3202,-0.3238,-0.3292,-0.3315,-0.3195,-0.311,-0.3119,-0.3073,-0.2983,-0.2823,-0.2912,-0.2524,-0.1514,-0.1346,-0.1234,-0.1121,-0.1018,-0.1155,-0.1613,-0.1686,-0.1763,-0.1913,-0.2406,-0.2652,-0.2652,-0.29,-0.3029,-0.3042,-0.3042,-0.2924,-0.2624,-0.221,-0.1597,-0.0775,-0.071,-0.0449,-0.0127,0.0127,0.0314,0.0559,0.1051,0.1297,0.1418,0.195,0.2238,0.2462,0.0,0.0,0.0,0.0,0.0,0.0,0.0,0.0,0.0,0.0,0.0,0.0,0.0,0.0,0.0,0.0,0.0,0.0,0.0,1.276,1.3509,1.4048,1.4394,1.48,1.5275,1.5463,1.5546,1.5472,1.5741,1.5519,1.4854,1.4861,1.4452,1.376,1.376,1.3181,1.2191,1.2151,1.1646,1.0818,1.0418,0.9955,0.9442,0.8575,0.7886,0.7358,0.7502,0.0,0.6561,0.6018,0.5445,0.4814,0.4073,0.3426,0.0,0.2203,0.1252,0.0268,0.0,0.0,-0.1389,-0.1834,-0.211,-0.2438,-0.3179,-0.3338,-0.3479,-0.3934,-0.4093,-0.4159,-0.4163,-0.4129,-0.4088,-0.4175,-0.4016,-0.3897,-0.3972,-0.4112,-0.4047,-0.3459,-0.3512,-0.3309,0.0,-0.2469,-0.2356,-0.2356,-0.2023,-0.207,-0.2511,-0.2561,-0.2713,-0.2961,-0.2961,-0.2961,-0.2961,-0.3023,-0.3045,-0.3091,-0.3091,-0.3114,-0.3029,-0.2385,-0.1934,-0.1548,-0.1225,-0.0838,-0.0516,-0.0445,-0.0063,0.0504,0.0497,0.0741,0.105,0.1419,0.1894,0.2409,0.0,0.0,0.0,0.0,0.0,0.0,0.0,0.0,0.0,0.0,0.0,0.0,0.0,0.0,0.0,0.0,0.9555,1.0331,0.0,1.1708,1.2371,1.3501,1.3562,1.3786,1.4245,1.4162,1.3923,1.3607,1.352,1.321,1.2657,1.2351,1.2037,1.1691,1.1277,1.0916,1.0553,1.0154,0.9799,0.9498,0.892,0.8487,0.8091,0.7403,0.6729,0.6144,0.0,0.0,0.5632,0.4976,0.434,0.3719,0.2983,0.2329,0.1605,0.0474,-0.0266,-0.0867,-0.1587,0.0,-0.2529,-0.2935,-0.327,-0.3576,-0.3977,-0.4139,-0.4291,-0.4549,-0.467,-0.4738,-0.4738,-0.4757,-0.4787,-0.4933,-0.4647,-0.4441,-0.4522,-0.4423,-0.4208,-0.4047,-0.4116,0.0,0.0,0.0,0.0,-0.2718,-0.2634,-0.2798,-0.3416,-0.3197,-0.3023,-0.3023,-0.3208,-0.3348,-0.332,-0.3568,-0.3721,-0.3776,-0.352,-0.3483,-0.3467,-0.2748,-0.2303,-0.1991,-0.1593,-0.1254,-0.0851,-0.0586,-0.0386,-0.0126,0.0314,0.0561,0.0679,0.105,0.1416,0.1835,0.0,0.0,0.0,0.0,0.0,0.0,0.0,0.0,0.0,0.0,0.0,0.0,0.0,0.0,0.0,0.0,0.0,0.9448,0.0,0.0,1.1326,1.2096,1.225,1.2498,1.2849,1.2642,1.2369,1.2121,1.1914,1.1559,1.1079,1.0701,1.0387,1.0114,0.9688,0.934,0.9101,0.8692,0.8434,0.8181,0.7596,0.7128,0.6728,0.6078,0.5461,0.0,0.0,0.0,0.4098,0.3803,0.3284,0.2639,0.186,0.1052,0.0156,-0.1003,-0.1541,-0.1956,-0.2784,-0.3271,-0.3663,-0.4089,-0.4405,-0.4721,-0.4929,-0.5049,-0.5117,-0.5335,-0.5359,-0.5346,-0.5341,-0.531,-0.5286,-0.5349,-0.5154,-0.502,-0.5029,-0.4973,-0.4845,-0.4632,-0.4718,-0.477,0.0,0.0,0.0,-0.3485,-0.3575,-0.3865,-0.4375,-0.4132,-0.3885,-0.3701,-0.3905,-0.406,-0.41,-0.4309,-0.448,-0.4547,-0.4177,-0.4012,-0.3917,-0.332,-0.2869,-0.2558,-0.2154,-0.1808,-0.146,-0.1057,-0.0848,-0.0641,-0.0063,0.0126,0.0187,0.0681,0.105,0.1418,0.0,0.0,0.0,0.0,0.0,0.0,0.0,0.0,0.0,0.0,0.0,0.0,0.0,0.0,0.0,0.0,0.0,0.0,0.0,0.0,0.0,0.9971,1.0507,1.0895,1.1107,1.0921,1.0875,1.0979,1.0819,1.0528,1.0044,0.978,0.9407,0.898,0.8823,0.8381,0.7797,0.7768,0.7421,0.6861,0.6457,0.5941,0.536,0.4684,0.0,0.0,0.0,0.0,0.0,0.0,0.0,0.0,0.0,-0.0377,-0.1524,-0.2191,-0.262,-0.3047,-0.3777,-0.4311,-0.4772,-0.5235,-0.551,-0.5719,-0.6048,-0.6019,-0.5975,-0.6144,-0.6084,-0.5987,0.0,0.0,-0.5581,-0.5514,-0.5534,-0.553,-0.5538,-0.5809,-0.5797,0.0,0.0,0.0,0.0,0.0,0.0,-0.4659,0.0,-0.5056,-0.5297,-0.5297,-0.5177,-0.494,-0.5005,-0.5107,-0.5114,-0.5191,-0.5267,-0.5274,-0.501,-0.464,-0.4307,-0.3969,-0.3632,-0.3228,-0.2895,-0.2559,-0.222,-0.1792,-0.1451,-0.1117,-0.0703,-0.0506,-0.0441,0.0186,0.0679,0.105,0.0,0.0,0.0,0.0,0.0,0.0,0.0,0.0,0.0,0.0,0.0,0.0,0.0,0.0,0.0,0.0,0.0,0.0,0.0,0.0,0.0,0.0,0.0,0.0,0.0,0.0,0.0,0.932,0.9035,0.8675,0.825,0.7948,0.762,0.7291,0.6959,0.6601,0.6242,0.6061,0.5751,0.541,0.0,0.4684,0.4394,0.0,0.0,0.0,0.0,0.0,0.0,0.0,0.0,0.0,0.0,-0.1715,-0.2611,-0.3252,-0.3845,-0.4409,-0.4952,-0.5336,-0.5639,-0.5964,-0.6138,-0.6192,-0.6173,-0.6134,-0.6123,-0.6066,-0.6017,-0.6002,0.0,0.0,0.0,-0.5888,-0.5745,0.0,-0.5766,-0.5909,0.0,-0.5797,0.0,-0.603,-0.5956,-0.6096,0.0,0.0,-0.5555,-0.5237,-0.5297,-0.5116,-0.5019,-0.5074,-0.5093,-0.5157,-0.5272,-0.5284,-0.5333,-0.5352,-0.5304,-0.5044,-0.464,-0.4307,-0.3969,-0.3632,-0.3229,-0.2894,-0.2558,-0.2213,-0.1797,-0.1447,-0.1034,-0.0701,-0.0504,-0.031,0.0123,0.0679,0.0,0.0,0.0,0.0,0.0,0.0,0.0,0.0,0.0,0.0,0.0,0.0,0.0,0.0,0.0,0.0,0.0,0.0,0.0,0.0,0.0,0.0,0.0,0.0,0.0,0.0,0.0,0.0,0.0,0.0,0.7117,0.68,0.6514,0.6247,0.5907,0.5541,0.5148,0.4952,0.0,0.0,0.0,0.0,0.0,0.0,0.0,0.0,0.0,0.0,0.0,0.0,0.0,-0.1389,-0.2126,-0.2834,-0.3587,-0.4422,0.0,-0.5445,-0.6122,-0.6415,-0.6592,-0.692,-0.6944,-0.689,-0.6728,-0.657,-0.6398,-0.6171,-0.6051,0.0,0.0,0.0,0.0,0.0,0.0,0.0,-0.5968,-0.6097,-0.6162,0.0,-0.632,0.0,-0.6474,-0.6546,-0.6646,0.0,-0.6191,-0.579,-0.579,-0.5521,-0.5438,-0.5482,-0.555,-0.5715,-0.5846,-0.5893,-0.585,-0.585,-0.5714,-0.5512,-0.5242,-0.4775,-0.444,-0.4237,0.0,-0.3365,-0.3164,-0.2626,-0.2278,-0.206,-0.1506,-0.1032,-0.0763,-0.0564,-0.0062,0.0556,0.0,0.0,0.0,0.0,0.0,0.0,0.0,0.0,0.0,0.0,0.0,0.0,0.0,0.0,0.0,0.0,0.0,0.0,0.0,0.0,0.0,0.0,0.0,0.0,0.0,0.0,0.0,0.0,0.0,0.0,0.0,0.0,0.0,0.0,0.0,0.0,0.0,0.0,0.0,0.0,0.0,0.0,0.0,0.0,0.0,0.0,0.0,0.0,0.0,0.0,-0.1985,-0.2355,-0.3189,-0.382,-0.4515,-0.5565,-0.5998,-0.6275,-0.7077,-0.735,-0.7454,-0.7789,-0.7711,-0.7549,-0.7296,-0.698,-0.6687,-0.6338,0.0,-0.5962,-0.5899,-0.5764,-0.5671,-0.5846,0.0,-0.5809,-0.6032,-0.6276,-0.6428,-0.6461,-0.6532,-0.6621,-0.6725,-0.6698,-0.6788,-0.7006,-0.6712,-0.6526,-0.6464,-0.6251,-0.6189,-0.6214,-0.6379,-0.6506,-0.6654,-0.6654,-0.6587,-0.6587,-0.6182,-0.5979,-0.5845,-0.5242,-0.4906,-0.4772,-0.417,-0.3902,-0.3768,-0.3097,-0.2761,-0.2622,-0.1989,-0.1502,-0.1094,-0.0698,-0.0188,0.0432,0.0,0.0,0.0,0.0,0.0,0.0,0.0,0.0,0.0,0.0,0.5358,0.5358,0.0,0.0,0.0,0.0,0.0,0.0,0.0,0.0,0.0,0.0,0.0,0.0,0.0,0.0,0.0,0.0,0.0,0.0,0.0,0.0,0.0,0.0,0.0,0.0,0.0,0.0,0.0,0.0,0.0,0.0,0.0,0.0,0.0,0.0,0.0,0.0,0.0,0.0,-0.2585,-0.3001,-0.3851,-0.4695,-0.5472,-0.6121,-0.6702,-0.717,-0.7352,-0.7564,-0.7785,-0.7673,-0.7621,-0.7489,-0.6981,-0.6738,0.0,0.0,0.0,-0.5847,-0.5801,-0.5818,0.0,-0.5689,0.0,0.0,0.0,0.0,-0.6476,0.0,0.0,0.0,0.0,0.0,0.0,0.0,0.0,-0.7079,-0.6839,-0.6871,-0.7005,-0.7178,-0.7235,-0.7307,-0.7326,-0.7326,-0.719,-0.6918,-0.6851,-0.6516,-0.5912,-0.5778,-0.5376,-0.4772,-0.4705,0.0,-0.3768,-0.3633,-0.3231,-0.269,-0.252,-0.2025,-0.1481,-0.1079,-0.0688,-0.0247,0.0,0.0,0.0,0.0,0.0,0.0,0.0,0.0,0.5156,0.5195,0.5204,0.5224,0.5291,0.5272,0.0,0.0,0.0,0.0,0.0,0.0,0.0,0.0,0.0,0.0,0.0,0.0,0.0,0.0,0.0,0.0,0.0,0.0,0.0,0.0,0.0,0.0,0.0,0.0,0.0,0.0,0.0,0.0,0.0,0.0,0.0,0.0,0.0,0.0,0.0,0.0,-0.3179,-0.3891,-0.4479,-0.5201,-0.5992,-0.6749,-0.7356,-0.7797,-0.7971,-0.8156,-0.8221,-0.801,-0.7853,-0.7576,-0.6964,0.0,0.0,0.0,-0.5742,-0.5691,-0.5691,0.0,0.0,0.0,0.0,0.0,0.0,0.0,0.0,0.0,0.0,0.0,0.0,0.0,0.0,0.0,0.0,-0.7534,-0.7289,-0.7256,-0.7286,-0.7445,-0.75,-0.7526,-0.7526,-0.7526,-0.739,-0.7254,-0.7051,-0.6784,-0.6447,-0.6046,-0.5711,-0.5376,-0.4973,-0.464,-0.4304,-0.3969,-0.3499,-0.2959,-0.274,-0.2236,-0.1546,-0.1216,-0.0818,-0.0432,0.0,0.0,0.0,0.0,0.0,0.0,0.0,0.5078,0.5078,0.5078,0.5078,0.5117,0.5224,0.5195,0.5146,0.0,0.0,0.0,0.0,0.0,0.0,0.0,0.0,0.0,0.0,0.0,0.0,0.0,0.0,0.0,0.0,0.0,0.0,0.0,0.0,0.0,0.0,0.0,0.0,0.0,0.0,0.0,0.0,0.0,0.0,0.0,0.0,0.0,0.0,0.0,-0.3691,-0.4606,-0.4964,-0.5651,-0.644,-0.7258,-0.7797,-0.8192,-0.8421,-0.8535,-0.8472,-0.8266,-0.7975,-0.7572,-0.6965,-0.6634,0.0,0.0,-0.5491,-0.5447,-0.5447,0.0,0.0,0.0,0.0,0.0,0.0,0.0,0.0,0.0,0.0,0.0,0.0,0.0,0.0,0.0,0.0,0.0,-0.7713,-0.7654,-0.768,-0.7722,-0.7724,-0.7724,-0.7724,-0.7724,-0.7724,-0.7593,-0.7388,-0.7185,-0.6985,-0.638,-0.6046,-0.5845,-0.5309,-0.4973,-0.4772,-0.4237,-0.3767,-0.3296,-0.2962,-0.2382,-0.1741,-0.1354,-0.095,-0.0494,0.0,0.0,0.0,0.0,0.0,0.0,0.0,0.501,0.501,0.501,0.501,0.501,0.5029,0.5068,0.5059,0.0,0.0,0.0,0.0,0.0,0.0,0.0,0.0,0.0,0.0,0.0,0.0,0.0,0.0,0.0,0.0,0.0,0.0,0.0,0.0,0.0,0.0,0.0,0.0,0.0,0.0,0.0,0.0,0.0,0.0,0.0,0.0,0.0,0.0,0.0,0.0,-0.4756,-0.5206,-0.6063,-0.6993,-0.7368,0.0,0.0,-0.8196,-0.8248,-0.8258,-0.793,-0.7698,-0.7383,-0.6761,0.0,0.0,-0.5489,-0.5169,-0.4951,-0.4951,-0.5199,-0.5373,0.0,0.0,-0.5949,0.0,0.0,0.0,0.0,0.0,0.0,0.0,0.0,0.0,0.0,0.0,0.0,-0.8148,-0.828,-0.8338,-0.8518,-0.852,-0.852,-0.852,-0.852,-0.8323,-0.8058,-0.7992,-0.7655,-0.6985,-0.6918,-0.6514,-0.5912,-0.5845,-0.5443,0.0,-0.4707,-0.4304,-0.3701,-0.3296,-0.291,-0.2451,-0.1805,-0.133,-0.0926,0.0,0.0,0.0,0.0,0.0,0.0,0.0,0.4971,0.5,0.5,0.5,0.497,0.4892,0.4901,0.4892,0.0,0.0,0.0,0.0,0.0,0.0,0.0,0.0,0.0,0.0,0.0,0.0,0.4264,0.3891,0.0,0.0,0.0,0.0,0.0,0.0,0.0,0.0,0.0,0.0,0.0,0.0,0.0,0.0,0.0,0.0,0.0,0.0,0.0,0.0,0.0,0.0,0.0,-0.5061,-0.5859,0.0,0.0,-0.7594,-0.8013,-0.7948,-0.8045,-0.8098,-0.7717,-0.7417,-0.7035,-0.6335,0.0,-0.5636,-0.5195,-0.4999,-0.4887,-0.4887,-0.5084,-0.5238,-0.5359,0.0,0.0,0.0,0.0,0.0,0.0,0.0,0.0,0.0,0.0,0.0,0.0,0.0,0.0,-0.8863,-0.8545,-0.847,-0.8584,-0.8587,-0.8587,-0.8587,-0.8587,-0.852,-0.839,-0.8189,-0.7791,-0.7323,-0.7118,-0.6717,-0.625,-0.5981,-0.5646,0.0,-0.4908,-0.4438,-0.3768,-0.3632,-0.3175,-0.2516,-0.2064,-0.152,-0.0926,0.0,0.0,0.0,0.0,0.0,0.3945,0.4752,0.4912,0.4941,0.4941,0.4941,0.4892,0.4783,0.4763,0.4753,0.4714,0.0,0.0,0.0,0.0,0.0,0.0,0.0,0.0,0.0,0.0,0.0,0.4064,0.3679,0.3298,0.0,0.0,0.0,0.0,0.0,0.0,0.0,0.0,0.0,0.0,0.0,0.0,0.0,0.0,0.0,0.0,0.0,0.0,0.0,0.0,0.0,0.0,0.0,0.0,0.0,0.0,-0.7261,-0.7661,-0.7655,-0.7761,-0.7753,-0.7358,-0.7044,-0.6662,0.0,0.0,-0.5407,-0.4935,-0.4816,-0.4782,-0.4782,-0.4911,-0.5086,-0.527,0.0,-0.6081,0.0,0.0,0.0,0.0,0.0,0.0,0.0,0.0,0.0,0.0,0.0,0.0,-0.9374,-0.8939,-0.8694,-0.8715,-0.872,-0.872,-0.8587,-0.8587,-0.8587,-0.8587,-0.839,-0.8058,-0.7658,-0.7321,-0.6987,-0.6652,-0.6248,-0.5848,0.0,-0.5109,-0.464,-0.4102,-0.3902,-0.3373,-0.2709,-0.2386,-0.1773,-0.1111,0.0,0.0,0.0,0.0,0.0,0.0,0.0,0.4802,0.4802,0.4802,0.4802,0.4773,0.4711,0.4701,0.4652,0.4515,0.0,0.0,0.0,0.0,0.0,0.0,0.0,0.0,0.0,0.0,0.0,0.3993,0.3663,0.3298,0.29,0.2557,0.0,0.0,0.0,0.0,0.0,0.0,0.0,0.0,0.0,0.0,0.0,0.0,0.0,0.0,0.0,0.0,0.0,0.0,0.0,0.0,0.0,0.0,0.0,0.0,-0.6982,-0.7315,-0.7292,-0.7308,-0.7206,-0.6821,-0.6546,-0.6298,0.0,0.0,-0.5115,-0.4783,-0.46,-0.4494,-0.4494,-0.4714,-0.4938,-0.5076,-0.5511,0.0,0.0,0.0,0.0,0.0,0.0,0.0,0.0,0.0,0.0,0.0,0.0,0.0,-0.9486,-0.9371,-0.9245,-0.9108,-0.9117,-0.8917,-0.8587,-0.8587,-0.8587,-0.8587,-0.8587,-0.839,-0.8058,-0.766,-0.7323,-0.6985,-0.6652,-0.625,0.0,-0.5513,-0.5178,-0.4707,-0.4035,-0.3506,-0.3033,-0.2709,-0.2154,-0.142,0.0,0.0,0.0,0.0,0.0,0.0,0.0,0.4732,0.4732,0.4732,0.4732,0.4692,0.4574,0.4564,0.4504,0.4379,0.0,0.0,0.0,0.0,0.0,0.0,0.0,0.0,0.0,0.0,0.3609,0.3733,0.3298,0.29,0.2557,0.2208,0.1895,0.1615,0.0,0.0,0.0,0.0,0.0,0.0,0.0,0.0,0.0,0.0,0.0,0.0,0.0,0.0,0.0,0.0,0.0,0.0,0.0,0.0,0.0,-0.5551,0.0,0.0,-0.6668,-0.6672,-0.6633,-0.6411,-0.6135,-0.5793,-0.5314,0.0,-0.4805,-0.4593,-0.4525,-0.4491,-0.4491,-0.4711,-0.4904,-0.4948,-0.5443,0.0,0.0,0.0,0.0,0.0,0.0,0.0,0.0,0.0,0.0,0.0,0.0,0.0,-0.9856,-0.9781,-0.9618,-0.9312,-0.941,-0.9322,-0.8917,-0.8917,-0.8851,-0.8587,-0.8587,-0.8456,-0.8058,-0.766,-0.7323,-0.6985,-0.6654,-0.625,-0.5847,-0.5513,-0.5178,-0.4774,-0.4305,-0.3706,-0.3097,-0.2968,-0.2344,-0.1482,0.0,0.0,0.0,0.0,0.0,0.0,0.0,0.4603,0.4691,0.4633,0.4623,0.4573,0.4433,0.4423,0.436,0.4194,0.0,0.0,0.0,0.0,0.0,0.0,0.0,0.0,0.0,0.3559,0.3467,0.3565,0.3118,0.2735,0.2391,0.2061,0.173,0.1415,0.1145,0.0,0.0,0.0,0.0,0.0,0.0,0.0,-0.0824,0.0,0.0,0.0,0.0,0.0,0.0,0.0,0.0,0.0,0.0,0.0,0.0,0.0,-0.5294,-0.5692,0.0,-0.6133,-0.609,-0.5885,-0.5666,0.0,0.0,0.0,-0.4675,-0.4522,-0.4491,-0.4491,-0.4491,-0.4711,-0.4887,-0.4887,-0.5416,0.0,0.0,0.0,0.0,0.0,0.0,0.0,0.0,0.0,0.0,0.0,0.0,0.0,-0.9896,-0.9957,-0.9883,-0.9617,-0.9748,-0.9672,-0.9322,-0.9183,-0.8984,-0.8784,-0.8653,-0.852,-0.8256,-0.7925,-0.7524,-0.7187,-0.6853,-0.6451,0.0,-0.5714,-0.5379,-0.4973,-0.4616,-0.4017,-0.3287,-0.3142,-0.2584,-0.179,0.0,0.0,0.0,0.0,0.0,0.0,0.0,0.0,0.0,0.4505,0.4485,0.4433,0.4295,0.4274,0.4202,0.3998,0.0,0.0,0.0,0.0,0.0,0.0,0.0,0.0,0.0,0.3592,0.3525,0.3467,0.3064,0.2703,0.2373,0.2032,0.1663,0.1287,0.0999,0.0725,0.0437,0.0118,-0.0134,-0.0319,-0.0471,-0.0639,0.0,0.0,0.0,0.0,0.0,0.0,0.0,0.0,0.0,0.0,0.0,0.0,0.0,0.0,0.0,0.0,0.0,-0.5622,0.0,0.0,0.0,0.0,0.0,0.0,0.0,-0.4518,-0.4491,-0.4494,-0.4505,-0.4721,-0.4894,-0.4948,-0.543,0.0,0.0,0.0,0.0,0.0,0.0,0.0,0.0,0.0,0.0,0.0,0.0,0.0,-0.9822,-0.9896,-0.9977,-0.9987,-0.9998,-0.9888,-0.9712,-0.9316,-0.9117,-0.9117,-0.8787,-0.8587,-0.8587,-0.8256,-0.7858,0.0,-0.7121,-0.6786,-0.6453,-0.6042,-0.5705,-0.5366,-0.4962,-0.4305,-0.3533,-0.3234,-0.2875,-0.2344,0.0,0.0,0.0,0.0,0.0,0.0,0.0,0.0,0.0,0.0,0.4348,0.4277,0.4091,0.4071,0.3988,0.0,0.0,0.0,0.0,0.0,0.0,0.0,0.0,0.0,0.0,0.3254,0.3165,0.3035,0.2736,0.2422,0.2091,0.1745,0.1466,0.1199,0.0841,0.0472,0.0101,-0.0134,-0.0286,-0.0403,-0.0639,-0.0756,0.0,0.0,0.0,0.0,-0.1739,-0.2013,0.0,0.0,0.0,0.0,0.0,0.0,0.0,0.0,-0.4287,-0.4345,-0.451,0.0,-0.5067,-0.506,-0.4943,-0.4762,0.0,0.0,0.0,0.0,0.0,0.0,0.0,-0.4792,-0.4992,-0.5252,-0.5562,0.0,0.0,0.0,0.0,0.0,0.0,0.0,0.0,0.0,0.0,0.0,0.0,-0.9822,-0.9822,-0.9852,-0.9866,-0.9984,-0.9992,-0.9962,-0.9957,-0.9672,-0.9389,-0.9117,-0.8787,-0.8587,-0.8587,-0.8256,-0.7858,-0.7459,-0.7121,-0.6786,-0.6449,-0.5982,-0.5624,-0.5287,-0.4824,-0.4176,-0.3487,-0.3222,-0.2875,-0.2344,0.0,0.0,0.0,0.0,0.0,0.0,0.0,0.0,0.0,0.0,0.0,0.0,0.0,0.0,0.0,0.0,0.0,0.0,0.0,0.0,0.0,0.0,0.0,0.0,0.3113,0.3138,0.3054,0.2846,0.259,0.2296,0.1999,0.1663,0.1353,0.1038,0.0571,0.023,-0.0017,-0.0219,-0.0336,-0.042,-0.0655,0.0,0.0,0.0,0.0,0.0,-0.1614,-0.1835,0.0,-0.236,-0.2578,-0.2774,0.0,0.0,0.0,0.0,-0.3791,-0.3843,-0.3825,-0.4273,-0.4709,-0.465,-0.4619,-0.4593,-0.4508,0.0,0.0,0.0,0.0,0.0,0.0,0.0,0.0,0.0,-0.5764,0.0,0.0,0.0,0.0,0.0,0.0,0.0,0.0,0.0,0.0,0.0,0.0,-0.9822,-0.9822,-0.9822,-0.9859,-0.9879,-0.995,-1.0035,-1.0138,-0.9957,-0.9629,-0.9231,-0.8958,-0.872,-0.8587,-0.839,-0.8123,-0.7722,-0.7339,-0.6987,-0.6651,-0.6163,-0.5671,-0.5207,-0.494,-0.4383,-0.3656,-0.3193,-0.292,-0.259,0.0,0.0,0.0,0.0,0.0,0.0,0.0,0.0,0.0,0.0,0.0,0.0,0.0,0.0,0.0,0.0,0.0,0.0,0.0,0.0,0.0,0.0,0.0,0.3131,0.2946,0.3097,0.3031,0.2741,0.2506,0.2241,0.1922,0.1615,0.1231,0.0803,0.0298,0.0035,-0.005,-0.0235,-0.0353,-0.0437,-0.0622,0.0,0.0,0.0,0.0,0.0,0.0,0.0,0.0,-0.2187,-0.2357,-0.2515,-0.2815,0.0,0.0,0.0,0.0,0.0,-0.3365,-0.3855,-0.4346,-0.4217,-0.4355,-0.4491,-0.4491,0.0,0.0,0.0,0.0,0.0,0.0,0.0,0.0,0.0,0.0,0.0,0.0,0.0,0.0,0.0,0.0,0.0,0.0,0.0,0.0,0.0,0.0,-0.9822,-0.9822,-0.9822,-0.9822,-0.9822,-0.9886,-1.0076,-1.0209,-1.0054,-0.9812,-0.9426,-0.9142,-0.8861,-0.8599,-0.8532,-0.8336,-0.8002,0.0,0.0,-0.6816,-0.6393,-0.5842,-0.5257,-0.5115,-0.4647,-0.3952,-0.3284,-0.3023,-0.2838,0.0,0.0,0.0,0.0,0.0,0.0,0.0,0.0,0.0,0.0,0.0,0.0,0.0,0.0,0.0,0.0,0.0,0.0,0.0,0.0,0.0,0.0,0.2768,0.2805,0.2658,0.2907,0.2837,0.2465,0.2366,0.2099,0.1665,0.1425,0.1035,0.047,0.0149,-0.0088,-0.0252,-0.0353,-0.042,-0.0504,-0.0639,0.0,0.0,0.0,0.0,0.0,0.0,0.0,0.0,-0.1764,-0.2008,-0.2283,-0.2512,0.0,0.0,0.0,0.0,0.0,-0.3225,-0.347,-0.3808,-0.4059,-0.4301,-0.4491,-0.4491,0.0,0.0,0.0,0.0,0.0,0.0,0.0,0.0,0.0,0.0,0.0,0.0,0.0,0.0,0.0,0.0,0.0,0.0,0.0,0.0,0.0,0.0,-0.9822,-0.9822,-0.9822,-0.9822,-0.9822,-0.9842,-0.9866,-0.989,-0.9784,-0.9723,-0.9662,-0.9044,-0.8735,-0.8671,-0.8416,-0.8097,-0.7714,0.0,-0.7041,-0.6715,-0.6237,-0.582,-0.5495,-0.5103,-0.4702,-0.4205,-0.3333,-0.3023,-0.2838,0.0,0.0,0.0,0.0,0.0,0.0,0.0,0.0,0.0,0.0,0.0,0.0,0.0,0.0,0.0,0.0,0.0,0.0,0.0,0.0,0.0,0.2174,0.2296,0.2406,0.2492,0.2606,0.2518,0.2177,0.2071,0.1847,0.1479,0.1066,0.0629,0.0183,0.0019,-0.0166,-0.0351,-0.0391,-0.0437,-0.0504,0.0,0.0,0.0,0.0,0.0,0.0,0.0,0.0,0.0,0.0,-0.1773,-0.1968,-0.226,0.0,0.0,0.0,0.0,0.0,-0.304,-0.3251,-0.3539,-0.3675,-0.3975,-0.4289,-0.4452,-0.455,0.0,0.0,0.0,0.0,0.0,0.0,0.0,0.0,0.0,0.0,0.0,0.0,0.0,0.0,0.0,0.0,0.0,0.0,0.0,0.0,0.0,0.0,-0.9819,-0.9822,-0.9822,-0.9822,-0.9822,-0.9822,-0.9822,-0.9769,-0.9692,-0.9585,-0.9215,-0.8933,-0.8678,-0.8361,-0.8108,-0.7914,0.0,-0.7061,-0.6862,-0.6202,-0.5792,-0.5476,-0.507,-0.4687,-0.4316,-0.3331,-0.2653,-0.2099,0.0,0.0,0.0,0.0,0.0,0.0,0.0,0.0,0.0,0.0,0.0,0.0,0.0,0.0,0.0,0.0,0.0,0.0,0.0,0.0,0.1892,0.1858,0.1875,0.1986,0.2233,0.2295,0.2186,0.1882,0.1786,0.1585,0.1232,0.0651,0.0242,0.0,-0.012,-0.0248,-0.0399,-0.0413,-0.0454,-0.0504,0.0,0.0,0.0,0.0,0.0,0.0,0.0,0.0,0.0,0.0,0.0,0.0,0.0,0.0,0.0,-0.2627,-0.2794,-0.2895,-0.2926,-0.3135,-0.3355,-0.3383,-0.3738,-0.4125,-0.4371,-0.4477,0.0,0.0,0.0,0.0,0.0,0.0,0.0,0.0,0.0,0.0,0.0,0.0,0.0,0.0,0.0,0.0,0.0,0.0,0.0,0.0,0.0,0.0,-0.9768,-0.9802,-0.9822,-0.9822,-0.9822,-0.9822,-0.9822,-0.9822,-0.9696,-0.9565,-0.9359,-0.9094,-0.8718,-0.8405,-0.8215,-0.8081,-0.7423,-0.7137,-0.7007,-0.6313,-0.5792,-0.5485,-0.5056,-0.4564,-0.4007,-0.3269,-0.2345,-0.1482,0.0,0.0,0.0,0.0,0.0,0.0,0.0,0.0,0.0,0.0,0.0,0.0,0.0,0.0,0.0,0.0,0.0,0.0,0.0,0.0,0.1655,0.1707,0.1605,0.1602,0.1747,0.1987,0.1933,0.1527,0.1584,0.1319,0.0742,0.027,0.0022,-0.0021,-0.0261,-0.0382,-0.0399,-0.0465,-0.0487,-0.0504,-0.0504,0.0,0.0,0.0,0.0,0.0,0.0,0.0,0.0,0.0,0.0,0.0,0.0,0.0,-0.2425,-0.2565,-0.2748,-0.2915,-0.2983,-0.3102,-0.3246,-0.336,-0.379,-0.4187,-0.4226,-0.4418,0.0,-0.4772,0.0,0.0,0.0,0.0,0.0,0.0,0.0,0.0,0.0,0.0,0.0,0.0,0.0,0.0,0.0,0.0,0.0,0.0,0.0,-0.9615,-0.9625,-0.9747,-0.9822,-0.9822,-0.9822,-0.9822,-0.9822,-0.9822,-0.9765,-0.9775,-0.9422,-0.9123,-0.8885,-0.8518,-0.8211,-0.7896,-0.7523,-0.7214,-0.691,-0.653,-0.616,-0.5794,-0.5179,-0.4133,-0.3085,-0.3023,-0.2345,-0.1482,0.0,0.0,0.0,0.0,0.0,0.0,0.0,0.0,0.0,0.0,0.0,0.0,0.0,0.0,0.0,0.0,0.0,0.0,0.0,0.0,0.1363,0.1264,0.1258,0.1213,0.1135,0.1523,0.1529,0.1118,0.0946,0.0651,0.027,0.0,-0.0201,-0.0306,-0.0366,-0.0447,-0.0532,-0.0507,-0.0504,-0.0504,-0.0504,-0.0538,0.0,0.0,0.0,0.0,0.0,0.0,0.0,0.0,-0.1464,-0.1602,-0.1737,-0.1981,-0.2241,-0.2419,-0.2626,-0.2802,-0.2968,-0.3107,-0.3239,-0.3466,-0.378,0.0,0.0,-0.4402,-0.4659,-0.4894,-0.5164,0.0,0.0,0.0,0.0,0.0,0.0,0.0,0.0,0.0,0.0,0.0,0.0,0.0,0.0,0.0,0.0,0.0,0.0,-0.9408,-0.9598,-0.9659,-0.973,-0.9819,-0.9822,-0.9822,-0.9822,-0.9822,-0.9822,-0.9822,-0.9457,-0.9156,-0.8915,-0.8552,-0.8244,-0.7869,-0.7569,-0.7204,-0.69,-0.6528,-0.6221,-0.5855,-0.5179,-0.4256,-0.3271,-0.3085,-0.2653,-0.2036,0.0,0.0,0.0,0.0,0.0,0.0,0.0,0.0,0.0,0.0,0.0,0.0,0.0,0.0,0.0,0.0,0.0,0.0,0.0,0.1219,0.109,0.0876,0.0916,0.0852,0.0646,0.0965,0.1004,0.0746,0.0431,0.0157,-0.0067,-0.0225,-0.036,-0.0493,-0.0471,-0.0511,-0.0605,-0.0528,-0.0504,-0.0504,-0.0504,-0.0504,0.0,0.0,0.0,0.0,0.0,0.0,0.0,0.0,-0.1365,-0.1516,-0.1613,-0.1846,-0.2117,-0.227,-0.2488,-0.2743,-0.2939,-0.311,-0.3286,-0.3594,0.0,0.0,-0.4193,-0.4401,-0.4645,-0.4929,-0.5316,0.0,0.0,0.0,0.0,0.0,0.0,0.0,0.0,0.0,0.0,0.0,0.0,0.0,0.0,0.0,0.0,0.0,-0.9183,-0.9303,-0.9456,-0.9557,-0.9652,-0.9751,-0.9798,-0.9822,-0.9822,-0.9822,-0.9822,-0.9822,-0.9579,-0.9278,-0.8915,-0.8674,-0.8305,-0.7869,-0.7569,-0.7204,-0.69,-0.6528,-0.6099,-0.555,-0.5056,-0.4318,-0.3455,-0.3146,-0.2775,-0.2344,0.0,0.0,0.0,0.0,0.0,0.0,0.0,0.0,0.0,0.0,0.0,0.0,0.0,0.0,0.0,0.0,0.0,0.0,0.1105,0.0972,0.0811,0.06,0.0592,0.0504,0.0292,0.0293,0.0318,0.0393,0.0129,-0.0067,-0.0202,-0.0405,-0.0517,-0.0515,-0.0574,-0.0609,-0.0605,-0.0528,-0.0504,-0.0504,-0.0504,-0.0504,-0.0521,0.0,0.0,0.0,0.0,0.0,0.0,0.0,-0.133,-0.1499,-0.1499,-0.1776,-0.2097,-0.2099,-0.2384,-0.2733,-0.2955,-0.3091,-0.3303,0.0,0.0,0.0,-0.4246,-0.439,-0.4613,-0.4944,0.0,-0.5508,0.0,0.0,0.0,0.0,0.0,0.0,0.0,0.0,0.0,0.0,0.0,0.0,0.0,0.0,0.0,0.0,-0.9069,-0.9207,-0.921,-0.9442,-0.9605,-0.9608,-0.9744,-0.9819,-0.9819,-0.9822,-0.9822,-0.9822,-0.9822,-0.9457,-0.8915,-0.8915,-0.8546,-0.7869,-0.7569,-0.7204,-0.69,-0.6528,-0.5792,-0.4873,-0.4873,-0.4318,-0.3455,-0.3146,-0.2775,-0.2344,0.0,0.0,0.0,0.0,0.0,0.0,0.0,0.0,0.0,0.0,0.0,0.0,0.0,0.0,0.0,0.0,0.0,0.0,0.0,0.0717,0.0545,0.0395,0.0339,0.0175,-0.0115,-0.022,-0.0209,-0.0082,-0.0372,-0.0561,-0.0695,-0.0851,-0.0919,-0.0916,-0.0839,-0.0806,-0.0801,-0.0687,-0.0639,-0.0639,-0.0538,-0.0504,-0.0504,0.0,0.0,0.0,0.0,0.0,0.0,0.0,0.0,0.0,-0.1466,0.0,-0.1855,-0.2038,-0.2213,-0.2439,-0.2886,-0.3041,0.0,0.0,0.0,0.0,0.0,-0.461,0.0,0.0,0.0,0.0,0.0,0.0,0.0,0.0,0.0,0.0,0.0,0.0,0.0,0.0,0.0,0.0,0.0,0.0,0.0,0.0,-0.8977,-0.9045,-0.9204,-0.9296,-0.9337,-0.9445,-0.9595,-0.9673,-0.9673,-0.9771,-0.9822,-0.9822,-0.9579,-0.9278,-0.8915,-0.8915,-0.8546,-0.7869,-0.7569,-0.7204,-0.6839,-0.6285,-0.5609,-0.4873,-0.4873,-0.4442,-0.3703,-0.3208,-0.2961,-0.2653,0.0,0.0,0.0,0.0,0.0,0.0,0.0,0.0,0.0,0.0,0.0,0.0,0.0,0.0,0.0,0.0,0.0,0.0,0.0,0.0,0.0337,0.0146,0.0073,-0.0119,-0.045,-0.0644,-0.0733,-0.0698,-0.0723,-0.081,-0.0941,-0.1044,-0.1097,-0.1094,-0.0962,-0.0904,-0.0898,-0.0757,-0.0706,-0.0689,-0.0555,-0.0504,-0.0504,0.0,0.0,0.0,0.0,0.0,0.0,0.0,0.0,0.0,-0.1382,0.0,-0.1707,-0.1952,-0.2109,-0.2294,-0.2733,0.0,0.0,0.0,0.0,0.0,0.0,0.0,0.0,0.0,0.0,0.0,0.0,0.0,0.0,0.0,0.0,0.0,0.0,0.0,0.0,0.0,0.0,0.0,0.0,0.0,0.0,-0.8885,-0.8885,-0.8977,-0.9062,-0.918,-0.9251,-0.9347,-0.9439,-0.9517,-0.9517,-0.9663,-0.9737,-0.9737,-0.9431,-0.9156,-0.8915,-0.8735,-0.8424,-0.7872,-0.7385,-0.6959,-0.6469,-0.6039,-0.5486,-0.4873,-0.4873,-0.4504,-0.3826,-0.3209,-0.3023,-0.2838,0.0,0.0,0.0,0.0,0.0,0.0,0.0,0.0,0.0,0.0,0.0,0.0,0.0,0.0,0.0,0.0,0.0,0.0,0.0,0.0,0.0146,-0.0112,-0.0219,-0.0416,-0.0725,-0.0987,-0.1187,-0.1313,-0.0998,-0.0921,-0.1048,-0.1114,-0.1157,-0.1131,-0.1001,-0.0942,-0.0918,-0.0775,-0.0723,-0.0706,-0.0571,-0.0504,-0.0504,-0.0504,0.0,0.0,0.0,0.0,0.0,0.0,0.0,0.0,-0.1279,-0.1425,-0.1622,-0.1822,-0.2016,-0.2238,-0.2503,0.0,0.0,0.0,0.0,0.0,0.0,0.0,0.0,0.0,0.0,0.0,0.0,0.0,0.0,0.0,0.0,0.0,0.0,0.0,0.0,0.0,0.0,0.0,0.0,0.0,0.0,-0.8885,-0.8885,-0.8885,-0.8885,-0.9062,-0.919,-0.919,-0.9279,-0.9361,-0.9361,-0.9513,-0.9595,-0.9612,-0.9379,-0.9143,-0.8915,-0.8552,-0.8183,-0.775,-0.7143,-0.6532,-0.5916,-0.5855,-0.5486,-0.4873,-0.4872,-0.4442,-0.3765,-0.3208,-0.2961,-0.2776,0.0,0.0,0.0,0.0,0.0,0.0,0.0,0.0,0.0,0.0,0.0,0.0,0.0,0.0,0.0,0.0,0.0,0.0,0.0,0.0,-0.0112,-0.0326,-0.0653,-0.0856,-0.0935,-0.1205,-0.1348,-0.1379,-0.1248,-0.1253,-0.1395,-0.1523,-0.1511,-0.1401,-0.1326,-0.1255,-0.1192,-0.0952,-0.0824,-0.0773,-0.0689,-0.0588,-0.0504,-0.0504,-0.0521,0.0,0.0,0.0,0.0,0.0,0.0,0.0,-0.1279,-0.1409,-0.1558,-0.1693,-0.1839,-0.2052,0.0,-0.2609,0.0,0.0,0.0,0.0,0.0,0.0,0.0,0.0,0.0,0.0,0.0,0.0,0.0,0.0,0.0,0.0,0.0,0.0,0.0,0.0,0.0,0.0,0.0,0.0,-0.8885,-0.8885,-0.8885,-0.8885,-0.8885,-0.8967,-0.8984,-0.8984,-0.9127,-0.9258,-0.9258,-0.9354,-0.949,-0.9608,-0.9274,-0.9049,-0.8915,-0.8552,-0.7941,-0.7082,-0.6962,-0.6532,-0.5855,-0.5607,-0.5239,-0.4872,-0.4624,-0.4132,-0.3517,-0.3146,-0.2837,-0.2467,0.0,0.0,0.0,0.0,0.0,0.0,0.0,0.0,0.0,0.0,0.0,0.0,0.0,0.0,0.0,0.0,0.0,0.0,0.0,0.0,0.0,-0.0627,-0.0991,-0.1196,-0.1196,-0.1427,-0.1552,-0.1585,-0.1548,-0.1548,0.0,0.0,-0.1701,-0.1591,-0.1459,-0.139,-0.1326,-0.1022,-0.0858,-0.0791,-0.0723,-0.0622,-0.0504,-0.0504,-0.0504,-0.0521,-0.0655,0.0,0.0,0.0,0.0,0.0,0.0,0.0,-0.143,-0.1612,-0.1771,-0.1971,0.0,0.0,0.0,0.0,0.0,0.0,0.0,0.0,0.0,0.0,0.0,0.0,0.0,0.0,0.0,0.0,0.0,0.0,0.0,0.0,0.0,0.0,0.0,0.0,0.0,0.0,-0.8828,-0.8828,-0.8841,-0.8885,-0.8885,-0.8885,-0.8885,-0.8885,-0.9011,-0.9052,-0.9052,-0.9198,-0.9313,-0.9391,-0.9108,-0.8863,-0.8518,-0.8276,-0.7694,-0.69,-0.69,-0.6532,-0.5855,-0.5544,-0.5177,-0.4872,-0.4501,-0.4009,-0.3455,-0.3146,-0.2775,-0.2406,0.0,0.0,0.0,0.0,0.0,0.0,0.0,0.0,0.0,0.0,0.0,0.0,0.0,0.0,0.0,0.0,0.0,0.0,0.0,0.0,0.0,0.0,-0.1264,-0.1435,-0.1435,-0.1628,-0.1771,-0.1845,-0.1866,0.0,0.0,0.0,0.0,-0.1699,-0.1521,-0.1417,-0.1381,-0.1074,-0.0892,-0.0791,-0.0739,-0.0622,-0.0504,-0.0504,-0.0504,-0.0521,-0.0622,-0.0723,-0.0808,-0.0858,0.0,0.0,0.0,0.0,-0.1325,-0.1524,-0.1712,-0.1899,0.0,0.0,0.0,0.0,0.0,0.0,0.0,0.0,0.0,0.0,0.0,0.0,0.0,0.0,0.0,0.0,0.0,0.0,0.0,0.0,0.0,0.0,0.0,0.0,0.0,0.0,-0.8672,-0.8672,-0.8811,-0.8844,-0.8844,-0.8868,-0.8885,-0.8885,-0.8885,-0.8885,-0.8885,-0.9055,-0.9183,-0.921,-0.8961,-0.858,-0.8176,-0.7977,-0.749,-0.69,-0.69,-0.6532,-0.5855,-0.5485,-0.5177,-0.4872,-0.4439,-0.4009,-0.3455,-0.3146,-0.2775,-0.2406,0.0,0.0,0.0,0.0,0.0,0.0,0.0,0.0,0.0,0.0,0.0,0.0,0.0,0.0,0.0,0.0,0.0,0.0,-0.0326,0.0,0.0,-0.1241,-0.146,-0.1573,-0.1573,-0.1769,-0.194,-0.2066,0.0,0.0,0.0,0.0,0.0,-0.1777,0.0,-0.1505,-0.1381,-0.1232,-0.1026,-0.0808,-0.0791,-0.0672,-0.0504,-0.0504,-0.0504,-0.0504,-0.0521,-0.0639,-0.0808,-0.0808,-0.0942,0.0,0.0,0.0,-0.1247,-0.1462,-0.1571,-0.1688,0.0,0.0,0.0,0.0,0.0,0.0,0.0,0.0,0.0,0.0,0.0,0.0,0.0,0.0,0.0,0.0,0.0,0.0,0.0,0.0,0.0,0.0,0.0,0.0,0.0,0.0,-0.8513,-0.8513,-0.8655,-0.874,-0.874,-0.8811,-0.8885,-0.8885,-0.8885,-0.8885,-0.8885,-0.8902,-0.9028,-0.921,-0.8724,-0.8515,-0.8528,-0.7954,-0.7417,-0.69,-0.69,-0.6532,-0.5855,-0.5241,-0.4933,-0.4812,-0.4196,-0.3765,-0.3455,-0.3146,-0.2775,-0.2467,0.0,0.0,0.0,0.0,0.0,0.0,0.0,0.0,0.0,0.0,0.0,0.0,0.0,0.0,0.0,0.0247,-0.0045,-0.0382,-0.0761,-0.1052,-0.1285,-0.1457,-0.1621,-0.1732,-0.1765,-0.1898,-0.2005,-0.2096,0.0,0.0,0.0,-0.2071,-0.1983,0.0,0.0,0.0,0.0,-0.1327,-0.1108,-0.0858,-0.0808,-0.0723,-0.0605,-0.0521,-0.0504,-0.0504,-0.0504,-0.0622,-0.0808,-0.0808,-0.0942,-0.1111,-0.1128,0.0,0.0,0.0,-0.1434,0.0,-0.1926,0.0,0.0,0.0,0.0,0.0,0.0,0.0,0.0,0.0,0.0,0.0,0.0,0.0,0.0,0.0,0.0,0.0,0.0,0.0,0.0,0.0,0.0,0.0,0.0,0.0,-0.8364,-0.8364,-0.8499,-0.8618,-0.8706,-0.8774,-0.8797,-0.8881,-0.8885,-0.8885,-0.8885,-0.8885,-0.8971,-0.9035,-0.8499,-0.8308,-0.8369,-0.7802,-0.7342,-0.69,-0.69,-0.6532,-0.5857,-0.5179,-0.4873,-0.4812,-0.4134,-0.3765,-0.3455,-0.3146,-0.2775,-0.2467,0.0,0.0,0.0,0.0,0.0,0.0,0.0,0.0,0.0,0.0,0.0,0.0,0.0,0.0,0.0,0.0,-0.0247,-0.0628,-0.1116,-0.1296,-0.1466,-0.1669,-0.1809,-0.1905,-0.1978,-0.2026,-0.2088,0.0,0.0,0.0,-0.2325,-0.2239,-0.2139,0.0,-0.1943,-0.1781,0.0,0.0,0.0,-0.0947,-0.0895,-0.0824,-0.0719,-0.0614,-0.0561,-0.0526,-0.0561,-0.0684,-0.0823,-0.0846,-0.0979,-0.1114,-0.1099,-0.1128,0.0,0.0,0.0,0.0,0.0,0.0,0.0,0.0,0.0,0.0,0.0,0.0,0.0,0.0,0.0,0.0,0.0,0.0,0.0,0.0,0.0,0.0,0.0,0.0,0.0,0.0,0.0,0.0,0.0,0.0,-0.8211,-0.8211,-0.8347,-0.8479,-0.8591,-0.8632,-0.8723,-0.8821,-0.8824,-0.8844,-0.8885,-0.8885,-0.8885,-0.8885,-0.8376,-0.8159,-0.8196,-0.7662,-0.7236,-0.6943,-0.6848,-0.6508,-0.5855,-0.5241,-0.4995,-0.4872,-0.4258,-0.3825,-0.358,-0.3271,-0.29,-0.259,0.0,0.0,0.0,0.0,0.0,0.0,0.0,0.0,0.0,0.0,0.0,0.0,0.0652,0.0371,0.0101,-0.0157,-0.0371,-0.0718,-0.1252,-0.148,-0.168,-0.1872,-0.2008,0.0,-0.2187,-0.2187,-0.2251,0.0,0.0,0.0,-0.2391,-0.246,-0.2333,-0.2083,-0.1954,-0.1782,-0.1605,0.0,0.0,0.0,-0.1092,-0.0975,-0.0799,-0.078,-0.0702,-0.0604,0.0,-0.0838,-0.091,-0.096,-0.109,-0.1189,-0.1112,-0.1093,-0.1111,0.0,0.0,0.0,0.0,0.0,0.0,0.0,0.0,0.0,0.0,0.0,0.0,0.0,0.0,0.0,0.0,0.0,0.0,0.0,0.0,0.0,0.0,0.0,0.0,0.0,0.0,0.0,0.0,0.0,-0.8002,-0.8002,-0.8194,-0.8337,-0.8344,-0.8421,-0.8564,-0.8716,-0.8723,-0.8791,-0.8881,-0.8885,-0.8885,-0.8881,-0.8276,-0.8068,-0.8193,-0.7573,-0.7185,-0.6962,-0.6767,-0.6382,-0.5855,-0.5544,-0.5177,-0.4872,-0.4501,-0.4195,-0.3826,-0.358,-0.3271,-0.29,0.0,0.0,0.0,0.0,0.0,0.0,0.0,0.0,0.0,0.0,0.0,0.0,0.0,0.0259,-0.0034,-0.0304,-0.0752,-0.1154,-0.1469,-0.1643,-0.1821,-0.2019,-0.2078,-0.2151,-0.2263,-0.2263,-0.2286,0.0,0.0,-0.2444,-0.2456,-0.2405,-0.2277,-0.2097,-0.2007,-0.1832,-0.1605,-0.1605,0.0,0.0,0.0,0.0,0.0,0.0,0.0,0.0,0.0,0.0,0.0,-0.106,-0.1148,-0.1253,-0.119,-0.117,-0.1162,-0.114,-0.1244,0.0,0.0,0.0,0.0,0.0,0.0,0.0,0.0,0.0,0.0,0.0,0.0,0.0,0.0,0.0,0.0,0.0,0.0,0.0,0.0,0.0,0.0,0.0,0.0,0.0,0.0,0.0,0.0,-0.7982,-0.8092,-0.8167,-0.8316,-0.8371,-0.8414,-0.856,-0.8564,-0.8635,-0.8791,-0.8834,-0.8885,-0.8881,-0.8269,-0.8014,-0.8062,-0.75,-0.7118,-0.6832,-0.6638,-0.6339,-0.6066,-0.5522,-0.5192,-0.4872,-0.4501,-0.4195,-0.3889,-0.358,-0.3394,-0.3271,0.0,0.0,0.0,0.0,0.0,0.0,0.0,0.0,0.0,0.1341,0.0,0.0,0.0,0.0,-0.018,-0.0539,-0.1018,-0.1388,-0.1583,-0.1765,-0.1949,-0.2129,-0.2173,-0.225,-0.2366,-0.2366,-0.2355,0.0,0.0,0.0,0.0,-0.2364,-0.223,-0.2028,-0.1989,-0.1823,0.0,0.0,0.0,-0.1317,0.0,0.0,-0.1154,0.0,0.0,0.0,0.0,0.0,0.0,0.0,-0.1256,-0.1324,0.0,-0.1222,-0.1193,-0.1112,-0.1158,-0.1262,-0.1366,0.0,0.0,0.0,0.0,0.0,0.0,0.0,0.0,0.0,0.0,0.0,0.0,0.0,0.0,0.0,0.0,0.0,0.0,0.0,0.0,0.0,0.0,0.0,0.0,0.0,0.0,-0.7907,-0.7961,0.0,-0.8187,-0.8194,-0.8258,-0.8408,-0.8459,-0.8557,-0.871,-0.8811,-0.8834,-0.8881,-0.838,-0.81,-0.7989,-0.7546,-0.7201,-0.6938,-0.6542,-0.6318,-0.6149,-0.5614,-0.5169,-0.4799,-0.464,-0.4285,-0.3861,-0.3696,-0.358,-0.3455,0.0,0.0,0.0,0.0,0.0,0.0,0.0,0.0,0.1616,0.134,0.0,0.0,0.0,0.0,0.0,-0.0876,-0.1156,-0.1393,-0.16,-0.1857,-0.2059,-0.2193,-0.2333,-0.2436,-0.2495,-0.2506,-0.2468,0.0,0.0,0.0,0.0,0.0,-0.2215,-0.191,-0.1893,-0.1742,-0.1509,0.0,-0.1569,-0.1386,0.0,-0.1367,-0.1307,0.0,0.0,0.0,-0.1369,-0.1413,0.0,0.0,0.0,0.0,0.0,0.0,-0.1196,-0.1117,-0.11,-0.1142,0.0,0.0,0.0,0.0,0.0,0.0,0.0,0.0,0.0,0.0,0.0,0.0,0.0,0.0,0.0,0.0,0.0,0.0,0.0,0.0,0.0,0.0,0.0,0.0,0.0,0.0,-0.7562,-0.7756,-0.7894,-0.7978,-0.7982,-0.7988,-0.8109,-0.831,-0.8401,-0.8547,-0.8696,-0.8706,-0.8784,-0.8875,-0.8654,-0.8318,-0.7989,-0.7715,-0.7438,-0.7154,-0.655,-0.6221,-0.605,-0.5758,-0.5233,-0.4714,-0.4788,-0.4457,-0.3924,-0.3924,-0.3761,-0.3515,0.0,0.0,0.0,0.0,0.0,0.0,0.2231,0.2073,0.1848,0.0,0.0,0.0,0.0339,-0.0281,-0.0871,-0.1369,-0.1517,-0.169,-0.1938,-0.2035,-0.2129,-0.2263,-0.2355,-0.2436,-0.2495,-0.2506,-0.2495,-0.2468,0.0,0.0,0.0,0.0,0.0,0.0,-0.1845,-0.168,-0.1564,-0.1564,0.0,0.0,-0.1371,-0.1415,0.0,0.0,0.0,0.0,0.0,-0.1539,-0.1535,0.0,-0.1541,-0.152,0.0,0.0,0.0,-0.1252,-0.1246,-0.1263,-0.1319,0.0,0.0,0.0,0.0,0.0,0.0,0.0,0.0,0.0,0.0,0.0,0.0,0.0,0.0,0.0,0.0,0.0,0.0,0.0,0.0,0.0,0.0,0.0,0.0,0.0,-0.7119,0.0,-0.7699,-0.7767,-0.7868,-0.7931,-0.8008,-0.8102,-0.8252,-0.835,-0.8391,-0.8604,-0.873,-0.8774,-0.8604,-0.8429,-0.8318,-0.7826,-0.7551,-0.7438,-0.6826,-0.6473,-0.6197,-0.575,-0.5354,-0.5064,-0.479,-0.4501,-0.4089,-0.3872,-0.3787,-0.3763,0.0,0.0,0.0,0.0,0.0,0.2627,0.2369,0.2103,0.1802,0.0,0.0,0.0,0.0028,-0.0631,-0.1183,-0.1569,-0.1763,-0.1969,-0.2207,-0.2255,-0.2312,-0.2423,-0.2433,-0.2457,-0.2495,-0.2506,-0.2506,-0.2506,0.0,0.0,0.0,0.0,0.0,0.0,0.0,0.0,0.0,0.0,0.0,0.0,-0.1393,0.0,0.0,-0.1556,-0.1612,0.0,0.0,0.0,-0.1722,-0.1699,-0.1657,0.0,0.0,0.0,0.0,-0.1314,-0.1298,-0.1291,0.0,0.0,0.0,0.0,0.0,0.0,-0.223,-0.2479,0.0,0.0,0.0,0.0,0.0,0.0,0.0,0.0,0.0,0.0,0.0,0.0,0.0,0.0,0.0,0.0,0.0,-0.6617,-0.6945,-0.7495,-0.7563,-0.7662,-0.7804,-0.7896,-0.7924,-0.7988,-0.8126,-0.8204,-0.8323,-0.8442,-0.8557,-0.8618,-0.8601,-0.851,-0.8401,-0.7968,-0.7715,-0.7551,-0.6937,-0.6604,-0.6444,-0.5883,-0.5429,-0.5079,-0.4881,-0.4543,-0.4139,-0.3992,-0.3909,-0.3826,0.0,0.0,0.3294,0.3197,0.2889,0.2612,0.2511,0.2069,0.163,0.0,0.0829,0.0233,-0.0482,-0.0984,-0.1365,-0.1647,-0.1969,-0.2233,-0.2419,-0.2495,-0.2553,-0.2597,-0.2558,-0.2529,-0.2506,-0.2506,-0.2506,-0.2506,0.0,0.0,0.0,0.0,0.0,0.0,0.0,0.0,0.0,0.0,0.0,-0.1322,-0.145,-0.1505,0.0,0.0,-0.1753,0.0,-0.19,-0.1921,-0.1912,-0.1826,-0.173,0.0,0.0,0.0,0.0,0.0,-0.1329,0.0,0.0,0.0,0.0,0.0,0.0,0.0,-0.2073,-0.2336,-0.2581,0.0,0.0,0.0,0.0,0.0,0.0,0.0,0.0,0.0,0.0,0.0,0.0,0.0,0.0,0.0,-0.6175,-0.6476,-0.6805,-0.7274,-0.7478,-0.7631,-0.7753,-0.7794,-0.7875,-0.7961,-0.8031,-0.8156,-0.8296,-0.8313,-0.8385,-0.8514,-0.8611,-0.8578,-0.8316,-0.8127,-0.7861,-0.7584,-0.7043,-0.6771,-0.6657,-0.61,-0.5543,-0.4992,-0.5011,-0.4641,-0.4192,-0.4249,-0.4043,-0.3826,0.0,0.0,0.3365,0.3085,0.3022,0.2876,0.2475,0.2202,0.1833,0.1282,0.0488,-0.0278,-0.0909,-0.1345,-0.1748,-0.2133,-0.2316,-0.2477,-0.2631,-0.2703,-0.2698,-0.2602,-0.2687,-0.2672,-0.2506,-0.2506,-0.2506,-0.2506,-0.2366,0.0,0.0,0.0,0.0,0.0,0.0,0.0,0.0,0.0,0.0,-0.1385,-0.1479,0.0,-0.1585,-0.1733,-0.1815,-0.1903,-0.1963,-0.1986,-0.1976,0.0,-0.1819,-0.1749,0.0,0.0,0.0,0.0,0.0,0.0,0.0,0.0,0.0,0.0,0.0,0.0,-0.206,-0.2241,-0.2405,0.0,0.0,0.0,0.0,0.0,0.0,0.0,0.0,0.0,0.0,0.0,0.0,0.0,0.0,0.0,-0.5787,-0.5996,-0.6324,-0.674,-0.7171,-0.7428,-0.7455,-0.7682,-0.7824,-0.7855,-0.8171,-0.8347,-0.8378,-0.8559,-0.8641,-0.8669,-0.8563,-0.8526,-0.848,-0.8309,-0.8049,-0.7723,-0.7506,-0.716,-0.6715,-0.6546,-0.6156,-0.5601,-0.5116,-0.4841,-0.4731,-0.4519,-0.4279,-0.4045,0.0,0.3558,0.3362,0.3264,0.3078,0.2843,0.2503,0.2139,0.1714,0.1218,0.0267,-0.055,-0.1042,-0.1511,-0.1959,-0.2366,-0.2652,-0.2835,-0.2939,-0.3049,-0.3045,-0.2904,-0.2931,-0.2859,-0.2646,-0.2653,-0.2583,-0.2446,-0.2355,-0.2235,0.0,0.0,0.0,0.0,0.0,0.0,0.0,0.0,-0.1547,-0.145,-0.153,0.0,-0.1605,-0.1782,-0.1905,-0.1965,-0.2027,-0.2049,-0.204,-0.1977,-0.1916,0.0,0.0,-0.171,-0.1649,0.0,-0.1545,-0.1532,0.0,0.0,0.0,-0.1486,0.0,0.0,0.0,-0.2135,-0.2331,-0.2424,0.0,0.0,0.0,0.0,0.0,0.0,0.0,0.0,0.0,0.0,0.0,0.0,0.0,0.0,-0.5508,-0.5775,-0.6153,-0.6632,-0.6977,-0.7183,-0.7251,-0.7468,-0.7709,-0.8004,-0.8181,-0.8406,-0.8577,-0.8711,-0.8751,-0.8754,-0.8764,-0.8736,-0.8584,-0.8424,-0.8169,-0.7905,-0.7546,-0.7248,-0.6924,-0.6658,-0.6416,-0.6083,-0.5579,-0.5152,-0.4873,-0.4761,-0.4506,-0.4317,0.3935,0.0,0.3406,0.3448,0.3097,0.2713,0.2476,0.1996,0.1464,0.0936,0.0,-0.0797,-0.1228,-0.173,-0.2195,-0.2554,-0.295,-0.3192,-0.3231,-0.3421,-0.3438,-0.3247,-0.3224,-0.31,-0.2859,-0.2816,-0.2688,-0.2462,-0.2351,-0.2235,0.0,0.0,0.0,0.0,0.0,0.0,0.0,0.0,0.0,-0.1593,0.0,-0.1616,-0.1611,-0.1827,-0.1959,-0.2013,-0.2087,-0.2113,-0.2103,-0.2041,0.0,-0.1934,-0.1835,-0.1779,0.0,0.0,0.0,0.0,0.0,0.0,0.0,0.0,0.0,-0.1811,0.0,0.0,0.0,-0.2302,0.0,0.0,0.0,0.0,0.0,0.0,0.0,0.0,0.0,0.0,0.0,0.0,0.0,0.0,-0.524,-0.5623,-0.608,-0.6566,-0.6783,-0.6906,-0.7048,-0.7289,-0.7639,-0.8108,-0.8272,-0.8508,-0.8826,-0.8859,-0.8874,-0.8878,-0.9013,-0.8928,-0.8733,-0.8526,-0.8285,-0.8027,-0.7577,-0.7273,-0.7167,-0.6751,-0.6541,-0.6416,-0.5976,-0.5472,-0.5041,-0.5043,-0.4817,-0.4601,0.4107,0.3894,0.0,0.3372,0.3034,0.267,0.2298,0.1823,0.1164,0.0164,-0.0645,-0.133,-0.1846,0.0,0.0,0.0,0.0,0.0,-0.3375,0.0,-0.3773,-0.3396,-0.3547,-0.3452,-0.3077,-0.2892,-0.2763,-0.2664,-0.2422,-0.2235,-0.21,0.0,0.0,0.0,-0.171,0.0,0.0,0.0,-0.1788,0.0,-0.1831,-0.1717,0.0,-0.1903,-0.1997,-0.2019,-0.2135,-0.2177,-0.2168,0.0,-0.208,-0.2053,0.0,-0.1896,-0.1839,0.0,0.0,0.0,0.0,0.0,0.0,0.0,-0.168,0.0,0.0,0.0,-0.2236,-0.229,0.0,0.0,0.0,0.0,0.0,0.0,0.0,0.0,0.0,0.0,0.0,0.0,0.0,-0.4714,-0.4764,-0.5357,-0.5902,-0.6308,-0.6569,-0.6793,-0.6903,-0.7271,-0.7565,-0.7731,-0.8528,-0.8935,-0.8954,-0.9105,-0.9133,-0.9133,-0.8947,-0.8801,-0.8809,-0.8726,-0.8494,-0.8145,-0.8011,-0.7641,-0.7217,-0.7115,-0.6809,-0.6361,-0.5816,-0.5634,-0.5654,-0.5435,-0.5156,-0.4875,0.4237,0.39,0.0,0.3294,0.2994,0.2639,0.2154,0.1426,0.0633,-0.018,-0.0857,-0.1452,0.0,0.0,0.0,0.0,0.0,-0.3753,0.0,0.0,-0.4085,-0.376,-0.3787,-0.3697,-0.3452,-0.3251,-0.3045,-0.2812,-0.2591,-0.2369,-0.2157,-0.2058,0.0,0.0,-0.1879,0.0,-0.199,0.0,0.0,0.0,0.0,0.0,0.0,-0.1967,-0.2048,-0.2117,-0.217,-0.2188,-0.2183,0.0,-0.2125,0.0,0.0,0.0,0.0,0.0,0.0,0.0,0.0,0.0,0.0,0.0,0.0,0.0,-0.1867,0.0,-0.2211,0.0,0.0,0.0,0.0,0.0,0.0,0.0,-0.2804,0.0,0.0,0.0,0.0,0.0,0.0,0.0,-0.4777,-0.5171,-0.5585,-0.5996,-0.6313,-0.6474,-0.6539,-0.7098,-0.7523,-0.7815,-0.841,-0.8867,-0.9208,-0.9284,-0.9376,-0.943,-0.9327,-0.9179,-0.9034,-0.9007,-0.8736,-0.8287,-0.8099,-0.7769,-0.7409,-0.7103,-0.6893,-0.6709,-0.6175,-0.5815,-0.568,-0.5573,-0.5388,-0.5212,0.4241,0.0,0.0,0.0,0.0,0.2419,0.1794,0.095,0.0,0.0,0.0,0.0,-0.2228,-0.2591,0.0,0.0,-0.3859,-0.404,0.0,0.0,-0.4391,0.0,0.0,0.0,-0.371,-0.3499,-0.3248,-0.2956,-0.2755,-0.2523,-0.2281,-0.2226,0.0,0.0,0.0,-0.2021,-0.2032,0.0,0.0,-0.2119,-0.2168,-0.2183,-0.2142,-0.2048,-0.2095,-0.2188,-0.2188,-0.2188,-0.2188,-0.2188,-0.2157,0.0,-0.21,0.0,0.0,0.0,0.0,0.0,-0.1748,0.0,0.0,0.0,0.0,0.0,0.0,0.0,0.0,0.0,0.0,0.0,0.0,0.0,0.0,-0.2392,0.0,-0.2798,0.0,0.0,0.0,0.0,0.0,0.0,0.0,-0.4962,-0.5294,-0.5646,-0.5999,-0.6211,-0.637,-0.6887,-0.7394,-0.7865,-0.8306,-0.8764,-0.9253,-0.9399,-0.9518,-0.9555,-0.9653,-0.9579,-0.9282,-0.9236,-0.8985,-0.8584,-0.8237,-0.7942,-0.7696,-0.7194,-0.7,-0.6884,-0.6524,-0.6128,-0.5759,-0.5679,-0.5589,-0.5454,0.4081,0.3837,0.0,0.0,0.0,0.0,0.0,0.0,0.0,0.0,0.0,0.0,0.0,0.0,0.0,0.0,0.0,-0.4247,-0.437,0.0,-0.4677,0.0,0.0,-0.43,0.0,-0.3504,-0.3293,-0.3097,-0.2884,-0.2686,-0.2486,-0.2486,-0.2378,0.0,0.0,-0.2102,-0.2095,-0.2019,-0.2151,-0.2384,-0.2263,-0.2302,-0.2468,0.0,-0.2132,-0.2188,-0.2188,0.0,0.0,-0.2188,-0.2186,0.0,0.0,0.0,0.0,0.0,0.0,0.0,0.0,0.0,0.0,-0.1719,0.0,0.0,0.0,0.0,-0.2384,0.0,0.0,0.0,0.0,0.0,-0.2392,-0.2392,-0.262,0.0,0.0,0.0,0.0,0.0,0.0,0.0,0.0,-0.4716,-0.5043,-0.5376,-0.5647,-0.6052,-0.6546,-0.6806,-0.723,-0.7858,-0.8348,-0.8662,-0.8836,-0.946,-0.9644,-0.9412,-0.9788,-0.9826,-0.9579,-0.9331,-0.9187,-0.9137,-0.863,-0.8233,-0.7992,-0.7696,-0.7247,-0.6801,-0.6801,-0.6526,-0.6135,-0.5975,-0.5757,-0.5569,0.0,0.0,0.0,0.0,0.0,0.0,0.0,0.0455,0.0,0.0,0.0,0.0,0.0,0.0,-0.356,0.0,0.0,-0.4489,-0.4522,-0.4816,0.0,0.0,0.0,-0.4414,0.0,0.0,0.0,-0.3424,-0.3054,-0.2792,0.0,0.0,0.0,0.0,0.0,-0.2301,0.0,0.0,0.0,0.0,0.0,-0.2584,-0.26,0.0,0.0,-0.2322,-0.2221,-0.2188,0.0,-0.2188,-0.2188,-0.2183,-0.2163,-0.2128,-0.2087,-0.2045,-0.2004,0.0,0.0,0.0,-0.1839,-0.1781,0.0,0.0,0.0,0.0,0.0,0.0,0.0,0.0,0.0,0.0,-0.2327,-0.2327,-0.2491,-0.259,0.0,0.0,0.0,0.0,0.0,0.0,0.0,0.0,0.0,-0.5167,-0.5396,-0.5703,-0.6047,-0.6611,-0.706,-0.7437,-0.8082,-0.8558,-0.8867,-0.92,-0.9541,-0.9844,-1.0005,-1.0002,-0.9871,-0.9776,-0.9529,-0.9187,-0.8829,-0.8531,-0.8233,-0.7793,-0.7497,-0.7294,-0.6945,-0.672,-0.6569,-0.6228,-0.597,-0.5801,0.384,0.0,0.0,0.0,0.0,0.0,0.0,0.0,0.0,0.0,-0.1508,0.0,-0.2639,0.0,-0.3662,0.0,-0.4436,-0.4642,-0.47,-0.4965,0.0,-0.4908,-0.473,0.0,0.0,0.0,0.0,0.0,0.0,-0.2935,0.0,0.0,0.0,0.0,0.0,0.0,-0.2192,0.0,-0.2488,0.0,0.0,-0.2805,0.0,0.0,-0.2517,-0.249,0.0,-0.2255,-0.2255,-0.2221,-0.2188,-0.2188,-0.2188,-0.216,-0.2124,-0.2102,-0.2067,-0.2022,-0.1961,-0.1927,0.0,-0.1837,-0.1893,0.0,-0.2113,0.0,0.0,0.0,0.0,0.0,0.0,0.0,-0.238,-0.2314,-0.2442,-0.2569,0.0,-0.2819,0.0,0.0,0.0,0.0,0.0,0.0,-0.4585,-0.4854,-0.5198,-0.551,0.0,-0.6458,-0.6976,-0.7292,-0.7988,-0.8492,-0.8806,-0.9237,-0.9583,-0.9883,-1.0113,-1.0097,-0.9922,-0.9989,-0.9776,-0.9335,-0.908,-0.8779,-0.8528,-0.8088,-0.7793,-0.7547,-0.7194,-0.7042,-0.6901,-0.6428,-0.6171,-0.5967,0.0,0.0,0.0,0.0,0.1741,0.0,0.0,0.0,-0.046,0.0,-0.1534,-0.2144,-0.2814,-0.3326,-0.3749,-0.4062,-0.4417,0.0,-0.4877,-0.5012,0.0,0.0,-0.5077,-0.4843,-0.4329,0.0,0.0,0.0,0.0,0.0,0.0,0.0,0.0,0.0,-0.2469,0.0,-0.2312,-0.2452,-0.2548,-0.2643,-0.2901,-0.3015,-0.3005,-0.2992,-0.2889,-0.2686,-0.249,-0.2424,-0.2391,-0.2255,-0.2221,-0.2188,-0.2188,-0.2188,-0.2177,-0.2117,-0.2099,-0.2087,-0.2024,-0.1965,-0.1919,-0.1916,-0.1955,0.0,0.0,0.0,-0.2521,0.0,0.0,0.0,0.0,0.0,0.0,-0.2347,-0.2479,-0.2674,-0.2862,0.0,0.0,0.0,0.0,0.0,0.0,-0.3959,-0.4288,-0.4491,-0.504,0.0,0.0,-0.6395,-0.6912,-0.7447,-0.8053,-0.8462,-0.8607,-0.9464,-0.9759,-0.956,-1.0211,-1.0201,-0.974,-0.9922,-0.9867,-0.9579,-0.9331,-0.9031,-0.8775,-0.8528,-0.8088,-0.7596,-0.7596,-0.7444,-0.7138,-0.6637,-0.6311,-0.6169,0.3532,0.2883,0.2244,0.0,0.141,0.0935,0.0,0.0,0.0,0.0,-0.1678,-0.2218,-0.264,-0.3378,-0.3874,-0.4025,-0.4431,0.0,0.0,0.0,0.0,-0.4966,-0.4951,-0.4828,-0.453,-0.418,0.0,-0.3738,0.0,0.0,-0.2944,0.0,0.0,0.0,0.0,0.0,-0.2322,-0.2705,-0.2866,-0.2834,-0.3075,-0.3077,0.0,0.0,-0.3125,-0.3023,-0.2721,-0.2522,-0.2391,-0.2357,-0.2288,-0.2188,-0.2188,-0.2188,-0.2185,-0.2168,-0.2164,-0.215,-0.2088,-0.206,-0.2037,-0.1991,-0.1963,-0.1974,0.0,0.0,0.0,0.0,0.0,0.0,0.0,0.0,0.0,-0.2519,-0.2569,-0.2674,0.0,0.0,0.0,-0.289,0.0,0.0,0.0,-0.3826,-0.4174,-0.4474,-0.4745,0.0,0.0,0.0,-0.6579,-0.7114,-0.7672,-0.8179,-0.8669,-0.9215,-0.966,-1.0097,-1.029,-1.0222,-0.9988,-1.0036,-0.9892,-0.9579,-0.9331,-0.9031,-0.8775,-0.8528,-0.8187,-0.7892,-0.7696,-0.7444,-0.7138,-0.6842,-0.6559,-0.6351,0.3562,0.0,0.0,0.1449,0.0,0.0,0.0325,0.0,0.0,-0.1158,-0.1757,0.0,-0.2639,-0.3474,-0.3998,-0.4042,-0.4515,0.0,-0.4818,0.0,0.0,-0.4992,-0.4979,-0.4904,-0.4724,-0.4332,0.0,-0.3814,0.0,0.0,-0.2954,0.0,0.0,0.0,0.0,-0.2533,0.0,-0.2858,-0.2999,-0.3014,-0.3214,0.0,0.0,-0.3257,-0.3261,-0.3159,-0.2989,-0.2822,-0.2624,-0.2456,-0.2357,-0.2288,-0.2221,-0.2188,-0.2188,-0.2188,-0.2188,-0.2179,-0.2145,-0.2116,-0.2087,-0.2052,-0.1997,-0.2011,-0.2222,-0.2281,-0.2399,0.0,-0.2719,-0.275,0.0,0.0,0.0,0.0,0.0,0.0,0.0,0.0,0.0,0.0,-0.3084,0.0,0.0,-0.3666,-0.4016,-0.4253,-0.4636,0.0,0.0,0.0,-0.6545,-0.7114,-0.7638,-0.8212,-0.8837,-0.9252,-0.9685,-1.018,-1.0274,-1.0122,-0.9839,-1.0009,-0.99,-0.9514,-0.9395,-0.9229,-0.8977,-0.868,-0.8432,-0.8137,-0.7892,-0.7593,-0.7341,-0.7194,-0.6892,-0.655,0.0,0.0,0.0,0.0,0.0,0.0,0.0,-0.0234,0.0,-0.1286,0.0,-0.2313,-0.2727,-0.3522,-0.4053,-0.4128,0.0,-0.48,-0.4691,-0.5029,-0.5177,-0.5081,-0.5071,-0.501,-0.4873,-0.4558,0.0,0.0,0.0,-0.3323,-0.2949,-0.2722,0.0,0.0,0.0,0.0,0.0,-0.2965,-0.3097,-0.3168,-0.3368,-0.3366,-0.3272,-0.3427,-0.3395,-0.3228,-0.3192,-0.3125,-0.2958,-0.2591,-0.2456,-0.2391,-0.2255,-0.2221,-0.2188,-0.2188,-0.2188,-0.2188,-0.2188,-0.2149,-0.2107,-0.2107,-0.2062,-0.2046,-0.2171,-0.235,-0.253,-0.2684,-0.2779,-0.281,0.0,0.0,0.0,0.0,0.0,0.0,0.0,0.0,0.0,0.0,0.0,0.0,0.0,0.0,0.0,0.0,0.0,0.0,0.0,0.0,-0.661,-0.7214,-0.7747,-0.8328,-0.8923,-0.9363,-0.971,-0.9956,-1.0175,-0.9979,-0.952,-0.9856,-0.9793,-0.9412,-0.9522,-0.941,-0.9187,-0.8928,-0.8627,-0.8333,-0.8088,-0.7842,-0.7646,-0.7596,-0.7297,-0.6845,0.0,0.0,0.0,0.0,0.0,0.0743,0.0392,-0.0125,-0.0772,-0.1529,-0.1777,-0.2079,-0.2577,-0.3283,-0.3865,-0.4309,-0.4482,0.0,0.0,0.0,0.0,-0.4929,-0.4925,-0.4866,-0.4746,-0.456,-0.4315,0.0,-0.3696,-0.3471,-0.3229,-0.2913,0.0,0.0,0.0,0.0,-0.311,-0.3274,0.0,-0.345,-0.3585,-0.3597,-0.353,-0.352,-0.3464,-0.3431,-0.3261,-0.3125,-0.2989,-0.2922,-0.269,-0.2391,-0.2357,-0.2288,-0.2188,-0.2188,-0.2188,-0.2188,-0.2188,-0.2179,-0.2171,-0.2171,-0.2125,-0.2112,-0.2239,-0.2387,-0.253,-0.2684,-0.2852,-0.2941,-0.281,0.0,0.0,0.0,0.0,0.0,0.0,0.0,0.0,0.0,0.0,-0.3192,0.0,0.0,0.0,0.0,0.0,0.0,0.0,0.0,-0.6238,0.0,-0.7386,0.0,0.0,0.0,-0.9446,-0.9658,-0.9908,-0.9881,-0.9511,-0.9581,-0.955,-0.9404,-0.9437,-0.9344,-0.9187,-0.8928,-0.8531,-0.8088,-0.8041,-0.7992,-0.7892,-0.7696,-0.7547,-0.7397,0.0,0.0,0.0,0.0,0.0,0.0,0.0,-0.0193,0.0,-0.1309,-0.1621,-0.2049,-0.273,-0.3326,-0.3868,-0.4251,-0.4571,-0.4777,-0.4745,-0.4783,-0.4804,-0.4812,-0.4867,0.0,-0.466,-0.455,-0.4382,-0.4112,-0.3836,-0.3612,-0.3445,-0.3085,0.0,0.0,0.0,-0.2978,0.0,0.0,0.0,-0.365,-0.3769,-0.376,-0.3712,-0.3756,-0.3663,-0.3498,-0.3395,-0.3261,-0.3092,-0.3023,-0.2857,-0.269,-0.2456,-0.2357,-0.2288,-0.2221,-0.2188,-0.2188,-0.2188,-0.2188,-0.2188,-0.2188,-0.2165,-0.2176,-0.2242,-0.2445,-0.2613,-0.2679,-0.29,-0.3028,-0.2909,-0.2821,0.0,0.0,0.0,0.0,0.0,0.0,0.0,0.0,0.0,0.0,0.0,0.0,0.0,0.0,0.0,0.0,0.0,0.0,-0.6144,0.0,0.0,0.0,-0.8399,0.0,-0.939,-0.9606,-0.9856,-0.9789,-0.9407,-0.9463,-0.9333,-0.9088,-0.9322,-0.9356,-0.9299,-0.8939,-0.8581,-0.8187,-0.8038,-0.7988,-0.7988,-0.7842,-0.7693,-0.7547,0.0,0.2248,0.0,0.0,0.0755,0.0,-0.0189,-0.0468,-0.0799,-0.12,-0.1478,-0.1952,-0.2806,-0.345,-0.3882,-0.4079,-0.4587,-0.4897,-0.4841,-0.4848,-0.4816,-0.4688,-0.48,-0.4766,-0.4593,-0.4549,-0.4415,0.0,-0.3998,-0.3799,-0.3645,-0.3258,-0.3058,0.0,0.0,0.0,0.0,0.0,-0.3627,-0.3832,-0.3925,-0.3919,-0.3903,-0.3962,-0.383,-0.3598,-0.3531,-0.3395,-0.3228,-0.3092,-0.3023,-0.2958,-0.2624,-0.2458,-0.2391,-0.2288,-0.2221,-0.2188,-0.2188,-0.2188,-0.2188,-0.2188,-0.2188,-0.2188,-0.2188,-0.2453,-0.2686,-0.2686,-0.2923,-0.3068,-0.3026,-0.2913,0.0,0.0,0.0,0.0,0.0,0.0,0.0,0.0,0.0,0.0,-0.3247,0.0,0.0,0.0,0.0,0.0,-0.4892,0.0,0.0,0.0,0.0,-0.7816,-0.8271,0.0,-0.9366,-0.954,-0.9833,-0.9738,-0.931,-0.942,-0.9197,-0.8836,-0.9161,-0.9344,-0.9324,-0.9023,-0.868,-0.8382,-0.8187,-0.8038,-0.7988,-0.7988,-0.7842,-0.7596,0.0,0.0,0.0,0.0,0.0,0.0,-0.0901,-0.113,-0.1335,-0.1675,-0.1394,-0.1512,-0.2432,-0.3285,-0.3802,-0.3841,-0.4309,-0.4735,-0.496,-0.4818,-0.4706,-0.4688,-0.465,-0.4614,-0.4607,-0.4584,-0.4468,0.0,-0.4177,-0.4031,-0.3771,-0.3505,-0.3245,0.0,0.0,0.0,0.0,-0.3654,-0.3827,-0.3897,-0.4019,-0.414,-0.4251,-0.4059,-0.3995,-0.3928,-0.3598,-0.3498,-0.3431,-0.3261,-0.3092,-0.2989,-0.2958,-0.269,-0.2391,-0.2391,-0.2288,-0.2188,-0.2188,-0.2188,-0.2188,-0.2188,-0.2188,-0.2188,-0.2188,-0.2453,-0.2686,-0.2686,-0.2923,-0.3089,-0.3079,-0.3034,-0.3006,0.0,0.0,0.0,0.0,0.0,0.0,0.0,0.0,0.0,0.0,-0.352,0.0,0.0,-0.419,0.0,0.0,0.0,0.0,-0.6137,-0.7106,-0.7686,-0.7856,-0.8813,-0.9291,-0.9319,-0.9805,-0.9738,-0.9305,-0.9323,-0.9114,-0.8832,-0.9035,-0.9164,-0.9213,-0.9175,-0.8882,-0.8382,-0.8382,-0.8237,-0.7988,-0.7988,-0.7988,-0.7942,0.0,0.0,0.0,0.0,0.0,0.0,0.0,-0.1264,-0.1522,-0.214,-0.206,-0.2065,-0.2461,-0.3294,-0.3802,-0.3802,-0.4428,-0.4898,-0.4979,-0.4836,-0.4756,-0.4692,-0.4634,-0.4534,-0.4408,-0.4542,-0.4476,0.0,0.0,-0.3979,-0.3805,-0.3529,-0.3297,0.0,0.0,-0.3441,-0.3523,-0.3712,-0.3895,-0.4016,-0.4067,-0.4191,-0.43,-0.4197,-0.4097,-0.3961,-0.3761,-0.3596,-0.3464,-0.3261,-0.3159,-0.3092,-0.3023,-0.2891,-0.2725,-0.2458,-0.2357,-0.2288,-0.2221,-0.2188,-0.2188,-0.2188,-0.2188,-0.2221,-0.2288,-0.2522,-0.272,-0.2855,-0.3029,-0.3173,-0.3173,-0.3097,-0.3086,-0.3175,0.0,0.0,0.0,0.0,0.0,0.0,0.0,0.0,0.0,0.0,0.0,0.0,0.0,0.0,0.0,0.0,0.0,-0.5975,0.0,-0.7637,-0.7668,-0.8755,-0.9282,-0.9286,-0.9795,-0.9738,-0.9305,-0.9305,-0.9161,-0.8991,-0.9064,-0.9251,-0.943,-0.9282,-0.8985,-0.8627,-0.8482,-0.8233,-0.7988,-0.7988,-0.7988,-0.7988,0.1297,0.0,0.06,0.0,-0.0225,-0.0589,-0.1218,-0.1296,-0.1571,-0.2393,-0.2511,-0.2511,-0.2511,-0.3294,-0.3802,-0.3802,-0.4548,-0.5018,-0.5018,-0.4912,-0.4781,-0.4662,-0.4579,0.0,-0.4308,-0.4423,-0.4409,-0.4228,-0.4149,-0.402,-0.3848,-0.3588,0.0,0.0,-0.3449,-0.3572,-0.3694,-0.3841,-0.396,-0.4089,-0.4156,-0.4224,-0.43,-0.43,-0.4197,-0.4064,-0.3925,-0.3727,-0.3563,-0.3362,-0.3261,-0.3192,-0.3092,-0.3023,-0.2958,-0.2658,-0.2523,-0.2455,-0.2388,-0.2287,-0.2288,-0.2321,-0.2288,-0.2288,-0.2456,-0.2654,-0.2855,-0.3023,-0.3125,-0.3192,-0.3192,-0.3175,-0.3154,-0.3223,0.0,0.0,0.0,0.0,0.0,0.0,-0.3658,-0.3717,-0.3532,-0.3715,0.0,0.0,0.0,0.0,0.0,0.0,0.0,0.0,0.0,0.0,-0.7602,-0.8716,-0.9282,-0.9286,-0.971,-0.9694,-0.9305,-0.9174,-0.9085,-0.9019,-0.9076,-0.9271,-0.9551,-0.9361,-0.9179,-0.8878,-0.863,-0.8333,-0.8088,-0.8038,-0.7988,-0.7988,0.1424,0.0588,0.0,0.0,-0.0706,-0.1296,-0.1296,-0.1296,-0.1571,-0.2393,-0.2511,-0.2511,-0.2511,-0.3294,-0.3802,-0.3802,-0.4548,-0.5018,-0.5018,-0.5015,-0.4833,0.0,0.0,-0.4449,-0.43,-0.4313,-0.4313,-0.431,0.0,0.0,-0.399,0.0,-0.36,-0.3613,-0.3728,-0.3846,-0.3908,-0.4029,-0.4083,-0.4097,-0.4249,-0.43,-0.43,-0.43,-0.43,-0.4267,-0.4064,-0.3925,-0.3758,-0.3563,-0.3362,-0.3192,-0.3192,-0.3092,-0.2989,-0.2989,-0.2855,-0.2686,-0.2686,-0.2555,-0.2456,-0.2654,-0.2555,-0.2456,-0.2654,-0.2855,-0.3025,-0.3159,-0.3192,-0.3192,-0.3192,-0.3192,-0.3162,-0.3105,0.0,0.0,0.0,0.0,0.0,0.0,-0.3713,-0.379,-0.3787,-0.3923,0.0,0.0,0.0,0.0,0.0,0.0,0.0,-0.5888,-0.6992,0.0,-0.7602,-0.8716,-0.9282,-0.9286,-0.9496,-0.9515,-0.9301,-0.8828,-0.8662,-0.8832,-0.9019,-0.9198,-0.942,-0.9555,-0.943,-0.9183,-0.8878,-0.8627,-0.8382,-0.8088,-0.7988,-0.7988,0.1327,0.0589,0.0,0.0,-0.0707,-0.1296,-0.1296,-0.1766,-0.2198,-0.247,-0.2511,-0.2744,-0.3333,-0.3645,-0.3802,0.0,-0.4038,-0.4428,0.0,-0.5018,-0.4933,-0.4831,-0.4537,-0.4374,-0.4449,-0.4336,-0.4268,-0.415,0.0,0.0,0.0,-0.3842,-0.3816,-0.3795,-0.386,-0.3944,-0.4029,-0.407,-0.4164,-0.4246,-0.4284,-0.43,-0.43,-0.43,-0.43,-0.4267,-0.4064,-0.3961,-0.3894,-0.3598,-0.3464,-0.3395,-0.3228,-0.3159,-0.3125,-0.3023,-0.2956,-0.2889,-0.2753,-0.2654,-0.2621,-0.2686,-0.2654,-0.2654,-0.2855,-0.3023,-0.3159,-0.3192,-0.3192,-0.3192,-0.3192,-0.3192,-0.3184,-0.3187,-0.331,0.0,-0.3374,0.0,0.0,-0.3716,-0.3847,-0.3947,-0.3934,-0.4046,0.0,0.0,0.0,0.0,0.0,0.0,0.0,0.0,-0.7125,0.0,-0.7752,-0.8786,-0.9282,-0.9286,-0.9496,-0.9388,-0.8999,-0.874,-0.8662,-0.8832,-0.9015,-0.9198,-0.9416,-0.9551,-0.943,-0.9183,-0.8928,-0.8627,-0.8382,-0.8088,-0.7988,-0.7975,0.0864,0.0393,-0.0118,-0.0432,-0.0943,-0.1296,-0.1296,-0.2002,-0.2511,-0.2511,-0.2511,-0.2823,-0.3724,-0.3802,0.0,-0.3802,-0.3802,-0.4155,-0.4937,-0.5018,-0.5018,-0.5018,-0.473,-0.4518,-0.4443,-0.4379,0.0,-0.4186,-0.414,-0.4046,-0.397,-0.3924,-0.3927,-0.3973,-0.3973,-0.404,-0.4186,-0.4186,-0.423,-0.43,-0.43,-0.43,-0.43,-0.43,-0.43,-0.43,-0.4164,-0.4061,-0.3961,-0.3763,-0.3598,-0.3464,-0.3362,-0.3261,-0.3192,-0.3092,-0.3092,-0.3058,-0.2922,-0.2855,-0.282,-0.2889,-0.2855,-0.2855,-0.3025,-0.3125,-0.3192,-0.3192,-0.3192,-0.3192,-0.3192,-0.3192,-0.3192,-0.3192,-0.33,-0.3388,-0.3388,0.0,-0.3638,0.0,0.0,0.0,0.0,-0.4324,-0.4603,0.0,0.0,0.0,0.0,0.0,0.0,-0.6375,-0.7186,-0.7654,-0.7803,-0.8813,-0.9282,-0.9286,-0.9411,-0.9257,-0.8784,-0.8652,-0.8625,-0.8739,-0.8991,-0.9161,-0.9326,-0.9527,-0.948,-0.9331,-0.8928,-0.8676,-0.8528,-0.8137,-0.7955,-0.7891,0.0157,-0.0039,-0.0353,0.0,-0.1296,0.0,-0.1375,-0.2002,-0.2511,-0.2511,-0.2511,-0.2823,-0.3724,-0.3802,-0.3802,-0.3802,0.0,0.0,0.0,-0.5018,-0.5018,-0.5018,-0.5018,-0.4809,-0.436,-0.4431,-0.4457,-0.4311,-0.4189,-0.4097,-0.4094,-0.3981,-0.3989,-0.4097,-0.4097,-0.4194,-0.43,-0.43,-0.43,-0.43,-0.43,-0.4306,-0.4311,-0.4311,-0.4317,-0.4325,-0.4317,-0.4208,-0.4038,-0.3997,-0.3797,-0.3531,-0.3498,-0.3362,-0.3192,-0.3192,-0.3192,-0.3192,-0.3192,-0.3125,-0.3058,-0.3159,-0.3092,-0.3058,-0.3159,-0.3192,-0.3192,-0.3192,-0.3192,-0.3192,-0.3192,-0.3192,-0.3192,-0.3192,-0.3304,-0.3399,-0.3399,-0.3542,-0.368,0.0,0.0,0.0,-0.4222,-0.4705,-0.5078,0.0,0.0,0.0,0.0,0.0,-0.6298,-0.6448,-0.7211,-0.7672,-0.7821,-0.8818,-0.9296,-0.9292,-0.93,-0.9043,-0.8612,-0.8612,-0.8612,-0.8633,-0.893,-0.9084,-0.9125,-0.9466,-0.9567,-0.9529,-0.9023,-0.8825,-0.8726,-0.8173,-0.7884,-0.7807,0.0,0.0,-0.1061,-0.1257,-0.1296,-0.1492,-0.2119,-0.2393,-0.2511,-0.2511,-0.2511,-0.2823,-0.3724,-0.3802,-0.3802,-0.3802,-0.435,-0.4781,-0.4979,-0.5018,-0.5018,-0.5018,-0.5018,-0.4963,-0.4849,-0.4599,-0.449,-0.4465,-0.4314,-0.4257,-0.4257,-0.4227,-0.423,-0.4257,-0.4257,-0.4273,-0.43,-0.43,-0.43,-0.43,-0.43,-0.4352,-0.4465,-0.4465,-0.4523,-0.4591,-0.4498,-0.4431,-0.4346,-0.409,-0.3894,-0.3694,-0.3563,-0.3362,-0.3192,-0.3192,-0.3192,-0.3192,-0.3192,-0.3192,-0.3159,-0.3192,-0.3192,-0.3159,-0.3192,-0.3192,-0.3192,-0.3192,-0.3192,-0.3192,-0.3192,-0.3192,-0.3192,-0.3192,-0.3396,-0.3539,-0.3539,-0.3658,-0.3891,0.0,-0.4209,-0.4307,-0.4684,-0.4989,-0.522,0.0,0.0,0.0,-0.6343,-0.6489,-0.6682,-0.6857,-0.7434,-0.7834,-0.8031,-0.8857,-0.9317,-0.9293,-0.9305,-0.9043,-0.8612,-0.8612,-0.8612,-0.8624,-0.8792,-0.8966,-0.9116,-0.9332,-0.9502,-0.9529,-0.9023,-0.8825,-0.8711,-0.8101,-0.7841,-0.778,0.0,-0.0707,-0.1296,-0.1296,-0.1609,-0.2002,-0.2433,-0.2511,-0.2511,-0.2511,-0.2862,-0.3294,-0.3763,-0.3802,-0.3802,-0.3802,-0.4548,-0.5018,-0.5018,-0.5018,-0.5018,-0.5018,-0.5018,-0.5018,-0.5018,-0.4809,-0.4689,-0.4588,-0.4528,-0.4495,-0.4495,-0.4495,-0.4495,-0.4495,-0.4495,-0.4495,-0.4495,-0.4495,-0.4495,-0.4495,-0.4495,-0.4534,-0.4588,-0.4588,-0.4629,-0.4681,-0.4613,-0.4588,-0.458,-0.4375,-0.4213,-0.404,-0.3837,-0.3628,-0.3452,-0.335,-0.3257,-0.3192,-0.3192,-0.3192,-0.3192,-0.3192,-0.3192,-0.3192,-0.3192,-0.3192,-0.3192,-0.3192,-0.3192,-0.3192,-0.3192,-0.3192,-0.3228,-0.3328,-0.3481,-0.3608,-0.367,-0.3771,-0.398,-0.4348,-0.4327,-0.4464,-0.485,-0.5221,-0.5446,-0.5543,-0.5993,0.0,-0.6538,-0.6794,-0.698,-0.7074,-0.7567,-0.7944,-0.8229,-0.9022,-0.9381,-0.9305,-0.9305,-0.9043,-0.8612,-0.8612,-0.8612,-0.862,-0.8747,-0.8926,-0.9112,-0.9331,-0.9462,-0.9579,-0.913,-0.8928,-0.8757,-0.816,-0.787,-0.7682,-0.0157,-0.0786,-0.1296,-0.1296,-0.1962,-0.2511,-0.2511,-0.2511,-0.255,-0.2668,-0.3333,-0.3802,-0.3802,-0.3802,-0.3843,-0.396,-0.4626,-0.5018,-0.5018,-0.5018,-0.5018,-0.5018,-0.5018,-0.5018,-0.5018,-0.5018,-0.4906,-0.4717,-0.4698,-0.469,-0.469,-0.469,-0.469,-0.469,-0.469,-0.469,-0.469,-0.469,-0.469,-0.469,-0.469,-0.4701,-0.4717,-0.4717,-0.4728,-0.4742,-0.4723,-0.4717,-0.4714,-0.4695,-0.4579,-0.4359,-0.4184,-0.4003,-0.3783,-0.3606,-0.3389,-0.3231,-0.3216,-0.3204,-0.3192,-0.3192,-0.3192,-0.3192,-0.3192,-0.3192,-0.3192,-0.3192,-0.3192,-0.3192,-0.3192,-0.3226,-0.3295,-0.3464,-0.3593,-0.3694,-0.3818,0.0,-0.4061,-0.4414,-0.4433,-0.4584,-0.4951,-0.544,-0.5751,-0.5777,-0.635,-0.6721,-0.6773,-0.7062,-0.724,-0.7302,-0.7666,-0.8074,-0.8542,-0.9243,-0.9496,-0.9305,-0.9305,-0.9043,-0.8612,-0.8612,-0.8612,-0.862,-0.8718,-0.8885,-0.9068,-0.9261,-0.9397,-0.9538,-0.9292,-0.8992,-0.872,-0.8326,-0.793,-0.7543,-0.0943,-0.1218,-0.1296,-0.1296,-0.1962,-0.2511,-0.2511,-0.2511,-0.2744,-0.3489,-0.3724,-0.3802,-0.3802,-0.3802,-0.4077,-0.4742,-0.494,-0.5018,-0.5018,-0.5018,-0.5018,-0.5018,-0.5018,-0.5018,-0.5018,-0.5018,-0.4947,-0.4769,-0.4739,-0.469,-0.469,-0.469,-0.469,-0.469,-0.469,-0.469,-0.469,-0.469,-0.469,-0.469,-0.469,-0.475,-0.4769,-0.4769,-0.4871,-0.4947,-0.4844,-0.4769,-0.479,-0.4725,-0.4579,-0.4395,-0.4359,-0.4106,-0.3783,-0.3747,-0.3621,-0.3442,-0.3399,-0.3285,-0.3192,-0.3192,-0.3192,-0.3192,-0.3192,-0.3192,-0.3192,-0.3192,-0.3192,-0.3192,-0.3192,-0.3328,-0.3464,-0.3498,-0.3749,-0.3936,-0.3969,0.0,-0.4222,-0.4689,-0.463,-0.4766,-0.5281,-0.5639,-0.5944,-0.6124,-0.6493,-0.6826,-0.709,-0.7159,-0.7372,-0.7677,-0.7944,-0.8394,-0.9149,-0.9438,-0.9496,-0.9305,-0.9305,-0.9043,-0.8612,-0.8612,-0.8612,-0.8612,-0.8641,-0.8706,-0.8865,-0.8893,-0.9096,-0.9397,-0.9159,-0.8869,-0.856,-0.816,-0.7769,-0.7387,-0.1184,-0.1342,-0.1453,-0.1884,-0.2237,-0.2511,-0.2511,-0.2511,-0.2824,-0.3684,-0.3802,-0.3802,-0.3802,-0.3802,-0.4116,-0.494,-0.5018,-0.5018,-0.5018,-0.5018,-0.5018,-0.5018,-0.5018,-0.5018,-0.5018,-0.5018,-0.4988,-0.4895,-0.4876,-0.4849,-0.4849,-0.4849,-0.4849,-0.4849,-0.4849,-0.4849,-0.4849,-0.4849,-0.4922,-0.5032,-0.5032,-0.5106,-0.5237,-0.5122,-0.5118,-0.5124,-0.4953,-0.4895,-0.4887,-0.4868,-0.4809,-0.4696,-0.4581,-0.443,-0.4242,-0.4018,-0.3758,-0.3491,-0.3448,-0.3407,-0.3375,-0.3375,-0.3375,-0.3375,-0.3375,-0.3375,-0.336,-0.3311,-0.3301,-0.3321,-0.3339,-0.3431,-0.3565,-0.373,-0.3894,0.0,-0.4131,-0.4282,-0.4462,-0.4758,-0.4835,-0.5051,-0.5471,-0.5857,-0.6131,-0.6292,-0.671,-0.7054,-0.7179,-0.7393,-0.7673,-0.7953,-0.8382,-0.8813,-0.9282,-0.9649,-0.9684,-0.9476,-0.9345,-0.913,-0.874,-0.8652,-0.8612,-0.8612,-0.8612,-0.8666,-0.882,-0.882,-0.8974,-0.9218,-0.9123,-0.8883,-0.8623,-0.818,-0.7844,-0.7528,-0.1256,-0.1362,-0.1572,-0.2363,-0.2511,-0.2511,-0.2511,-0.2668,-0.3059,-0.3724,-0.3802,-0.3802,-0.3802,-0.396,-0.4311,-0.4937,-0.5018,-0.5018,-0.5018,-0.5018,-0.5018,-0.5018,-0.5018,-0.5018,-0.5018,-0.5018,-0.5018,-0.5018,-0.5018,-0.5018,-0.5018,-0.5018,-0.5018,-0.5018,-0.5018,-0.5018,-0.5018,-0.5054,-0.5168,-0.5321,-0.5359,-0.5479,-0.5598,-0.544,-0.5359,-0.5282,-0.5132,-0.5054,-0.5018,-0.5018,-0.5018,-0.4976,-0.4818,-0.474,-0.4623,-0.4311,-0.3973,-0.3667,-0.3571,-0.3516,-0.3499,-0.3499,-0.3499,-0.3499,-0.3499,-0.3499,-0.3517,-0.348,-0.3499,-0.3506,-0.3583,-0.3632,-0.3727,-0.3966,0.0,-0.4131,-0.4267,-0.4461,-0.467,-0.4837,-0.5038,-0.5264,-0.5623,-0.6024,-0.63,-0.6421,-0.6923,-0.7207,-0.7285,-0.7609,-0.7936,-0.8249,-0.8778,-0.9146,-0.9357,-0.9809,-0.9864,-0.9602,-0.9432,-0.9218,-0.8911,-0.874,-0.8656,-0.8612,-0.8612,-0.8641,-0.8763,-0.8763,-0.8869,-0.9035,-0.9035,-0.8888,-0.859,-0.8238,-0.7894,-0.7614,-0.1391,-0.1383,-0.1646,-0.239,-0.2511,-0.2511,-0.2511,-0.3176,-0.3724,-0.3802,-0.3802,-0.3802,-0.3802,-0.4467,-0.494,-0.4979,-0.5018,-0.5018,-0.5018,-0.5018,-0.5018,-0.5018,-0.5018,-0.5018,-0.5018,-0.5018,-0.5018,-0.5018,-0.5018,-0.5018,-0.5018,-0.5018,-0.5018,-0.5018,-0.5018,-0.5018,-0.5018,-0.5207,-0.5282,-0.5321,-0.5518,-0.5598,-0.5598,-0.5598,-0.5479,-0.5282,-0.5282,-0.5168,-0.5018,-0.5018,-0.5018,-0.4979,-0.4979,-0.4859,-0.4701,-0.4662,-0.4491,-0.4224,-0.3714,-0.356,-0.3499,-0.3499,-0.3499,-0.3499,-0.3499,-0.3499,-0.357,-0.3738,-0.3772,-0.3779,-0.3855,-0.4013,-0.4118,-0.4012,0.0,0.0,-0.43,-0.4461,-0.4702,-0.5027,-0.5183,-0.5414,-0.5769,-0.6144,-0.6429,-0.6559,-0.6957,-0.7297,-0.7456,-0.7676,-0.8073,-0.8646,-0.9052,-0.9376,-0.9578,-0.9842,-0.9864,-0.9602,-0.9602,-0.9345,-0.8911,-0.8867,-0.8784,-0.8612,-0.8612,-0.8616,-0.8629,-0.8629,-0.8686,-0.884,-0.884,-0.8704,-0.8481,-0.82,-0.7874,-0.7476,-0.1391,-0.1391,-0.1616,-0.2353,-0.2511,-0.2511,-0.2511,-0.3253,-0.3802,-0.3802,-0.3802,-0.3802,-0.3802,-0.4506,-0.5018,-0.5018,-0.5018,-0.5018,-0.5018,-0.5018,-0.5018,-0.5018,-0.5018,-0.5018,-0.5018,-0.5018,-0.5018,-0.5018,-0.5018,-0.5018,-0.5018,-0.5018,-0.5018,-0.5018,-0.5018,-0.5054,-0.5207,-0.5282,-0.5437,-0.567,-0.5747,-0.5867,-0.6028,-0.5867,-0.5747,-0.5628,-0.5398,-0.5243,-0.5168,-0.5054,-0.5018,-0.5018,-0.5018,-0.4937,-0.4859,-0.474,-0.4543,-0.4375,-0.4142,-0.4067,-0.404,-0.404,-0.404,-0.404,-0.404,-0.404,-0.4062,-0.4112,-0.4101,-0.4142,-0.4211,-0.426,-0.4356,-0.4418,0.0,-0.4553,-0.4553,-0.4795,-0.5023,-0.5142,-0.5435,-0.5704,-0.5892,-0.6276,-0.66,-0.676,-0.7155,-0.7415,-0.748,-0.794,-0.8444,-0.9043,-0.9335,-0.9522,-0.9602,-0.9852,-0.9951,-0.9864,-0.9689,-0.9519,-0.9345,-0.9043,-0.8867,-0.8784,-0.8652,-0.8612,-0.8612,-0.8612,-0.8649,-0.8666,-0.8666,-0.8621,-0.8532,-0.8127,-0.7867,-0.768,-0.1391,-0.1391,-0.1674,-0.2487,-0.2561,-0.2511,-0.2511,-0.3253,-0.3802,-0.3802,-0.3802,-0.3802,-0.3802,-0.4506,-0.5018,-0.5018,-0.5018,-0.5018,-0.5018,-0.5018,-0.5018,-0.5018,-0.5018,-0.5018,-0.5018,-0.5018,-0.5018,-0.5018,-0.5018,-0.5018,-0.5018,-0.5018,-0.5018,-0.5018,-0.5018,-0.5132,-0.5321,-0.5437,-0.5628,-0.5902,-0.598,-0.6141,-0.63,-0.6099,-0.598,-0.5864,-0.5592,-0.5398,-0.5282,-0.5129,-0.5054,-0.5018,-0.5018,-0.5018,-0.4976,-0.482,-0.4701,-0.4582,-0.4582,-0.4582,-0.4543,-0.4423,-0.4384,-0.4384,-0.4384,-0.4384,-0.4404,-0.4413,-0.4437,-0.444,-0.4509,-0.4523,-0.4549,-0.4695,-0.469,-0.4726,-0.4798,-0.5012,-0.524,-0.5359,-0.5656,-0.5932,-0.6088,-0.6441,-0.6745,-0.6892,-0.7288,-0.7547,-0.7682,-0.8268,-0.8787,-0.9298,-0.9587,-0.9743,-0.9743,-0.9923,-0.9994,-0.9994,-0.982,-0.9689,-0.9602,-0.9213,-0.8999,-0.8867,-0.8696,-0.8612,-0.8612,-0.8612,-0.8612,-0.8612,-0.8612,-0.8564,-0.8432,-0.8032,-0.7856,-0.7724,-0.1391,-0.1391,-0.1705,-0.2739,-0.2674,-0.2512,-0.2511,-0.3214,-0.3802,-0.3802,-0.3802,-0.3802,-0.3802,-0.4506,-0.5018,-0.5018,-0.5018,-0.5018,-0.5018,-0.5018,-0.5018,-0.5018,-0.5018,-0.5018,-0.5018,-0.5018,-0.5018,-0.5018,-0.5018,-0.5018,-0.5018,-0.5018,-0.5018,-0.5018,-0.5018,-0.5171,-0.5401,-0.5705,-0.5822,-0.5941,-0.618,-0.63,-0.63,-0.63,-0.6141,-0.5902,-0.5902,-0.5628,-0.5321,-0.5321,-0.5168,-0.5018,-0.5018,-0.5018,-0.5018,-0.5018,-0.5018,-0.5018,-0.5018,-0.5018,-0.4898,-0.4501,-0.4423,-0.4423,-0.4423,-0.4423,-0.4462,-0.4659,-0.4701,-0.4707,-0.4782,-0.4798,-0.4798,-0.4712,-0.4692,-0.4765,-0.4987,-0.5126,-0.5352,-0.5749,-0.5918,-0.6091,-0.6286,-0.6676,-0.6903,-0.6903,-0.7292,-0.7682,-0.8066,-0.8669,-0.909,-0.9315,-0.9761,-0.9994,-0.9994,-0.9994,-0.9994,-0.9994,-0.9994,-0.9864,-0.9602,-0.9388,-0.9174,-0.8911,-0.8696,-0.8612,-0.8612,-0.8612,-0.8612,-0.8612,-0.8612,-0.8428,-0.8157,-0.7984,-0.7724,-0.7462,-0.1345,-0.1391,-0.1705,-0.2739,-0.2813,-0.2707,-0.2537,-0.2705,-0.3096,-0.3724,-0.3802,-0.3802,-0.3802,-0.4506,-0.5018,-0.5018,-0.5018,-0.5018,-0.5018,-0.5018,-0.5018,-0.5018,-0.5018,-0.5018,-0.5018,-0.5018,-0.5018,-0.5018,-0.5018,-0.5018,-0.5018,-0.5018,-0.5018,-0.5018,-0.5287,-0.5482,-0.5559,-0.5709,-0.5941,-0.618,-0.6261,-0.63,-0.63,-0.63,-0.6261,-0.6141,-0.598,-0.5747,-0.5479,-0.5359,-0.5168,-0.5018,-0.5018,-0.5018,-0.5018,-0.5018,-0.5018,-0.5018,-0.5018,-0.5018,-0.4976,-0.4859,-0.4818,-0.4818,-0.4818,-0.4818,-0.482,-0.4898,-0.4898,-0.4927,-0.493,-0.4922,-0.495,-0.4915,-0.5018,-0.5132,-0.5208,-0.5474,-0.5752,-0.587,-0.6071,-0.6248,-0.6293,-0.6676,-0.6952,-0.7032,-0.7545,-0.7963,-0.8228,-0.8534,-0.8883,-0.9273,-0.9588,-0.982,-0.9994,-0.9994,-0.9994,-0.9994,-0.9994,-0.9951,-0.9864,-0.9602,-0.9388,-0.9174,-0.8911,-0.874,-0.8612,-0.8612,-0.8612,-0.8612,-0.8612,-0.8428,-0.8157,-0.7984,-0.7724,-0.7462,-0.13,-0.1391,-0.1705,-0.2739,-0.292,-0.2824,-0.2677,-0.2572,-0.2824,-0.3684,-0.3802,-0.3802,-0.3802,-0.4506,-0.5018,-0.5018,-0.5018,-0.5018,-0.5018,-0.5018,-0.5018,-0.5018,-0.5018,-0.5018,-0.5018,-0.5018,-0.5018,-0.5018,-0.5018,-0.5171,-0.5521,-0.5521,-0.5521,-0.5524,-0.5754,-0.587,-0.587,-0.5944,-0.6099,-0.63,-0.63,-0.63,-0.63,-0.63,-0.63,-0.6261,-0.6099,-0.5906,-0.5673,-0.5479,-0.5246,-0.5018,-0.5018,-0.5018,-0.5018,-0.5018,-0.5018,-0.5018,-0.5018,-0.5018,-0.5018,-0.5018,-0.5018,-0.5018,-0.5018,-0.5018,-0.5018,-0.5018,-0.5018,-0.5018,-0.5018,-0.5018,-0.5015,-0.509,-0.5207,-0.5359,-0.5512,-0.5747,-0.5941,-0.606,-0.6219,-0.6323,-0.6378,-0.6731,-0.7107,-0.7438,-0.7855,-0.8167,-0.8296,-0.8551,-0.8871,-0.9133,-0.9456,-0.9689,-0.982,-0.9951,-0.9994,-0.9994,-0.9994,-0.9994,-0.9994,-0.9733,-0.9476,-0.9301,-0.8999,-0.8784,-0.8612,-0.8612,-0.8612,-0.8612,-0.8476,-0.8296,-0.8072,-0.7808,-0.7591,-0.7323,-0.13,-0.1391,-0.1705,-0.2604,-0.2829,-0.292,-0.292,-0.2685,-0.2852,-0.3688,-0.3802,-0.3802,-0.3802,-0.447,-0.494,-0.4979,-0.5018,-0.5018,-0.5018,-0.5018,-0.5018,-0.5018,-0.5018,-0.5018,-0.5018,-0.5018,-0.5054,-0.5132,-0.5132,-0.5524,-0.63,-0.63,-0.63,-0.63,-0.63,-0.63,-0.63,-0.63,-0.63,-0.63,-0.63,-0.63,-0.63,-0.63,-0.63,-0.63,-0.63,-0.6138,-0.5864,-0.5634,-0.5326,-0.5015,-0.5018,-0.5018,-0.5018,-0.5018,-0.5018,-0.5018,-0.5018,-0.5018,-0.5018,-0.5018,-0.5018,-0.5018,-0.5018,-0.5018,-0.5018,-0.5018,-0.5018,-0.5018,-0.5018,-0.5018,-0.5093,-0.5282,-0.5321,-0.5479,-0.5879,-0.5957,-0.6045,-0.6298,-0.6337,-0.6388,-0.6521,-0.6907,-0.7381,-0.7987,-0.8211,-0.8316,-0.8316,-0.8688,-0.8867,-0.8911,-0.9301,-0.9559,-0.9602,-0.982,-0.9994,-0.9994,-0.9994,-0.9994,-0.9994,-0.9733,-0.9519,-0.9301,-0.9043,-0.8828,-0.8612,-0.8612,-0.8612,-0.8568,-0.8292,-0.8069,-0.7856,-0.7595,-0.7323,-0.7095,-0.13,-0.1391,-0.148,-0.1705,-0.2379,-0.292,-0.292,-0.283,-0.3066,-0.3722,-0.3802,-0.3802,-0.3802,-0.396,-0.4311,-0.4937,-0.5018,-0.5018,-0.5018,-0.5018,-0.5018,-0.5018,-0.5018,-0.5018,-0.5018,-0.5018,-0.5329,-0.6028,-0.6028,-0.6106,-0.63,-0.63,-0.63,-0.63,-0.63,-0.63,-0.63,-0.63,-0.63,-0.63,-0.63,-0.63,-0.63,-0.63,-0.63,-0.63,-0.63,-0.6138,-0.5864,-0.5476,-0.5321,-0.5207,-0.5054,-0.5018,-0.5018,-0.5018,-0.5018,-0.5018,-0.5018,-0.5018,-0.5018,-0.5018,-0.5018,-0.5018,-0.5018,-0.5018,-0.5018,-0.5018,-0.5018,-0.5018,-0.5018,-0.5132,-0.5243,-0.5282,-0.5553,-0.5863,-0.6096,-0.6268,-0.6428,-0.659,-0.6607,-0.6617,-0.6647,-0.717,-0.7678,-0.8185,-0.8402,-0.8551,-0.8551,-0.8632,-0.874,-0.8911,-0.8999,-0.9213,-0.9602,-0.9646,-0.9777,-0.9994,-0.9994,-0.9994,-0.9994,-0.9951,-0.9694,-0.9305,-0.9218,-0.8999,-0.8612,-0.8612,-0.8612,-0.8568,-0.8292,-0.8069,-0.7856,-0.7595,-0.7323,-0.7095,-0.1256,-0.1391,-0.1391,-0.1391,-0.2243,-0.292,-0.292,-0.292,-0.296,-0.3137,-0.3528,-0.3802,-0.3802,-0.3802,-0.4116,-0.494,-0.5018,-0.5018,-0.5018,-0.5018,-0.5018,-0.5018,-0.5018,-0.5018,-0.5018,-0.5018,-0.5443,-0.63,-0.63,-0.63,-0.63,-0.63,-0.63,-0.63,-0.63,-0.63,-0.63,-0.63,-0.63,-0.63,-0.63,-0.63,-0.63,-0.63,-0.63,-0.63,-0.63,-0.6138,-0.5873,-0.5626,-0.5489,-0.5385,-0.5248,-0.5184,-0.5184,-0.5184,-0.5184,-0.5184,-0.5184,-0.5184,-0.5184,-0.5184,-0.5184,-0.5154,-0.5042,-0.5018,-0.5031,-0.5086,-0.5097,-0.5155,-0.5299,-0.5428,-0.5545,-0.578,-0.6021,-0.6207,-0.641,-0.6542,-0.661,-0.6692,-0.6702,-0.6812,-0.7091,-0.7496,-0.7938,-0.8422,-0.8555,-0.8612,-0.8612,-0.8612,-0.8652,-0.874,-0.8872,-0.9087,-0.9432,-0.9563,-0.9733,-0.9994,-0.9994,-0.9994,-0.9994,-0.9994,-0.9733,-0.9305,-0.9305,-0.9047,-0.8612,-0.8612,-0.8612,-0.8564,-0.8208,-0.7984,-0.7856,-0.7455,-0.7231,-0.7095,-0.1211,-0.1391,-0.1391,-0.1391,-0.2243,-0.292,-0.292,-0.292,-0.2801,-0.26,-0.3288,-0.3802,-0.3802,-0.3802,-0.4114,-0.4859,-0.4937,-0.4976,-0.5018,-0.5018,-0.5018,-0.5018,-0.5018,-0.5018,-0.5018,-0.5018,-0.5443,-0.63,-0.63,-0.63,-0.63,-0.63,-0.63,-0.63,-0.63,-0.63,-0.63,-0.63,-0.63,-0.63,-0.63,-0.63,-0.63,-0.63,-0.63,-0.6303,-0.6327,-0.6191,-0.6031,-0.5867,-0.5705,-0.5563,-0.5421,-0.541,-0.541,-0.541,-0.541,-0.541,-0.541,-0.541,-0.541,-0.541,-0.541,-0.5361,-0.5121,-0.5078,-0.5105,-0.5197,-0.5216,-0.533,-0.5646,-0.5707,-0.5913,-0.6319,-0.6443,-0.6539,-0.6694,-0.6739,-0.6749,-0.6773,-0.6776,-0.6993,-0.7586,-0.7818,-0.8076,-0.8568,-0.8612,-0.8612,-0.8612,-0.8612,-0.8612,-0.8612,-0.874,-0.8955,-0.9218,-0.9432,-0.9689,-0.9951,-0.9994,-0.9994,-0.9994,-0.9994,-0.9733,-0.9305,-0.9305,-0.9047,-0.8612,-0.8612,-0.8612,-0.8568,-0.8076,-0.79,-0.7856,-0.7319,-0.7095,-0.7095,-0.1256,-0.1391,-0.1391,-0.1391,-0.2243,-0.292,-0.292,-0.292,-0.2907,-0.283,-0.3424,-0.3802,-0.3802,-0.3802,-0.4036,-0.4621,-0.4701,-0.4818,-0.4979,-0.5018,-0.5018,-0.5018,-0.5018,-0.5018,-0.5018,-0.5018,-0.5443,-0.63,-0.63,-0.63,-0.63,-0.63,-0.63,-0.63,-0.63,-0.63,-0.63,-0.63,-0.63,-0.63,-0.63,-0.63,-0.63,-0.63,-0.63,-0.6317,-0.6439,-0.6529,-0.6517,-0.6125,-0.5965,-0.5886,-0.5529,-0.541,-0.541,-0.541,-0.541,-0.541,-0.541,-0.541,-0.541,-0.541,-0.541,-0.5402,-0.5369,-0.5364,-0.5366,-0.5383,-0.5385,-0.5432,-0.5663,-0.5829,-0.6076,-0.636,-0.6529,-0.6704,-0.6836,-0.6856,-0.69,-0.7021,-0.7038,-0.7267,-0.7819,-0.7885,-0.8076,-0.8568,-0.8612,-0.8612,-0.8612,-0.8612,-0.8612,-0.8612,-0.8612,-0.874,-0.8955,-0.9218,-0.9432,-0.9646,-0.9907,-0.9994,-0.9994,-0.9994,-0.9733,-0.9305,-0.9305,-0.9047,-0.8612,-0.8612,-0.8612,-0.8568,-0.8076,-0.79,-0.7856,-0.7319,-0.7095,-0.7095,-0.1032,-0.13,-0.1391,-0.1391,-0.1749,-0.2243,-0.2829,-0.292,-0.292,-0.292,-0.2994,-0.3255,-0.3763,-0.3802,-0.396,-0.435,-0.4584,-0.474,-0.4818,-0.4937,-0.5018,-0.5018,-0.5018,-0.5018,-0.5018,-0.5018,-0.5443,-0.63,-0.63,-0.63,-0.63,-0.63,-0.63,-0.63,-0.63,-0.63,-0.63,-0.63,-0.63,-0.63,-0.63,-0.63,-0.631,-0.6388,-0.6419,-0.6436,-0.6546,-0.6644,-0.6629,-0.6249,-0.6108,-0.6035,-0.568,-0.5572,-0.5572,-0.5572,-0.5572,-0.5572,-0.5572,-0.5572,-0.5572,-0.5572,-0.5572,-0.5572,-0.5572,-0.5572,-0.5553,-0.5485,-0.5554,-0.5744,-0.603,-0.6304,-0.6516,-0.6771,-0.686,-0.6927,-0.6994,-0.7004,-0.7024,-0.7088,-0.7095,-0.7231,-0.7635,-0.7812,-0.8028,-0.834,-0.852,-0.8612,-0.8612,-0.8612,-0.8612,-0.8612,-0.8612,-0.8696,-0.8911,-0.8999,-0.9257,-0.9602,-0.9733,-0.9864,-0.9994,-0.9994,-0.9733,-0.9305,-0.9305,-0.9047,-0.8612,-0.8612,-0.8612,-0.8568,-0.8076,-0.7779,-0.7586,-0.7361,-0.7322,-0.7397]}]]